<?xml version="1.0" encoding="UTF-8" standalone="no" ?>
<gpx xmlns="http://www.topografix.com/GPX/1/1" xmlns:xsi="http://www.w3.org/2001/XMLSchema-instance" xsi:schemaLocation="http://www.topografix.com/GPX/1/1 http://www.topografix.com/GPX/1/1/gpx.xsd" version="1.1" creator="VisuGPX - https://www.visugpx.com">
  <metadata>
    <name>Circuit Franqueville Epinay</name>
    <desc><![CDATA[Circuit au départ de Fraanqueville Saint Pierre avec retour par Epinay]]></desc>
  </metadata>
  <trk>
    <name><![CDATA[Circuit Franqueville Epinay_1]]></name>
    <trkseg>
      <trkpt lat="49.40325" lon="1.17196">
        <ele>151</ele>
        <time>2017-11-21T13:38:19Z</time>
      </trkpt>
      <trkpt lat="49.40325" lon="1.17196">
        <ele>151</ele>
        <time>2017-11-21T13:38:19Z</time>
      </trkpt>
      <trkpt lat="49.40326" lon="1.17199">
        <ele>151</ele>
        <time>2017-11-21T13:38:19Z</time>
      </trkpt>
      <trkpt lat="49.4033" lon="1.17201">
        <ele>151</ele>
        <time>2017-11-21T13:38:19Z</time>
      </trkpt>
      <trkpt lat="49.40335" lon="1.17203">
        <ele>151</ele>
        <time>2017-11-21T13:38:19Z</time>
      </trkpt>
      <trkpt lat="49.40338" lon="1.1721">
        <ele>151</ele>
        <time>2017-11-21T13:38:35Z</time>
      </trkpt>
      <trkpt lat="49.4034" lon="1.17217">
        <ele>151</ele>
        <time>2017-11-21T13:38:35Z</time>
      </trkpt>
      <trkpt lat="49.40343" lon="1.17224">
        <ele>151</ele>
        <time>2017-11-21T13:38:35Z</time>
      </trkpt>
      <trkpt lat="49.40347" lon="1.17229">
        <ele>151</ele>
        <time>2017-11-21T13:38:35Z</time>
      </trkpt>
      <trkpt lat="49.40351" lon="1.17233">
        <ele>151</ele>
        <time>2017-11-21T13:38:51Z</time>
      </trkpt>
      <trkpt lat="49.40355" lon="1.17236">
        <ele>151</ele>
        <time>2017-11-21T13:38:51Z</time>
      </trkpt>
      <trkpt lat="49.40358" lon="1.17241">
        <ele>151</ele>
        <time>2017-11-21T13:38:51Z</time>
      </trkpt>
      <trkpt lat="49.40361" lon="1.17244">
        <ele>151</ele>
        <time>2017-11-21T13:38:51Z</time>
      </trkpt>
      <trkpt lat="49.40365" lon="1.17247">
        <ele>151</ele>
        <time>2017-11-21T13:39:07Z</time>
      </trkpt>
      <trkpt lat="49.40369" lon="1.17249">
        <ele>151</ele>
        <time>2017-11-21T13:39:07Z</time>
      </trkpt>
      <trkpt lat="49.40374" lon="1.17251">
        <ele>151</ele>
        <time>2017-11-21T13:39:07Z</time>
      </trkpt>
      <trkpt lat="49.40379" lon="1.17254">
        <ele>153</ele>
        <time>2017-11-21T13:39:07Z</time>
      </trkpt>
      <trkpt lat="49.40384" lon="1.17257">
        <ele>153</ele>
        <time>2017-11-21T13:39:23Z</time>
      </trkpt>
      <trkpt lat="49.40387" lon="1.1726">
        <ele>153</ele>
        <time>2017-11-21T13:39:23Z</time>
      </trkpt>
      <trkpt lat="49.40391" lon="1.17262">
        <ele>153</ele>
        <time>2017-11-21T13:39:23Z</time>
      </trkpt>
      <trkpt lat="49.40395" lon="1.17265">
        <ele>153</ele>
        <time>2017-11-21T13:39:23Z</time>
      </trkpt>
      <trkpt lat="49.404" lon="1.17268">
        <ele>153</ele>
        <time>2017-11-21T13:39:39Z</time>
      </trkpt>
      <trkpt lat="49.40404" lon="1.1727">
        <ele>153</ele>
        <time>2017-11-21T13:39:39Z</time>
      </trkpt>
      <trkpt lat="49.40409" lon="1.17274">
        <ele>153</ele>
        <time>2017-11-21T13:39:39Z</time>
      </trkpt>
      <trkpt lat="49.40414" lon="1.17276">
        <ele>153</ele>
        <time>2017-11-21T13:39:39Z</time>
      </trkpt>
      <trkpt lat="49.40419" lon="1.1728">
        <ele>153</ele>
        <time>2017-11-21T13:39:55Z</time>
      </trkpt>
      <trkpt lat="49.40423" lon="1.17284">
        <ele>153</ele>
        <time>2017-11-21T13:39:55Z</time>
      </trkpt>
      <trkpt lat="49.40427" lon="1.17287">
        <ele>153</ele>
        <time>2017-11-21T13:39:55Z</time>
      </trkpt>
      <trkpt lat="49.40431" lon="1.17291">
        <ele>153</ele>
        <time>2017-11-21T13:39:55Z</time>
      </trkpt>
      <trkpt lat="49.40435" lon="1.17295">
        <ele>153</ele>
        <time>2017-11-21T13:40:11Z</time>
      </trkpt>
      <trkpt lat="49.40439" lon="1.17298">
        <ele>153</ele>
        <time>2017-11-21T13:40:11Z</time>
      </trkpt>
      <trkpt lat="49.40442" lon="1.17302">
        <ele>153</ele>
        <time>2017-11-21T13:40:11Z</time>
      </trkpt>
      <trkpt lat="49.40445" lon="1.17307">
        <ele>153</ele>
        <time>2017-11-21T13:40:11Z</time>
      </trkpt>
      <trkpt lat="49.40449" lon="1.17311">
        <ele>153</ele>
        <time>2017-11-21T13:40:27Z</time>
      </trkpt>
      <trkpt lat="49.40453" lon="1.17314">
        <ele>153</ele>
        <time>2017-11-21T13:40:27Z</time>
      </trkpt>
      <trkpt lat="49.40457" lon="1.17319">
        <ele>153</ele>
        <time>2017-11-21T13:40:27Z</time>
      </trkpt>
      <trkpt lat="49.40461" lon="1.17323">
        <ele>156</ele>
        <time>2017-11-21T13:40:27Z</time>
      </trkpt>
      <trkpt lat="49.40464" lon="1.17327">
        <ele>156</ele>
        <time>2017-11-21T13:40:43Z</time>
      </trkpt>
      <trkpt lat="49.40468" lon="1.17331">
        <ele>156</ele>
        <time>2017-11-21T13:40:43Z</time>
      </trkpt>
      <trkpt lat="49.40472" lon="1.17335">
        <ele>156</ele>
        <time>2017-11-21T13:40:43Z</time>
      </trkpt>
      <trkpt lat="49.40477" lon="1.1734">
        <ele>156</ele>
        <time>2017-11-21T13:40:43Z</time>
      </trkpt>
      <trkpt lat="49.40481" lon="1.17344">
        <ele>156</ele>
        <time>2017-11-21T13:40:59Z</time>
      </trkpt>
      <trkpt lat="49.40486" lon="1.17349">
        <ele>156</ele>
        <time>2017-11-21T13:40:59Z</time>
      </trkpt>
      <trkpt lat="49.4049" lon="1.17353">
        <ele>156</ele>
        <time>2017-11-21T13:40:59Z</time>
      </trkpt>
      <trkpt lat="49.40494" lon="1.17357">
        <ele>156</ele>
        <time>2017-11-21T13:40:59Z</time>
      </trkpt>
      <trkpt lat="49.40498" lon="1.17361">
        <ele>156</ele>
        <time>2017-11-21T13:41:15Z</time>
      </trkpt>
      <trkpt lat="49.40501" lon="1.17365">
        <ele>156</ele>
        <time>2017-11-21T13:41:15Z</time>
      </trkpt>
      <trkpt lat="49.40505" lon="1.1737">
        <ele>156</ele>
        <time>2017-11-21T13:41:15Z</time>
      </trkpt>
      <trkpt lat="49.40509" lon="1.17375">
        <ele>156</ele>
        <time>2017-11-21T13:41:15Z</time>
      </trkpt>
      <trkpt lat="49.40512" lon="1.17379">
        <ele>156</ele>
        <time>2017-11-21T13:41:31Z</time>
      </trkpt>
      <trkpt lat="49.40516" lon="1.17382">
        <ele>156</ele>
        <time>2017-11-21T13:41:31Z</time>
      </trkpt>
      <trkpt lat="49.4052" lon="1.17386">
        <ele>156</ele>
        <time>2017-11-21T13:41:31Z</time>
      </trkpt>
      <trkpt lat="49.40524" lon="1.17391">
        <ele>156</ele>
        <time>2017-11-21T13:41:31Z</time>
      </trkpt>
      <trkpt lat="49.40528" lon="1.17395">
        <ele>156</ele>
        <time>2017-11-21T13:41:47Z</time>
      </trkpt>
      <trkpt lat="49.40532" lon="1.174">
        <ele>156</ele>
        <time>2017-11-21T13:41:47Z</time>
      </trkpt>
      <trkpt lat="49.40536" lon="1.17405">
        <ele>156</ele>
        <time>2017-11-21T13:41:47Z</time>
      </trkpt>
      <trkpt lat="49.4054" lon="1.17409">
        <ele>156</ele>
        <time>2017-11-21T13:41:47Z</time>
      </trkpt>
      <trkpt lat="49.40544" lon="1.17413">
        <ele>158</ele>
        <time>2017-11-21T13:42:03Z</time>
      </trkpt>
      <trkpt lat="49.40549" lon="1.17417">
        <ele>158</ele>
        <time>2017-11-21T13:42:03Z</time>
      </trkpt>
      <trkpt lat="49.40553" lon="1.17422">
        <ele>158</ele>
        <time>2017-11-21T13:42:03Z</time>
      </trkpt>
      <trkpt lat="49.40557" lon="1.17426">
        <ele>158</ele>
        <time>2017-11-21T13:42:03Z</time>
      </trkpt>
      <trkpt lat="49.4056" lon="1.1743">
        <ele>158</ele>
        <time>2017-11-21T13:42:19Z</time>
      </trkpt>
      <trkpt lat="49.40564" lon="1.17434">
        <ele>158</ele>
        <time>2017-11-21T13:42:19Z</time>
      </trkpt>
      <trkpt lat="49.40568" lon="1.17438">
        <ele>158</ele>
        <time>2017-11-21T13:42:19Z</time>
      </trkpt>
      <trkpt lat="49.40571" lon="1.17442">
        <ele>158</ele>
        <time>2017-11-21T13:42:19Z</time>
      </trkpt>
      <trkpt lat="49.40575" lon="1.17447">
        <ele>158</ele>
        <time>2017-11-21T13:42:35Z</time>
      </trkpt>
      <trkpt lat="49.4058" lon="1.17451">
        <ele>158</ele>
        <time>2017-11-21T13:42:35Z</time>
      </trkpt>
      <trkpt lat="49.40584" lon="1.17455">
        <ele>158</ele>
        <time>2017-11-21T13:42:35Z</time>
      </trkpt>
      <trkpt lat="49.40588" lon="1.17461">
        <ele>158</ele>
        <time>2017-11-21T13:42:35Z</time>
      </trkpt>
      <trkpt lat="49.40593" lon="1.17465">
        <ele>158</ele>
        <time>2017-11-21T13:42:51Z</time>
      </trkpt>
      <trkpt lat="49.40597" lon="1.1747">
        <ele>158</ele>
        <time>2017-11-21T13:42:51Z</time>
      </trkpt>
      <trkpt lat="49.40601" lon="1.17475">
        <ele>158</ele>
        <time>2017-11-21T13:42:51Z</time>
      </trkpt>
      <trkpt lat="49.40606" lon="1.1748">
        <ele>158</ele>
        <time>2017-11-21T13:42:51Z</time>
      </trkpt>
      <trkpt lat="49.4061" lon="1.17486">
        <ele>158</ele>
        <time>2017-11-21T13:43:07Z</time>
      </trkpt>
      <trkpt lat="49.40614" lon="1.17492">
        <ele>158</ele>
        <time>2017-11-21T13:43:07Z</time>
      </trkpt>
      <trkpt lat="49.40618" lon="1.17496">
        <ele>158</ele>
        <time>2017-11-21T13:43:07Z</time>
      </trkpt>
      <trkpt lat="49.40621" lon="1.17501">
        <ele>158</ele>
        <time>2017-11-21T13:43:07Z</time>
      </trkpt>
      <trkpt lat="49.40625" lon="1.17506">
        <ele>158</ele>
        <time>2017-11-21T13:43:23Z</time>
      </trkpt>
      <trkpt lat="49.40628" lon="1.1751">
        <ele>159</ele>
        <time>2017-11-21T13:43:23Z</time>
      </trkpt>
      <trkpt lat="49.40632" lon="1.17514">
        <ele>159</ele>
        <time>2017-11-21T13:43:23Z</time>
      </trkpt>
      <trkpt lat="49.40636" lon="1.17519">
        <ele>159</ele>
        <time>2017-11-21T13:43:23Z</time>
      </trkpt>
      <trkpt lat="49.40639" lon="1.17524">
        <ele>159</ele>
        <time>2017-11-21T13:43:39Z</time>
      </trkpt>
      <trkpt lat="49.40643" lon="1.17529">
        <ele>159</ele>
        <time>2017-11-21T13:43:39Z</time>
      </trkpt>
      <trkpt lat="49.40647" lon="1.17532">
        <ele>159</ele>
        <time>2017-11-21T13:43:39Z</time>
      </trkpt>
      <trkpt lat="49.40651" lon="1.17538">
        <ele>159</ele>
        <time>2017-11-21T13:43:39Z</time>
      </trkpt>
      <trkpt lat="49.40654" lon="1.17543">
        <ele>158</ele>
        <time>2017-11-21T13:43:55Z</time>
      </trkpt>
      <trkpt lat="49.40659" lon="1.17548">
        <ele>158</ele>
        <time>2017-11-21T13:43:55Z</time>
      </trkpt>
      <trkpt lat="49.40663" lon="1.17553">
        <ele>158</ele>
        <time>2017-11-21T13:43:55Z</time>
      </trkpt>
      <trkpt lat="49.40667" lon="1.17558">
        <ele>158</ele>
        <time>2017-11-21T13:43:55Z</time>
      </trkpt>
      <trkpt lat="49.4067" lon="1.17563">
        <ele>158</ele>
        <time>2017-11-21T13:44:11Z</time>
      </trkpt>
      <trkpt lat="49.40673" lon="1.17568">
        <ele>158</ele>
        <time>2017-11-21T13:44:11Z</time>
      </trkpt>
      <trkpt lat="49.40677" lon="1.17572">
        <ele>158</ele>
        <time>2017-11-21T13:44:11Z</time>
      </trkpt>
      <trkpt lat="49.40681" lon="1.17577">
        <ele>158</ele>
        <time>2017-11-21T13:44:11Z</time>
      </trkpt>
      <trkpt lat="49.40683" lon="1.17582">
        <ele>158</ele>
        <time>2017-11-21T13:44:31Z</time>
      </trkpt>
      <trkpt lat="49.40682" lon="1.17584">
        <ele>158</ele>
        <time>2017-11-21T13:44:31Z</time>
      </trkpt>
      <trkpt lat="49.40683" lon="1.1759">
        <ele>158</ele>
        <time>2017-11-21T13:44:31Z</time>
      </trkpt>
      <trkpt lat="49.40684" lon="1.17596">
        <ele>158</ele>
        <time>2017-11-21T13:44:31Z</time>
      </trkpt>
      <trkpt lat="49.40686" lon="1.17602">
        <ele>158</ele>
        <time>2017-11-21T13:44:31Z</time>
      </trkpt>
      <trkpt lat="49.40691" lon="1.17606">
        <ele>158</ele>
        <time>2017-11-21T13:44:47Z</time>
      </trkpt>
      <trkpt lat="49.40696" lon="1.1761">
        <ele>158</ele>
        <time>2017-11-21T13:44:47Z</time>
      </trkpt>
      <trkpt lat="49.40701" lon="1.17613">
        <ele>158</ele>
        <time>2017-11-21T13:44:47Z</time>
      </trkpt>
      <trkpt lat="49.40706" lon="1.17616">
        <ele>158</ele>
        <time>2017-11-21T13:44:47Z</time>
      </trkpt>
      <trkpt lat="49.40711" lon="1.17619">
        <ele>158</ele>
        <time>2017-11-21T13:45:03Z</time>
      </trkpt>
      <trkpt lat="49.40715" lon="1.17623">
        <ele>158</ele>
        <time>2017-11-21T13:45:03Z</time>
      </trkpt>
      <trkpt lat="49.40719" lon="1.17626">
        <ele>157</ele>
        <time>2017-11-21T13:45:03Z</time>
      </trkpt>
      <trkpt lat="49.40724" lon="1.17629">
        <ele>157</ele>
        <time>2017-11-21T13:45:03Z</time>
      </trkpt>
      <trkpt lat="49.40729" lon="1.17633">
        <ele>157</ele>
        <time>2017-11-21T13:45:19Z</time>
      </trkpt>
      <trkpt lat="49.40733" lon="1.17636">
        <ele>157</ele>
        <time>2017-11-21T13:45:19Z</time>
      </trkpt>
      <trkpt lat="49.40738" lon="1.17638">
        <ele>157</ele>
        <time>2017-11-21T13:45:19Z</time>
      </trkpt>
      <trkpt lat="49.40743" lon="1.1764">
        <ele>157</ele>
        <time>2017-11-21T13:45:19Z</time>
      </trkpt>
      <trkpt lat="49.40748" lon="1.17641">
        <ele>157</ele>
        <time>2017-11-21T13:45:35Z</time>
      </trkpt>
      <trkpt lat="49.40753" lon="1.1764">
        <ele>157</ele>
        <time>2017-11-21T13:45:35Z</time>
      </trkpt>
      <trkpt lat="49.40757" lon="1.17636">
        <ele>157</ele>
        <time>2017-11-21T13:45:35Z</time>
      </trkpt>
      <trkpt lat="49.40762" lon="1.17632">
        <ele>157</ele>
        <time>2017-11-21T13:45:35Z</time>
      </trkpt>
      <trkpt lat="49.40765" lon="1.17627">
        <ele>157</ele>
        <time>2017-11-21T13:45:51Z</time>
      </trkpt>
      <trkpt lat="49.40769" lon="1.17622">
        <ele>158</ele>
        <time>2017-11-21T13:45:51Z</time>
      </trkpt>
      <trkpt lat="49.40773" lon="1.17617">
        <ele>158</ele>
        <time>2017-11-21T13:45:51Z</time>
      </trkpt>
      <trkpt lat="49.40776" lon="1.17612">
        <ele>158</ele>
        <time>2017-11-21T13:45:51Z</time>
      </trkpt>
      <trkpt lat="49.4078" lon="1.17607">
        <ele>158</ele>
        <time>2017-11-21T13:46:07Z</time>
      </trkpt>
      <trkpt lat="49.40784" lon="1.17601">
        <ele>158</ele>
        <time>2017-11-21T13:46:07Z</time>
      </trkpt>
      <trkpt lat="49.40788" lon="1.17596">
        <ele>158</ele>
        <time>2017-11-21T13:46:07Z</time>
      </trkpt>
      <trkpt lat="49.40792" lon="1.17591">
        <ele>158</ele>
        <time>2017-11-21T13:46:07Z</time>
      </trkpt>
      <trkpt lat="49.40795" lon="1.17586">
        <ele>157</ele>
        <time>2017-11-21T13:46:23Z</time>
      </trkpt>
      <trkpt lat="49.40799" lon="1.17581">
        <ele>157</ele>
        <time>2017-11-21T13:46:23Z</time>
      </trkpt>
      <trkpt lat="49.40802" lon="1.17576">
        <ele>157</ele>
        <time>2017-11-21T13:46:23Z</time>
      </trkpt>
      <trkpt lat="49.40806" lon="1.17571">
        <ele>157</ele>
        <time>2017-11-21T13:46:23Z</time>
      </trkpt>
      <trkpt lat="49.4081" lon="1.17566">
        <ele>157</ele>
        <time>2017-11-21T13:46:39Z</time>
      </trkpt>
      <trkpt lat="49.40814" lon="1.17561">
        <ele>157</ele>
        <time>2017-11-21T13:46:39Z</time>
      </trkpt>
      <trkpt lat="49.40818" lon="1.17557">
        <ele>157</ele>
        <time>2017-11-21T13:46:39Z</time>
      </trkpt>
      <trkpt lat="49.40821" lon="1.17552">
        <ele>157</ele>
        <time>2017-11-21T13:46:39Z</time>
      </trkpt>
      <trkpt lat="49.40825" lon="1.17547">
        <ele>157</ele>
        <time>2017-11-21T13:46:55Z</time>
      </trkpt>
      <trkpt lat="49.40828" lon="1.17542">
        <ele>157</ele>
        <time>2017-11-21T13:46:55Z</time>
      </trkpt>
      <trkpt lat="49.40832" lon="1.17537">
        <ele>157</ele>
        <time>2017-11-21T13:46:55Z</time>
      </trkpt>
      <trkpt lat="49.40836" lon="1.17532">
        <ele>157</ele>
        <time>2017-11-21T13:46:55Z</time>
      </trkpt>
      <trkpt lat="49.40839" lon="1.17528">
        <ele>157</ele>
        <time>2017-11-21T13:47:11Z</time>
      </trkpt>
      <trkpt lat="49.40843" lon="1.17522">
        <ele>157</ele>
        <time>2017-11-21T13:47:11Z</time>
      </trkpt>
      <trkpt lat="49.40847" lon="1.17517">
        <ele>157</ele>
        <time>2017-11-21T13:47:11Z</time>
      </trkpt>
      <trkpt lat="49.40851" lon="1.17512">
        <ele>157</ele>
        <time>2017-11-21T13:47:11Z</time>
      </trkpt>
      <trkpt lat="49.40855" lon="1.17507">
        <ele>157</ele>
        <time>2017-11-21T13:47:27Z</time>
      </trkpt>
      <trkpt lat="49.40859" lon="1.17503">
        <ele>157</ele>
        <time>2017-11-21T13:47:27Z</time>
      </trkpt>
      <trkpt lat="49.40863" lon="1.17498">
        <ele>157</ele>
        <time>2017-11-21T13:47:27Z</time>
      </trkpt>
      <trkpt lat="49.40867" lon="1.17493">
        <ele>157</ele>
        <time>2017-11-21T13:47:27Z</time>
      </trkpt>
      <trkpt lat="49.40871" lon="1.17488">
        <ele>157</ele>
        <time>2017-11-21T13:47:43Z</time>
      </trkpt>
      <trkpt lat="49.40875" lon="1.17483">
        <ele>157</ele>
        <time>2017-11-21T13:47:43Z</time>
      </trkpt>
      <trkpt lat="49.40879" lon="1.17478">
        <ele>157</ele>
        <time>2017-11-21T13:47:43Z</time>
      </trkpt>
      <trkpt lat="49.40883" lon="1.17473">
        <ele>157</ele>
        <time>2017-11-21T13:47:43Z</time>
      </trkpt>
      <trkpt lat="49.40887" lon="1.17468">
        <ele>157</ele>
        <time>2017-11-21T13:47:59Z</time>
      </trkpt>
      <trkpt lat="49.4089" lon="1.17463">
        <ele>157</ele>
        <time>2017-11-21T13:47:59Z</time>
      </trkpt>
      <trkpt lat="49.40894" lon="1.17458">
        <ele>158</ele>
        <time>2017-11-21T13:47:59Z</time>
      </trkpt>
      <trkpt lat="49.40898" lon="1.17453">
        <ele>158</ele>
        <time>2017-11-21T13:47:59Z</time>
      </trkpt>
      <trkpt lat="49.40901" lon="1.17449">
        <ele>158</ele>
        <time>2017-11-21T13:48:15Z</time>
      </trkpt>
      <trkpt lat="49.40905" lon="1.17444">
        <ele>158</ele>
        <time>2017-11-21T13:48:15Z</time>
      </trkpt>
      <trkpt lat="49.40909" lon="1.17439">
        <ele>158</ele>
        <time>2017-11-21T13:48:15Z</time>
      </trkpt>
      <trkpt lat="49.40913" lon="1.17435">
        <ele>158</ele>
        <time>2017-11-21T13:48:15Z</time>
      </trkpt>
      <trkpt lat="49.40917" lon="1.17433">
        <ele>158</ele>
        <time>2017-11-21T13:48:31Z</time>
      </trkpt>
      <trkpt lat="49.40921" lon="1.1744">
        <ele>158</ele>
        <time>2017-11-21T13:48:31Z</time>
      </trkpt>
      <trkpt lat="49.40924" lon="1.17446">
        <ele>158</ele>
        <time>2017-11-21T13:48:31Z</time>
      </trkpt>
      <trkpt lat="49.40928" lon="1.17451">
        <ele>158</ele>
        <time>2017-11-21T13:48:31Z</time>
      </trkpt>
      <trkpt lat="49.40932" lon="1.17456">
        <ele>158</ele>
        <time>2017-11-21T13:48:47Z</time>
      </trkpt>
      <trkpt lat="49.40936" lon="1.17461">
        <ele>157</ele>
        <time>2017-11-21T13:48:47Z</time>
      </trkpt>
      <trkpt lat="49.40939" lon="1.17466">
        <ele>157</ele>
        <time>2017-11-21T13:48:47Z</time>
      </trkpt>
      <trkpt lat="49.40943" lon="1.17471">
        <ele>157</ele>
        <time>2017-11-21T13:48:47Z</time>
      </trkpt>
      <trkpt lat="49.40947" lon="1.17476">
        <ele>157</ele>
        <time>2017-11-21T13:49:03Z</time>
      </trkpt>
      <trkpt lat="49.40951" lon="1.17481">
        <ele>157</ele>
        <time>2017-11-21T13:49:03Z</time>
      </trkpt>
      <trkpt lat="49.40955" lon="1.17485">
        <ele>157</ele>
        <time>2017-11-21T13:49:03Z</time>
      </trkpt>
      <trkpt lat="49.40959" lon="1.1749">
        <ele>154</ele>
        <time>2017-11-21T13:49:03Z</time>
      </trkpt>
      <trkpt lat="49.40963" lon="1.17494">
        <ele>154</ele>
        <time>2017-11-21T13:49:19Z</time>
      </trkpt>
      <trkpt lat="49.40967" lon="1.17499">
        <ele>154</ele>
        <time>2017-11-21T13:49:19Z</time>
      </trkpt>
      <trkpt lat="49.40972" lon="1.17503">
        <ele>154</ele>
        <time>2017-11-21T13:49:19Z</time>
      </trkpt>
      <trkpt lat="49.40976" lon="1.17507">
        <ele>154</ele>
        <time>2017-11-21T13:49:19Z</time>
      </trkpt>
      <trkpt lat="49.4098" lon="1.17512">
        <ele>154</ele>
        <time>2017-11-21T13:49:35Z</time>
      </trkpt>
      <trkpt lat="49.40984" lon="1.17516">
        <ele>154</ele>
        <time>2017-11-21T13:49:35Z</time>
      </trkpt>
      <trkpt lat="49.40988" lon="1.1752">
        <ele>154</ele>
        <time>2017-11-21T13:49:35Z</time>
      </trkpt>
      <trkpt lat="49.40992" lon="1.17525">
        <ele>154</ele>
        <time>2017-11-21T13:49:35Z</time>
      </trkpt>
      <trkpt lat="49.40996" lon="1.1753">
        <ele>154</ele>
        <time>2017-11-21T13:49:51Z</time>
      </trkpt>
      <trkpt lat="49.41" lon="1.17534">
        <ele>154</ele>
        <time>2017-11-21T13:49:51Z</time>
      </trkpt>
      <trkpt lat="49.41004" lon="1.17539">
        <ele>154</ele>
        <time>2017-11-21T13:49:51Z</time>
      </trkpt>
      <trkpt lat="49.41008" lon="1.17543">
        <ele>153</ele>
        <time>2017-11-21T13:49:51Z</time>
      </trkpt>
      <trkpt lat="49.41012" lon="1.17548">
        <ele>153</ele>
        <time>2017-11-21T13:50:07Z</time>
      </trkpt>
      <trkpt lat="49.41016" lon="1.17554">
        <ele>153</ele>
        <time>2017-11-21T13:50:07Z</time>
      </trkpt>
      <trkpt lat="49.4102" lon="1.17559">
        <ele>153</ele>
        <time>2017-11-21T13:50:07Z</time>
      </trkpt>
      <trkpt lat="49.41024" lon="1.17564">
        <ele>153</ele>
        <time>2017-11-21T13:50:07Z</time>
      </trkpt>
      <trkpt lat="49.41028" lon="1.17568">
        <ele>153</ele>
        <time>2017-11-21T13:50:23Z</time>
      </trkpt>
      <trkpt lat="49.41031" lon="1.17574">
        <ele>153</ele>
        <time>2017-11-21T13:50:23Z</time>
      </trkpt>
      <trkpt lat="49.41035" lon="1.17579">
        <ele>153</ele>
        <time>2017-11-21T13:50:23Z</time>
      </trkpt>
      <trkpt lat="49.41038" lon="1.17584">
        <ele>153</ele>
        <time>2017-11-21T13:50:23Z</time>
      </trkpt>
      <trkpt lat="49.41042" lon="1.17589">
        <ele>149</ele>
        <time>2017-11-21T13:50:39Z</time>
      </trkpt>
      <trkpt lat="49.41045" lon="1.17595">
        <ele>149</ele>
        <time>2017-11-21T13:50:39Z</time>
      </trkpt>
      <trkpt lat="49.41049" lon="1.176">
        <ele>149</ele>
        <time>2017-11-21T13:50:39Z</time>
      </trkpt>
      <trkpt lat="49.41053" lon="1.17606">
        <ele>149</ele>
        <time>2017-11-21T13:50:39Z</time>
      </trkpt>
      <trkpt lat="49.41056" lon="1.17611">
        <ele>149</ele>
        <time>2017-11-21T13:50:55Z</time>
      </trkpt>
      <trkpt lat="49.41059" lon="1.17617">
        <ele>149</ele>
        <time>2017-11-21T13:50:55Z</time>
      </trkpt>
      <trkpt lat="49.41063" lon="1.17623">
        <ele>149</ele>
        <time>2017-11-21T13:50:55Z</time>
      </trkpt>
      <trkpt lat="49.41066" lon="1.17629">
        <ele>148</ele>
        <time>2017-11-21T13:50:55Z</time>
      </trkpt>
      <trkpt lat="49.4107" lon="1.17635">
        <ele>148</ele>
        <time>2017-11-21T13:51:11Z</time>
      </trkpt>
      <trkpt lat="49.41073" lon="1.17641">
        <ele>148</ele>
        <time>2017-11-21T13:51:11Z</time>
      </trkpt>
      <trkpt lat="49.41076" lon="1.17647">
        <ele>148</ele>
        <time>2017-11-21T13:51:11Z</time>
      </trkpt>
      <trkpt lat="49.41079" lon="1.17653">
        <ele>148</ele>
        <time>2017-11-21T13:51:11Z</time>
      </trkpt>
      <trkpt lat="49.41082" lon="1.17659">
        <ele>148</ele>
        <time>2017-11-21T13:51:27Z</time>
      </trkpt>
      <trkpt lat="49.41086" lon="1.17665">
        <ele>148</ele>
        <time>2017-11-21T13:51:27Z</time>
      </trkpt>
      <trkpt lat="49.41089" lon="1.17671">
        <ele>148</ele>
        <time>2017-11-21T13:51:27Z</time>
      </trkpt>
      <trkpt lat="49.41092" lon="1.17677">
        <ele>148</ele>
        <time>2017-11-21T13:51:27Z</time>
      </trkpt>
      <trkpt lat="49.41095" lon="1.17683">
        <ele>148</ele>
        <time>2017-11-21T13:51:43Z</time>
      </trkpt>
      <trkpt lat="49.41097" lon="1.17689">
        <ele>148</ele>
        <time>2017-11-21T13:51:43Z</time>
      </trkpt>
      <trkpt lat="49.411" lon="1.17696">
        <ele>148</ele>
        <time>2017-11-21T13:51:43Z</time>
      </trkpt>
      <trkpt lat="49.41103" lon="1.17703">
        <ele>148</ele>
        <time>2017-11-21T13:51:43Z</time>
      </trkpt>
      <trkpt lat="49.41106" lon="1.17709">
        <ele>148</ele>
        <time>2017-11-21T13:51:59Z</time>
      </trkpt>
      <trkpt lat="49.41108" lon="1.17716">
        <ele>148</ele>
        <time>2017-11-21T13:51:59Z</time>
      </trkpt>
      <trkpt lat="49.41111" lon="1.17723">
        <ele>148</ele>
        <time>2017-11-21T13:51:59Z</time>
      </trkpt>
      <trkpt lat="49.41114" lon="1.1773">
        <ele>148</ele>
        <time>2017-11-21T13:51:59Z</time>
      </trkpt>
      <trkpt lat="49.41116" lon="1.17736">
        <ele>148</ele>
        <time>2017-11-21T13:52:15Z</time>
      </trkpt>
      <trkpt lat="49.41119" lon="1.17743">
        <ele>148</ele>
        <time>2017-11-21T13:52:15Z</time>
      </trkpt>
      <trkpt lat="49.41122" lon="1.1775">
        <ele>148</ele>
        <time>2017-11-21T13:52:15Z</time>
      </trkpt>
      <trkpt lat="49.41124" lon="1.17757">
        <ele>148</ele>
        <time>2017-11-21T13:52:15Z</time>
      </trkpt>
      <trkpt lat="49.41127" lon="1.17763">
        <ele>145</ele>
        <time>2017-11-21T13:52:31Z</time>
      </trkpt>
      <trkpt lat="49.4113" lon="1.1777">
        <ele>145</ele>
        <time>2017-11-21T13:52:31Z</time>
      </trkpt>
      <trkpt lat="49.41133" lon="1.17776">
        <ele>145</ele>
        <time>2017-11-21T13:52:31Z</time>
      </trkpt>
      <trkpt lat="49.41136" lon="1.17781">
        <ele>145</ele>
        <time>2017-11-21T13:52:31Z</time>
      </trkpt>
      <trkpt lat="49.4114" lon="1.17787">
        <ele>145</ele>
        <time>2017-11-21T13:52:47Z</time>
      </trkpt>
      <trkpt lat="49.41144" lon="1.17793">
        <ele>144</ele>
        <time>2017-11-21T13:52:47Z</time>
      </trkpt>
      <trkpt lat="49.41147" lon="1.17798">
        <ele>144</ele>
        <time>2017-11-21T13:52:47Z</time>
      </trkpt>
      <trkpt lat="49.41151" lon="1.17803">
        <ele>144</ele>
        <time>2017-11-21T13:52:47Z</time>
      </trkpt>
      <trkpt lat="49.41155" lon="1.17808">
        <ele>144</ele>
        <time>2017-11-21T13:53:03Z</time>
      </trkpt>
      <trkpt lat="49.41159" lon="1.17813">
        <ele>144</ele>
        <time>2017-11-21T13:53:03Z</time>
      </trkpt>
      <trkpt lat="49.41162" lon="1.17818">
        <ele>144</ele>
        <time>2017-11-21T13:53:03Z</time>
      </trkpt>
      <trkpt lat="49.41166" lon="1.17823">
        <ele>144</ele>
        <time>2017-11-21T13:53:03Z</time>
      </trkpt>
      <trkpt lat="49.4117" lon="1.17829">
        <ele>144</ele>
        <time>2017-11-21T13:53:19Z</time>
      </trkpt>
      <trkpt lat="49.41174" lon="1.17833">
        <ele>144</ele>
        <time>2017-11-21T13:53:19Z</time>
      </trkpt>
      <trkpt lat="49.41178" lon="1.17838">
        <ele>144</ele>
        <time>2017-11-21T13:53:19Z</time>
      </trkpt>
      <trkpt lat="49.41182" lon="1.17843">
        <ele>144</ele>
        <time>2017-11-21T13:53:19Z</time>
      </trkpt>
      <trkpt lat="49.41186" lon="1.17848">
        <ele>144</ele>
        <time>2017-11-21T13:53:35Z</time>
      </trkpt>
      <trkpt lat="49.4119" lon="1.17852">
        <ele>144</ele>
        <time>2017-11-21T13:53:35Z</time>
      </trkpt>
      <trkpt lat="49.41195" lon="1.17857">
        <ele>144</ele>
        <time>2017-11-21T13:53:35Z</time>
      </trkpt>
      <trkpt lat="49.41199" lon="1.17862">
        <ele>144</ele>
        <time>2017-11-21T13:53:35Z</time>
      </trkpt>
      <trkpt lat="49.41203" lon="1.17866">
        <ele>144</ele>
        <time>2017-11-21T13:53:51Z</time>
      </trkpt>
      <trkpt lat="49.41208" lon="1.17871">
        <ele>144</ele>
        <time>2017-11-21T13:53:51Z</time>
      </trkpt>
      <trkpt lat="49.41212" lon="1.17875">
        <ele>142</ele>
        <time>2017-11-21T13:53:51Z</time>
      </trkpt>
      <trkpt lat="49.41216" lon="1.1788">
        <ele>142</ele>
        <time>2017-11-21T13:53:51Z</time>
      </trkpt>
      <trkpt lat="49.4122" lon="1.17885">
        <ele>142</ele>
        <time>2017-11-21T13:54:07Z</time>
      </trkpt>
      <trkpt lat="49.41224" lon="1.1789">
        <ele>142</ele>
        <time>2017-11-21T13:54:07Z</time>
      </trkpt>
      <trkpt lat="49.41228" lon="1.17894">
        <ele>142</ele>
        <time>2017-11-21T13:54:07Z</time>
      </trkpt>
      <trkpt lat="49.41232" lon="1.17899">
        <ele>142</ele>
        <time>2017-11-21T13:54:07Z</time>
      </trkpt>
      <trkpt lat="49.41236" lon="1.17904">
        <ele>142</ele>
        <time>2017-11-21T13:54:23Z</time>
      </trkpt>
      <trkpt lat="49.4124" lon="1.17908">
        <ele>142</ele>
        <time>2017-11-21T13:54:23Z</time>
      </trkpt>
      <trkpt lat="49.41244" lon="1.17913">
        <ele>142</ele>
        <time>2017-11-21T13:54:23Z</time>
      </trkpt>
      <trkpt lat="49.41248" lon="1.17917">
        <ele>142</ele>
        <time>2017-11-21T13:54:23Z</time>
      </trkpt>
      <trkpt lat="49.41252" lon="1.17922">
        <ele>142</ele>
        <time>2017-11-21T13:54:39Z</time>
      </trkpt>
      <trkpt lat="49.41257" lon="1.17927">
        <ele>142</ele>
        <time>2017-11-21T13:54:39Z</time>
      </trkpt>
      <trkpt lat="49.41261" lon="1.17931">
        <ele>142</ele>
        <time>2017-11-21T13:54:39Z</time>
      </trkpt>
      <trkpt lat="49.41265" lon="1.17935">
        <ele>142</ele>
        <time>2017-11-21T13:54:39Z</time>
      </trkpt>
      <trkpt lat="49.4127" lon="1.1794">
        <ele>142</ele>
        <time>2017-11-21T13:54:55Z</time>
      </trkpt>
      <trkpt lat="49.41274" lon="1.17944">
        <ele>142</ele>
        <time>2017-11-21T13:54:55Z</time>
      </trkpt>
      <trkpt lat="49.41278" lon="1.17949">
        <ele>142</ele>
        <time>2017-11-21T13:54:55Z</time>
      </trkpt>
      <trkpt lat="49.41282" lon="1.17954">
        <ele>142</ele>
        <time>2017-11-21T13:54:55Z</time>
      </trkpt>
      <trkpt lat="49.41286" lon="1.17959">
        <ele>141</ele>
        <time>2017-11-21T13:55:11Z</time>
      </trkpt>
      <trkpt lat="49.4129" lon="1.17963">
        <ele>141</ele>
        <time>2017-11-21T13:55:11Z</time>
      </trkpt>
      <trkpt lat="49.41294" lon="1.17967">
        <ele>139</ele>
        <time>2017-11-21T13:55:11Z</time>
      </trkpt>
      <trkpt lat="49.41298" lon="1.17971">
        <ele>139</ele>
        <time>2017-11-21T13:55:11Z</time>
      </trkpt>
      <trkpt lat="49.41302" lon="1.17975">
        <ele>139</ele>
        <time>2017-11-21T13:55:27Z</time>
      </trkpt>
      <trkpt lat="49.41306" lon="1.17979">
        <ele>139</ele>
        <time>2017-11-21T13:55:27Z</time>
      </trkpt>
      <trkpt lat="49.4131" lon="1.17984">
        <ele>139</ele>
        <time>2017-11-21T13:55:27Z</time>
      </trkpt>
      <trkpt lat="49.41314" lon="1.17988">
        <ele>139</ele>
        <time>2017-11-21T13:55:27Z</time>
      </trkpt>
      <trkpt lat="49.41318" lon="1.17992">
        <ele>139</ele>
        <time>2017-11-21T13:55:43Z</time>
      </trkpt>
      <trkpt lat="49.41322" lon="1.17998">
        <ele>139</ele>
        <time>2017-11-21T13:55:43Z</time>
      </trkpt>
      <trkpt lat="49.41326" lon="1.18003">
        <ele>139</ele>
        <time>2017-11-21T13:55:43Z</time>
      </trkpt>
      <trkpt lat="49.4133" lon="1.18008">
        <ele>139</ele>
        <time>2017-11-21T13:55:43Z</time>
      </trkpt>
      <trkpt lat="49.41334" lon="1.18013">
        <ele>139</ele>
        <time>2017-11-21T13:55:59Z</time>
      </trkpt>
      <trkpt lat="49.41337" lon="1.18018">
        <ele>139</ele>
        <time>2017-11-21T13:55:59Z</time>
      </trkpt>
      <trkpt lat="49.41341" lon="1.18022">
        <ele>139</ele>
        <time>2017-11-21T13:55:59Z</time>
      </trkpt>
      <trkpt lat="49.41345" lon="1.18027">
        <ele>139</ele>
        <time>2017-11-21T13:55:59Z</time>
      </trkpt>
      <trkpt lat="49.41348" lon="1.18032">
        <ele>139</ele>
        <time>2017-11-21T13:56:15Z</time>
      </trkpt>
      <trkpt lat="49.41352" lon="1.18037">
        <ele>139</ele>
        <time>2017-11-21T13:56:15Z</time>
      </trkpt>
      <trkpt lat="49.41356" lon="1.18042">
        <ele>139</ele>
        <time>2017-11-21T13:56:15Z</time>
      </trkpt>
      <trkpt lat="49.4136" lon="1.18047">
        <ele>139</ele>
        <time>2017-11-21T13:56:15Z</time>
      </trkpt>
      <trkpt lat="49.41363" lon="1.18052">
        <ele>139</ele>
        <time>2017-11-21T13:56:31Z</time>
      </trkpt>
      <trkpt lat="49.41367" lon="1.18058">
        <ele>139</ele>
        <time>2017-11-21T13:56:31Z</time>
      </trkpt>
      <trkpt lat="49.4137" lon="1.18062">
        <ele>139</ele>
        <time>2017-11-21T13:56:31Z</time>
      </trkpt>
      <trkpt lat="49.41374" lon="1.18066">
        <ele>139</ele>
        <time>2017-11-21T13:56:31Z</time>
      </trkpt>
      <trkpt lat="49.41379" lon="1.18068">
        <ele>140</ele>
        <time>2017-11-21T13:56:47Z</time>
      </trkpt>
      <trkpt lat="49.41383" lon="1.18068">
        <ele>140</ele>
        <time>2017-11-21T13:56:47Z</time>
      </trkpt>
      <trkpt lat="49.41388" lon="1.18066">
        <ele>140</ele>
        <time>2017-11-21T13:56:47Z</time>
      </trkpt>
      <trkpt lat="49.4139" lon="1.18068">
        <ele>140</ele>
        <time>2017-11-21T13:56:47Z</time>
      </trkpt>
      <trkpt lat="49.41391" lon="1.18068">
        <ele>140</ele>
        <time>2017-11-21T13:57:03Z</time>
      </trkpt>
      <trkpt lat="49.41393" lon="1.18071">
        <ele>140</ele>
        <time>2017-11-21T13:57:03Z</time>
      </trkpt>
      <trkpt lat="49.41395" lon="1.18074">
        <ele>140</ele>
        <time>2017-11-21T13:57:03Z</time>
      </trkpt>
      <trkpt lat="49.41399" lon="1.18077">
        <ele>140</ele>
        <time>2017-11-21T13:57:03Z</time>
      </trkpt>
      <trkpt lat="49.41403" lon="1.18079">
        <ele>140</ele>
        <time>2017-11-21T13:57:19Z</time>
      </trkpt>
      <trkpt lat="49.41406" lon="1.18082">
        <ele>140</ele>
        <time>2017-11-21T13:57:19Z</time>
      </trkpt>
      <trkpt lat="49.41409" lon="1.18087">
        <ele>140</ele>
        <time>2017-11-21T13:57:19Z</time>
      </trkpt>
      <trkpt lat="49.41412" lon="1.1809">
        <ele>140</ele>
        <time>2017-11-21T13:57:19Z</time>
      </trkpt>
      <trkpt lat="49.41417" lon="1.18092">
        <ele>140</ele>
        <time>2017-11-21T13:57:35Z</time>
      </trkpt>
      <trkpt lat="49.41421" lon="1.18095">
        <ele>140</ele>
        <time>2017-11-21T13:57:35Z</time>
      </trkpt>
      <trkpt lat="49.41423" lon="1.18098">
        <ele>140</ele>
        <time>2017-11-21T13:57:35Z</time>
      </trkpt>
      <trkpt lat="49.41428" lon="1.18101">
        <ele>140</ele>
        <time>2017-11-21T13:57:35Z</time>
      </trkpt>
      <trkpt lat="49.4143" lon="1.18105">
        <ele>140</ele>
        <time>2017-11-21T13:57:51Z</time>
      </trkpt>
      <trkpt lat="49.41435" lon="1.18107">
        <ele>140</ele>
        <time>2017-11-21T13:57:51Z</time>
      </trkpt>
      <trkpt lat="49.41439" lon="1.18111">
        <ele>140</ele>
        <time>2017-11-21T13:57:51Z</time>
      </trkpt>
      <trkpt lat="49.41443" lon="1.18114">
        <ele>140</ele>
        <time>2017-11-21T13:57:51Z</time>
      </trkpt>
      <trkpt lat="49.41447" lon="1.18118">
        <ele>140</ele>
        <time>2017-11-21T13:58:07Z</time>
      </trkpt>
      <trkpt lat="49.41451" lon="1.18122">
        <ele>140</ele>
        <time>2017-11-21T13:58:07Z</time>
      </trkpt>
      <trkpt lat="49.41455" lon="1.18123">
        <ele>140</ele>
        <time>2017-11-21T13:58:07Z</time>
      </trkpt>
      <trkpt lat="49.4146" lon="1.18128">
        <ele>133</ele>
        <time>2017-11-21T13:58:07Z</time>
      </trkpt>
      <trkpt lat="49.41463" lon="1.18131">
        <ele>133</ele>
        <time>2017-11-21T13:58:23Z</time>
      </trkpt>
      <trkpt lat="49.41466" lon="1.18131">
        <ele>133</ele>
        <time>2017-11-21T13:58:23Z</time>
      </trkpt>
      <trkpt lat="49.41469" lon="1.18131">
        <ele>133</ele>
        <time>2017-11-21T13:58:23Z</time>
      </trkpt>
      <trkpt lat="49.41473" lon="1.18133">
        <ele>133</ele>
        <time>2017-11-21T13:58:23Z</time>
      </trkpt>
      <trkpt lat="49.41476" lon="1.18137">
        <ele>133</ele>
        <time>2017-11-21T13:58:39Z</time>
      </trkpt>
      <trkpt lat="49.41479" lon="1.1814">
        <ele>133</ele>
        <time>2017-11-21T13:58:39Z</time>
      </trkpt>
      <trkpt lat="49.41482" lon="1.18143">
        <ele>133</ele>
        <time>2017-11-21T13:58:39Z</time>
      </trkpt>
      <trkpt lat="49.41487" lon="1.18146">
        <ele>133</ele>
        <time>2017-11-21T13:58:39Z</time>
      </trkpt>
      <trkpt lat="49.4149" lon="1.18149">
        <ele>133</ele>
        <time>2017-11-21T13:58:55Z</time>
      </trkpt>
      <trkpt lat="49.41491" lon="1.18153">
        <ele>133</ele>
        <time>2017-11-21T13:58:55Z</time>
      </trkpt>
      <trkpt lat="49.41495" lon="1.18155">
        <ele>133</ele>
        <time>2017-11-21T13:58:55Z</time>
      </trkpt>
      <trkpt lat="49.415" lon="1.18158">
        <ele>133</ele>
        <time>2017-11-21T13:58:55Z</time>
      </trkpt>
      <trkpt lat="49.41504" lon="1.18162">
        <ele>133</ele>
        <time>2017-11-21T13:59:11Z</time>
      </trkpt>
      <trkpt lat="49.41508" lon="1.18165">
        <ele>133</ele>
        <time>2017-11-21T13:59:11Z</time>
      </trkpt>
      <trkpt lat="49.41511" lon="1.18166">
        <ele>133</ele>
        <time>2017-11-21T13:59:11Z</time>
      </trkpt>
      <trkpt lat="49.41516" lon="1.18167">
        <ele>133</ele>
        <time>2017-11-21T13:59:11Z</time>
      </trkpt>
      <trkpt lat="49.4152" lon="1.18169">
        <ele>133</ele>
        <time>2017-11-21T13:59:27Z</time>
      </trkpt>
      <trkpt lat="49.41523" lon="1.18171">
        <ele>133</ele>
        <time>2017-11-21T13:59:27Z</time>
      </trkpt>
      <trkpt lat="49.41526" lon="1.18174">
        <ele>133</ele>
        <time>2017-11-21T13:59:27Z</time>
      </trkpt>
      <trkpt lat="49.41529" lon="1.18176">
        <ele>133</ele>
        <time>2017-11-21T13:59:27Z</time>
      </trkpt>
      <trkpt lat="49.41533" lon="1.18181">
        <ele>133</ele>
        <time>2017-11-21T13:59:43Z</time>
      </trkpt>
      <trkpt lat="49.41535" lon="1.18184">
        <ele>133</ele>
        <time>2017-11-21T13:59:43Z</time>
      </trkpt>
      <trkpt lat="49.41539" lon="1.18185">
        <ele>133</ele>
        <time>2017-11-21T13:59:43Z</time>
      </trkpt>
      <trkpt lat="49.41543" lon="1.18188">
        <ele>128</ele>
        <time>2017-11-21T13:59:43Z</time>
      </trkpt>
      <trkpt lat="49.41545" lon="1.18192">
        <ele>128</ele>
        <time>2017-11-21T13:59:59Z</time>
      </trkpt>
      <trkpt lat="49.41547" lon="1.18195">
        <ele>128</ele>
        <time>2017-11-21T13:59:59Z</time>
      </trkpt>
      <trkpt lat="49.4155" lon="1.18198">
        <ele>128</ele>
        <time>2017-11-21T13:59:59Z</time>
      </trkpt>
      <trkpt lat="49.41554" lon="1.182">
        <ele>128</ele>
        <time>2017-11-21T13:59:59Z</time>
      </trkpt>
      <trkpt lat="49.41557" lon="1.18203">
        <ele>128</ele>
        <time>2017-11-21T14:00:15Z</time>
      </trkpt>
      <trkpt lat="49.41559" lon="1.18206">
        <ele>128</ele>
        <time>2017-11-21T14:00:15Z</time>
      </trkpt>
      <trkpt lat="49.41562" lon="1.18209">
        <ele>111</ele>
        <time>2017-11-21T14:00:15Z</time>
      </trkpt>
      <trkpt lat="49.41567" lon="1.18211">
        <ele>111</ele>
        <time>2017-11-21T14:00:15Z</time>
      </trkpt>
      <trkpt lat="49.41572" lon="1.18213">
        <ele>111</ele>
        <time>2017-11-21T14:00:31Z</time>
      </trkpt>
      <trkpt lat="49.41575" lon="1.18216">
        <ele>111</ele>
        <time>2017-11-21T14:00:31Z</time>
      </trkpt>
      <trkpt lat="49.41577" lon="1.1822">
        <ele>111</ele>
        <time>2017-11-21T14:00:31Z</time>
      </trkpt>
      <trkpt lat="49.4158" lon="1.18224">
        <ele>111</ele>
        <time>2017-11-21T14:00:31Z</time>
      </trkpt>
      <trkpt lat="49.41584" lon="1.18228">
        <ele>111</ele>
        <time>2017-11-21T14:00:47Z</time>
      </trkpt>
      <trkpt lat="49.41588" lon="1.18231">
        <ele>111</ele>
        <time>2017-11-21T14:00:47Z</time>
      </trkpt>
      <trkpt lat="49.41592" lon="1.18235">
        <ele>111</ele>
        <time>2017-11-21T14:00:47Z</time>
      </trkpt>
      <trkpt lat="49.41593" lon="1.18236">
        <ele>111</ele>
        <time>2017-11-21T14:00:47Z</time>
      </trkpt>
      <trkpt lat="49.41595" lon="1.18238">
        <ele>111</ele>
        <time>2017-11-21T14:01:07Z</time>
      </trkpt>
      <trkpt lat="49.41598" lon="1.18241">
        <ele>111</ele>
        <time>2017-11-21T14:01:07Z</time>
      </trkpt>
      <trkpt lat="49.41601" lon="1.18243">
        <ele>111</ele>
        <time>2017-11-21T14:01:07Z</time>
      </trkpt>
      <trkpt lat="49.41603" lon="1.18245">
        <ele>111</ele>
        <time>2017-11-21T14:01:07Z</time>
      </trkpt>
      <trkpt lat="49.41604" lon="1.18247">
        <ele>111</ele>
        <time>2017-11-21T14:01:07Z</time>
      </trkpt>
      <trkpt lat="49.41606" lon="1.18249">
        <ele>111</ele>
        <time>2017-11-21T14:01:27Z</time>
      </trkpt>
      <trkpt lat="49.4161" lon="1.1825">
        <ele>111</ele>
        <time>2017-11-21T14:01:27Z</time>
      </trkpt>
      <trkpt lat="49.41613" lon="1.18251">
        <ele>111</ele>
        <time>2017-11-21T14:01:27Z</time>
      </trkpt>
      <trkpt lat="49.41614" lon="1.18252">
        <ele>111</ele>
        <time>2017-11-21T14:01:27Z</time>
      </trkpt>
      <trkpt lat="49.41617" lon="1.18251">
        <ele>111</ele>
        <time>2017-11-21T14:01:27Z</time>
      </trkpt>
      <trkpt lat="49.41618" lon="1.1825">
        <ele>111</ele>
        <time>2017-11-21T14:01:51Z</time>
      </trkpt>
      <trkpt lat="49.41619" lon="1.1825">
        <ele>111</ele>
        <time>2017-11-21T14:01:51Z</time>
      </trkpt>
      <trkpt lat="49.4162" lon="1.18251">
        <ele>111</ele>
        <time>2017-11-21T14:01:51Z</time>
      </trkpt>
      <trkpt lat="49.41623" lon="1.18251">
        <ele>111</ele>
        <time>2017-11-21T14:01:51Z</time>
      </trkpt>
      <trkpt lat="49.41627" lon="1.18252">
        <ele>97</ele>
        <time>2017-11-21T14:01:51Z</time>
      </trkpt>
      <trkpt lat="49.4163" lon="1.18253">
        <ele>97</ele>
        <time>2017-11-21T14:02:07Z</time>
      </trkpt>
      <trkpt lat="49.41632" lon="1.18253">
        <ele>97</ele>
        <time>2017-11-21T14:02:07Z</time>
      </trkpt>
      <trkpt lat="49.41636" lon="1.18255">
        <ele>97</ele>
        <time>2017-11-21T14:02:07Z</time>
      </trkpt>
      <trkpt lat="49.41639" lon="1.18255">
        <ele>97</ele>
        <time>2017-11-21T14:02:07Z</time>
      </trkpt>
      <trkpt lat="49.41644" lon="1.18257">
        <ele>97</ele>
        <time>2017-11-21T14:02:23Z</time>
      </trkpt>
      <trkpt lat="49.41649" lon="1.18258">
        <ele>97</ele>
        <time>2017-11-21T14:02:23Z</time>
      </trkpt>
      <trkpt lat="49.41654" lon="1.18259">
        <ele>97</ele>
        <time>2017-11-21T14:02:23Z</time>
      </trkpt>
      <trkpt lat="49.41657" lon="1.18259">
        <ele>97</ele>
        <time>2017-11-21T14:02:23Z</time>
      </trkpt>
      <trkpt lat="49.4166" lon="1.18259">
        <ele>97</ele>
        <time>2017-11-21T14:02:39Z</time>
      </trkpt>
      <trkpt lat="49.41664" lon="1.18259">
        <ele>97</ele>
        <time>2017-11-21T14:02:39Z</time>
      </trkpt>
      <trkpt lat="49.41668" lon="1.18259">
        <ele>97</ele>
        <time>2017-11-21T14:02:39Z</time>
      </trkpt>
      <trkpt lat="49.41671" lon="1.18258">
        <ele>97</ele>
        <time>2017-11-21T14:02:39Z</time>
      </trkpt>
      <trkpt lat="49.41675" lon="1.18259">
        <ele>97</ele>
        <time>2017-11-21T14:02:55Z</time>
      </trkpt>
      <trkpt lat="49.4168" lon="1.1826">
        <ele>97</ele>
        <time>2017-11-21T14:02:55Z</time>
      </trkpt>
      <trkpt lat="49.41685" lon="1.1826">
        <ele>97</ele>
        <time>2017-11-21T14:02:55Z</time>
      </trkpt>
      <trkpt lat="49.41689" lon="1.18258">
        <ele>97</ele>
        <time>2017-11-21T14:02:55Z</time>
      </trkpt>
      <trkpt lat="49.41692" lon="1.18257">
        <ele>97</ele>
        <time>2017-11-21T14:03:11Z</time>
      </trkpt>
      <trkpt lat="49.41697" lon="1.18257">
        <ele>97</ele>
        <time>2017-11-21T14:03:11Z</time>
      </trkpt>
      <trkpt lat="49.41701" lon="1.18258">
        <ele>97</ele>
        <time>2017-11-21T14:03:11Z</time>
      </trkpt>
      <trkpt lat="49.41705" lon="1.18259">
        <ele>97</ele>
        <time>2017-11-21T14:03:11Z</time>
      </trkpt>
      <trkpt lat="49.41707" lon="1.18259">
        <ele>97</ele>
        <time>2017-11-21T14:03:31Z</time>
      </trkpt>
      <trkpt lat="49.4171" lon="1.18259">
        <ele>78</ele>
        <time>2017-11-21T14:03:31Z</time>
      </trkpt>
      <trkpt lat="49.41713" lon="1.18258">
        <ele>78</ele>
        <time>2017-11-21T14:03:31Z</time>
      </trkpt>
      <trkpt lat="49.41716" lon="1.18258">
        <ele>78</ele>
        <time>2017-11-21T14:03:31Z</time>
      </trkpt>
      <trkpt lat="49.41721" lon="1.18259">
        <ele>78</ele>
        <time>2017-11-21T14:03:31Z</time>
      </trkpt>
      <trkpt lat="49.41723" lon="1.18258">
        <ele>78</ele>
        <time>2017-11-21T14:03:47Z</time>
      </trkpt>
      <trkpt lat="49.41727" lon="1.18259">
        <ele>78</ele>
        <time>2017-11-21T14:03:47Z</time>
      </trkpt>
      <trkpt lat="49.41732" lon="1.18259">
        <ele>78</ele>
        <time>2017-11-21T14:03:47Z</time>
      </trkpt>
      <trkpt lat="49.41773" lon="1.18243">
        <ele>78</ele>
        <time>2017-11-21T14:03:47Z</time>
      </trkpt>
      <trkpt lat="49.41739" lon="1.18259">
        <ele>78</ele>
        <time>2017-11-21T14:04:03Z</time>
      </trkpt>
      <trkpt lat="49.41744" lon="1.1826">
        <ele>78</ele>
        <time>2017-11-21T14:04:03Z</time>
      </trkpt>
      <trkpt lat="49.41749" lon="1.18259">
        <ele>78</ele>
        <time>2017-11-21T14:04:03Z</time>
      </trkpt>
      <trkpt lat="49.41753" lon="1.18259">
        <ele>78</ele>
        <time>2017-11-21T14:04:03Z</time>
      </trkpt>
      <trkpt lat="49.41757" lon="1.18258">
        <ele>78</ele>
        <time>2017-11-21T14:04:19Z</time>
      </trkpt>
      <trkpt lat="49.4176" lon="1.18259">
        <ele>78</ele>
        <time>2017-11-21T14:04:19Z</time>
      </trkpt>
      <trkpt lat="49.41764" lon="1.18256">
        <ele>78</ele>
        <time>2017-11-21T14:04:19Z</time>
      </trkpt>
      <trkpt lat="49.41768" lon="1.18254">
        <ele>78</ele>
        <time>2017-11-21T14:04:19Z</time>
      </trkpt>
      <trkpt lat="49.41773" lon="1.18252">
        <ele>78</ele>
        <time>2017-11-21T14:04:35Z</time>
      </trkpt>
      <trkpt lat="49.41777" lon="1.18251">
        <ele>78</ele>
        <time>2017-11-21T14:04:35Z</time>
      </trkpt>
      <trkpt lat="49.41779" lon="1.1825">
        <ele>78</ele>
        <time>2017-11-21T14:04:35Z</time>
      </trkpt>
      <trkpt lat="49.41783" lon="1.18247">
        <ele>78</ele>
        <time>2017-11-21T14:04:35Z</time>
      </trkpt>
      <trkpt lat="49.41788" lon="1.18243">
        <ele>78</ele>
        <time>2017-11-21T14:04:51Z</time>
      </trkpt>
      <trkpt lat="49.41792" lon="1.18238">
        <ele>78</ele>
        <time>2017-11-21T14:04:51Z</time>
      </trkpt>
      <trkpt lat="49.41795" lon="1.18232">
        <ele>58</ele>
        <time>2017-11-21T14:04:51Z</time>
      </trkpt>
      <trkpt lat="49.41797" lon="1.18225">
        <ele>58</ele>
        <time>2017-11-21T14:04:51Z</time>
      </trkpt>
      <trkpt lat="49.41799" lon="1.1822">
        <ele>58</ele>
        <time>2017-11-21T14:05:07Z</time>
      </trkpt>
      <trkpt lat="49.41801" lon="1.18214">
        <ele>58</ele>
        <time>2017-11-21T14:05:07Z</time>
      </trkpt>
      <trkpt lat="49.41802" lon="1.18208">
        <ele>66</ele>
        <time>2017-11-21T14:05:07Z</time>
      </trkpt>
      <trkpt lat="49.41805" lon="1.18201">
        <ele>66</ele>
        <time>2017-11-21T14:05:07Z</time>
      </trkpt>
      <trkpt lat="49.41808" lon="1.18195">
        <ele>66</ele>
        <time>2017-11-21T14:05:23Z</time>
      </trkpt>
      <trkpt lat="49.41811" lon="1.1819">
        <ele>66</ele>
        <time>2017-11-21T14:05:23Z</time>
      </trkpt>
      <trkpt lat="49.41813" lon="1.18183">
        <ele>66</ele>
        <time>2017-11-21T14:05:23Z</time>
      </trkpt>
      <trkpt lat="49.41815" lon="1.18177">
        <ele>66</ele>
        <time>2017-11-21T14:05:23Z</time>
      </trkpt>
      <trkpt lat="49.41818" lon="1.18171">
        <ele>66</ele>
        <time>2017-11-21T14:05:39Z</time>
      </trkpt>
      <trkpt lat="49.4182" lon="1.18165">
        <ele>66</ele>
        <time>2017-11-21T14:05:39Z</time>
      </trkpt>
      <trkpt lat="49.41823" lon="1.18159">
        <ele>66</ele>
        <time>2017-11-21T14:05:39Z</time>
      </trkpt>
      <trkpt lat="49.41824" lon="1.18153">
        <ele>66</ele>
        <time>2017-11-21T14:05:39Z</time>
      </trkpt>
      <trkpt lat="49.41826" lon="1.18147">
        <ele>66</ele>
        <time>2017-11-21T14:05:55Z</time>
      </trkpt>
      <trkpt lat="49.41829" lon="1.18142">
        <ele>66</ele>
        <time>2017-11-21T14:05:55Z</time>
      </trkpt>
      <trkpt lat="49.41833" lon="1.18139">
        <ele>66</ele>
        <time>2017-11-21T14:05:55Z</time>
      </trkpt>
      <trkpt lat="49.41835" lon="1.18134">
        <ele>66</ele>
        <time>2017-11-21T14:05:55Z</time>
      </trkpt>
      <trkpt lat="49.41839" lon="1.18129">
        <ele>66</ele>
        <time>2017-11-21T14:06:11Z</time>
      </trkpt>
      <trkpt lat="49.41842" lon="1.18124">
        <ele>72</ele>
        <time>2017-11-21T14:06:11Z</time>
      </trkpt>
      <trkpt lat="49.41844" lon="1.18118">
        <ele>72</ele>
        <time>2017-11-21T14:06:11Z</time>
      </trkpt>
      <trkpt lat="49.41847" lon="1.18113">
        <ele>72</ele>
        <time>2017-11-21T14:06:11Z</time>
      </trkpt>
      <trkpt lat="49.41847" lon="1.1811">
        <ele>72</ele>
        <time>2017-11-21T14:06:27Z</time>
      </trkpt>
      <trkpt lat="49.41849" lon="1.18104">
        <ele>72</ele>
        <time>2017-11-21T14:06:27Z</time>
      </trkpt>
      <trkpt lat="49.41851" lon="1.18099">
        <ele>72</ele>
        <time>2017-11-21T14:06:27Z</time>
      </trkpt>
      <trkpt lat="49.41853" lon="1.18093">
        <ele>72</ele>
        <time>2017-11-21T14:06:27Z</time>
      </trkpt>
      <trkpt lat="49.41856" lon="1.18087">
        <ele>72</ele>
        <time>2017-11-21T14:06:43Z</time>
      </trkpt>
      <trkpt lat="49.41861" lon="1.18082">
        <ele>72</ele>
        <time>2017-11-21T14:06:43Z</time>
      </trkpt>
      <trkpt lat="49.41864" lon="1.18076">
        <ele>72</ele>
        <time>2017-11-21T14:06:43Z</time>
      </trkpt>
      <trkpt lat="49.41868" lon="1.18071">
        <ele>72</ele>
        <time>2017-11-21T14:06:43Z</time>
      </trkpt>
      <trkpt lat="49.41871" lon="1.18065">
        <ele>72</ele>
        <time>2017-11-21T14:06:59Z</time>
      </trkpt>
      <trkpt lat="49.41874" lon="1.18056">
        <ele>72</ele>
        <time>2017-11-21T14:06:59Z</time>
      </trkpt>
      <trkpt lat="49.41878" lon="1.18049">
        <ele>59</ele>
        <time>2017-11-21T14:06:59Z</time>
      </trkpt>
      <trkpt lat="49.41881" lon="1.18043">
        <ele>59</ele>
        <time>2017-11-21T14:06:59Z</time>
      </trkpt>
      <trkpt lat="49.41885" lon="1.18038">
        <ele>61</ele>
        <time>2017-11-21T14:07:15Z</time>
      </trkpt>
      <trkpt lat="49.41889" lon="1.18032">
        <ele>61</ele>
        <time>2017-11-21T14:07:15Z</time>
      </trkpt>
      <trkpt lat="49.41893" lon="1.18026">
        <ele>61</ele>
        <time>2017-11-21T14:07:15Z</time>
      </trkpt>
      <trkpt lat="49.41895" lon="1.18019">
        <ele>61</ele>
        <time>2017-11-21T14:07:15Z</time>
      </trkpt>
      <trkpt lat="49.41896" lon="1.18013">
        <ele>61</ele>
        <time>2017-11-21T14:07:31Z</time>
      </trkpt>
      <trkpt lat="49.41899" lon="1.18011">
        <ele>61</ele>
        <time>2017-11-21T14:07:31Z</time>
      </trkpt>
      <trkpt lat="49.419" lon="1.18005">
        <ele>61</ele>
        <time>2017-11-21T14:07:31Z</time>
      </trkpt>
      <trkpt lat="49.41901" lon="1.18001">
        <ele>61</ele>
        <time>2017-11-21T14:07:31Z</time>
      </trkpt>
      <trkpt lat="49.41902" lon="1.17995">
        <ele>61</ele>
        <time>2017-11-21T14:07:47Z</time>
      </trkpt>
      <trkpt lat="49.41904" lon="1.17987">
        <ele>61</ele>
        <time>2017-11-21T14:07:47Z</time>
      </trkpt>
      <trkpt lat="49.41904" lon="1.17979">
        <ele>61</ele>
        <time>2017-11-21T14:07:47Z</time>
      </trkpt>
      <trkpt lat="49.41906" lon="1.17972">
        <ele>61</ele>
        <time>2017-11-21T14:07:47Z</time>
      </trkpt>
      <trkpt lat="49.41909" lon="1.17966">
        <ele>61</ele>
        <time>2017-11-21T14:08:03Z</time>
      </trkpt>
      <trkpt lat="49.4191" lon="1.17959">
        <ele>61</ele>
        <time>2017-11-21T14:08:03Z</time>
      </trkpt>
      <trkpt lat="49.41912" lon="1.17952">
        <ele>64</ele>
        <time>2017-11-21T14:08:03Z</time>
      </trkpt>
      <trkpt lat="49.41913" lon="1.17944">
        <ele>64</ele>
        <time>2017-11-21T14:08:03Z</time>
      </trkpt>
      <trkpt lat="49.41916" lon="1.17937">
        <ele>64</ele>
        <time>2017-11-21T14:08:19Z</time>
      </trkpt>
      <trkpt lat="49.4192" lon="1.17931">
        <ele>64</ele>
        <time>2017-11-21T14:08:19Z</time>
      </trkpt>
      <trkpt lat="49.41924" lon="1.17925">
        <ele>64</ele>
        <time>2017-11-21T14:08:19Z</time>
      </trkpt>
      <trkpt lat="49.41926" lon="1.17917">
        <ele>64</ele>
        <time>2017-11-21T14:08:19Z</time>
      </trkpt>
      <trkpt lat="49.41925" lon="1.17909">
        <ele>64</ele>
        <time>2017-11-21T14:08:35Z</time>
      </trkpt>
      <trkpt lat="49.41928" lon="1.17903">
        <ele>64</ele>
        <time>2017-11-21T14:08:35Z</time>
      </trkpt>
      <trkpt lat="49.41931" lon="1.17897">
        <ele>64</ele>
        <time>2017-11-21T14:08:35Z</time>
      </trkpt>
      <trkpt lat="49.41933" lon="1.17891">
        <ele>64</ele>
        <time>2017-11-21T14:08:35Z</time>
      </trkpt>
      <trkpt lat="49.41935" lon="1.17886">
        <ele>64</ele>
        <time>2017-11-21T14:08:51Z</time>
      </trkpt>
      <trkpt lat="49.41937" lon="1.17881">
        <ele>64</ele>
        <time>2017-11-21T14:08:51Z</time>
      </trkpt>
      <trkpt lat="49.41939" lon="1.17874">
        <ele>71</ele>
        <time>2017-11-21T14:08:51Z</time>
      </trkpt>
      <trkpt lat="49.41941" lon="1.17867">
        <ele>71</ele>
        <time>2017-11-21T14:08:51Z</time>
      </trkpt>
      <trkpt lat="49.41941" lon="1.17858">
        <ele>71</ele>
        <time>2017-11-21T14:09:07Z</time>
      </trkpt>
      <trkpt lat="49.41942" lon="1.17851">
        <ele>71</ele>
        <time>2017-11-21T14:09:07Z</time>
      </trkpt>
      <trkpt lat="49.41944" lon="1.17844">
        <ele>71</ele>
        <time>2017-11-21T14:09:07Z</time>
      </trkpt>
      <trkpt lat="49.41944" lon="1.17836">
        <ele>71</ele>
        <time>2017-11-21T14:09:07Z</time>
      </trkpt>
      <trkpt lat="49.41948" lon="1.17829">
        <ele>71</ele>
        <time>2017-11-21T14:09:23Z</time>
      </trkpt>
      <trkpt lat="49.41952" lon="1.17821">
        <ele>71</ele>
        <time>2017-11-21T14:09:23Z</time>
      </trkpt>
      <trkpt lat="49.41952" lon="1.17813">
        <ele>71</ele>
        <time>2017-11-21T14:09:23Z</time>
      </trkpt>
      <trkpt lat="49.41953" lon="1.17806">
        <ele>71</ele>
        <time>2017-11-21T14:09:23Z</time>
      </trkpt>
      <trkpt lat="49.41954" lon="1.178">
        <ele>71</ele>
        <time>2017-11-21T14:09:39Z</time>
      </trkpt>
      <trkpt lat="49.41954" lon="1.17793">
        <ele>71</ele>
        <time>2017-11-21T14:09:39Z</time>
      </trkpt>
      <trkpt lat="49.41956" lon="1.17789">
        <ele>80</ele>
        <time>2017-11-21T14:09:39Z</time>
      </trkpt>
      <trkpt lat="49.41957" lon="1.17781">
        <ele>80</ele>
        <time>2017-11-21T14:09:39Z</time>
      </trkpt>
      <trkpt lat="49.41958" lon="1.17773">
        <ele>80</ele>
        <time>2017-11-21T14:09:55Z</time>
      </trkpt>
      <trkpt lat="49.41961" lon="1.17766">
        <ele>62</ele>
        <time>2017-11-21T14:09:55Z</time>
      </trkpt>
      <trkpt lat="49.41964" lon="1.1776">
        <ele>62</ele>
        <time>2017-11-21T14:09:55Z</time>
      </trkpt>
      <trkpt lat="49.41967" lon="1.17754">
        <ele>62</ele>
        <time>2017-11-21T14:09:55Z</time>
      </trkpt>
      <trkpt lat="49.41969" lon="1.17748">
        <ele>62</ele>
        <time>2017-11-21T14:10:11Z</time>
      </trkpt>
      <trkpt lat="49.41972" lon="1.17742">
        <ele>62</ele>
        <time>2017-11-21T14:10:11Z</time>
      </trkpt>
      <trkpt lat="49.41976" lon="1.17737">
        <ele>62</ele>
        <time>2017-11-21T14:10:11Z</time>
      </trkpt>
      <trkpt lat="49.41979" lon="1.17731">
        <ele>62</ele>
        <time>2017-11-21T14:10:11Z</time>
      </trkpt>
      <trkpt lat="49.41985" lon="1.17726">
        <ele>62</ele>
        <time>2017-11-21T14:10:27Z</time>
      </trkpt>
      <trkpt lat="49.41988" lon="1.17719">
        <ele>62</ele>
        <time>2017-11-21T14:10:27Z</time>
      </trkpt>
      <trkpt lat="49.4199" lon="1.17712">
        <ele>62</ele>
        <time>2017-11-21T14:10:27Z</time>
      </trkpt>
      <trkpt lat="49.41993" lon="1.17708">
        <ele>64</ele>
        <time>2017-11-21T14:10:27Z</time>
      </trkpt>
      <trkpt lat="49.41997" lon="1.17702">
        <ele>64</ele>
        <time>2017-11-21T14:10:43Z</time>
      </trkpt>
      <trkpt lat="49.42" lon="1.17697">
        <ele>64</ele>
        <time>2017-11-21T14:10:43Z</time>
      </trkpt>
      <trkpt lat="49.42001" lon="1.1769">
        <ele>64</ele>
        <time>2017-11-21T14:10:43Z</time>
      </trkpt>
      <trkpt lat="49.42004" lon="1.17682">
        <ele>64</ele>
        <time>2017-11-21T14:10:43Z</time>
      </trkpt>
      <trkpt lat="49.42007" lon="1.17675">
        <ele>64</ele>
        <time>2017-11-21T14:10:59Z</time>
      </trkpt>
      <trkpt lat="49.42008" lon="1.17667">
        <ele>64</ele>
        <time>2017-11-21T14:10:59Z</time>
      </trkpt>
      <trkpt lat="49.4201" lon="1.1766">
        <ele>64</ele>
        <time>2017-11-21T14:10:59Z</time>
      </trkpt>
      <trkpt lat="49.42012" lon="1.17653">
        <ele>64</ele>
        <time>2017-11-21T14:10:59Z</time>
      </trkpt>
      <trkpt lat="49.42013" lon="1.17645">
        <ele>64</ele>
        <time>2017-11-21T14:11:15Z</time>
      </trkpt>
      <trkpt lat="49.42017" lon="1.17638">
        <ele>64</ele>
        <time>2017-11-21T14:11:15Z</time>
      </trkpt>
      <trkpt lat="49.42021" lon="1.1763">
        <ele>64</ele>
        <time>2017-11-21T14:11:15Z</time>
      </trkpt>
      <trkpt lat="49.42024" lon="1.17622">
        <ele>68</ele>
        <time>2017-11-21T14:11:15Z</time>
      </trkpt>
      <trkpt lat="49.42027" lon="1.17615">
        <ele>68</ele>
        <time>2017-11-21T14:11:31Z</time>
      </trkpt>
      <trkpt lat="49.4203" lon="1.17608">
        <ele>68</ele>
        <time>2017-11-21T14:11:31Z</time>
      </trkpt>
      <trkpt lat="49.42033" lon="1.17602">
        <ele>68</ele>
        <time>2017-11-21T14:11:31Z</time>
      </trkpt>
      <trkpt lat="49.42036" lon="1.17596">
        <ele>68</ele>
        <time>2017-11-21T14:11:31Z</time>
      </trkpt>
      <trkpt lat="49.42038" lon="1.17591">
        <ele>68</ele>
        <time>2017-11-21T14:11:47Z</time>
      </trkpt>
      <trkpt lat="49.42041" lon="1.17585">
        <ele>68</ele>
        <time>2017-11-21T14:11:47Z</time>
      </trkpt>
      <trkpt lat="49.42043" lon="1.17578">
        <ele>55</ele>
        <time>2017-11-21T14:11:47Z</time>
      </trkpt>
      <trkpt lat="49.42046" lon="1.17572">
        <ele>55</ele>
        <time>2017-11-21T14:11:47Z</time>
      </trkpt>
      <trkpt lat="49.42049" lon="1.17566">
        <ele>55</ele>
        <time>2017-11-21T14:12:03Z</time>
      </trkpt>
      <trkpt lat="49.42052" lon="1.17562">
        <ele>55</ele>
        <time>2017-11-21T14:12:03Z</time>
      </trkpt>
      <trkpt lat="49.42056" lon="1.17562">
        <ele>55</ele>
        <time>2017-11-21T14:12:03Z</time>
      </trkpt>
      <trkpt lat="49.42061" lon="1.17564">
        <ele>55</ele>
        <time>2017-11-21T14:12:03Z</time>
      </trkpt>
      <trkpt lat="49.42066" lon="1.17565">
        <ele>55</ele>
        <time>2017-11-21T14:17:03Z</time>
      </trkpt>
      <trkpt lat="49.42066" lon="1.17565">
        <ele>55</ele>
        <time>2017-11-21T14:17:03Z</time>
      </trkpt>
      <trkpt lat="49.4207" lon="1.17567">
        <ele>55</ele>
        <time>2017-11-21T14:17:03Z</time>
      </trkpt>
      <trkpt lat="49.42072" lon="1.17571">
        <ele>55</ele>
        <time>2017-11-21T14:17:03Z</time>
      </trkpt>
      <trkpt lat="49.42075" lon="1.17575">
        <ele>55</ele>
        <time>2017-11-21T14:17:03Z</time>
      </trkpt>
      <trkpt lat="49.42078" lon="1.17578">
        <ele>55</ele>
        <time>2017-11-21T14:17:19Z</time>
      </trkpt>
      <trkpt lat="49.42082" lon="1.17583">
        <ele>55</ele>
        <time>2017-11-21T14:17:19Z</time>
      </trkpt>
      <trkpt lat="49.42087" lon="1.17586">
        <ele>55</ele>
        <time>2017-11-21T14:17:19Z</time>
      </trkpt>
      <trkpt lat="49.42091" lon="1.17591">
        <ele>55</ele>
        <time>2017-11-21T14:17:19Z</time>
      </trkpt>
      <trkpt lat="49.42094" lon="1.17595">
        <ele>55</ele>
        <time>2017-11-21T14:17:35Z</time>
      </trkpt>
      <trkpt lat="49.42099" lon="1.17598">
        <ele>55</ele>
        <time>2017-11-21T14:17:35Z</time>
      </trkpt>
      <trkpt lat="49.42103" lon="1.17601">
        <ele>55</ele>
        <time>2017-11-21T14:17:35Z</time>
      </trkpt>
      <trkpt lat="49.42107" lon="1.17604">
        <ele>55</ele>
        <time>2017-11-21T14:17:35Z</time>
      </trkpt>
      <trkpt lat="49.42112" lon="1.17606">
        <ele>55</ele>
        <time>2017-11-21T14:17:51Z</time>
      </trkpt>
      <trkpt lat="49.42116" lon="1.17609">
        <ele>55</ele>
        <time>2017-11-21T14:17:51Z</time>
      </trkpt>
      <trkpt lat="49.42121" lon="1.17612">
        <ele>55</ele>
        <time>2017-11-21T14:17:51Z</time>
      </trkpt>
      <trkpt lat="49.42125" lon="1.17616">
        <ele>55</ele>
        <time>2017-11-21T14:17:51Z</time>
      </trkpt>
      <trkpt lat="49.42129" lon="1.1762">
        <ele>53</ele>
        <time>2017-11-21T14:18:07Z</time>
      </trkpt>
      <trkpt lat="49.42133" lon="1.17624">
        <ele>53</ele>
        <time>2017-11-21T14:18:07Z</time>
      </trkpt>
      <trkpt lat="49.42136" lon="1.17629">
        <ele>46</ele>
        <time>2017-11-21T14:18:07Z</time>
      </trkpt>
      <trkpt lat="49.42139" lon="1.17634">
        <ele>46</ele>
        <time>2017-11-21T14:18:07Z</time>
      </trkpt>
      <trkpt lat="49.42142" lon="1.17639">
        <ele>46</ele>
        <time>2017-11-21T14:18:23Z</time>
      </trkpt>
      <trkpt lat="49.42145" lon="1.17645">
        <ele>46</ele>
        <time>2017-11-21T14:18:23Z</time>
      </trkpt>
      <trkpt lat="49.42149" lon="1.1765">
        <ele>46</ele>
        <time>2017-11-21T14:18:23Z</time>
      </trkpt>
      <trkpt lat="49.42151" lon="1.17657">
        <ele>46</ele>
        <time>2017-11-21T14:18:23Z</time>
      </trkpt>
      <trkpt lat="49.42153" lon="1.17663">
        <ele>46</ele>
        <time>2017-11-21T14:18:39Z</time>
      </trkpt>
      <trkpt lat="49.42157" lon="1.17668">
        <ele>46</ele>
        <time>2017-11-21T14:18:39Z</time>
      </trkpt>
      <trkpt lat="49.42158" lon="1.17675">
        <ele>46</ele>
        <time>2017-11-21T14:18:39Z</time>
      </trkpt>
      <trkpt lat="49.42159" lon="1.17682">
        <ele>46</ele>
        <time>2017-11-21T14:18:39Z</time>
      </trkpt>
      <trkpt lat="49.42161" lon="1.17689">
        <ele>46</ele>
        <time>2017-11-21T14:18:55Z</time>
      </trkpt>
      <trkpt lat="49.42163" lon="1.17695">
        <ele>46</ele>
        <time>2017-11-21T14:18:55Z</time>
      </trkpt>
      <trkpt lat="49.42166" lon="1.17702">
        <ele>46</ele>
        <time>2017-11-21T14:18:55Z</time>
      </trkpt>
      <trkpt lat="49.42168" lon="1.17709">
        <ele>44</ele>
        <time>2017-11-21T14:18:55Z</time>
      </trkpt>
      <trkpt lat="49.42171" lon="1.17716">
        <ele>44</ele>
        <time>2017-11-21T14:19:11Z</time>
      </trkpt>
      <trkpt lat="49.42173" lon="1.17723">
        <ele>44</ele>
        <time>2017-11-21T14:19:11Z</time>
      </trkpt>
      <trkpt lat="49.42174" lon="1.1773">
        <ele>44</ele>
        <time>2017-11-21T14:19:11Z</time>
      </trkpt>
      <trkpt lat="49.42175" lon="1.17737">
        <ele>44</ele>
        <time>2017-11-21T14:19:11Z</time>
      </trkpt>
      <trkpt lat="49.42176" lon="1.17745">
        <ele>44</ele>
        <time>2017-11-21T14:19:27Z</time>
      </trkpt>
      <trkpt lat="49.42176" lon="1.17753">
        <ele>44</ele>
        <time>2017-11-21T14:19:27Z</time>
      </trkpt>
      <trkpt lat="49.42176" lon="1.17761">
        <ele>44</ele>
        <time>2017-11-21T14:19:27Z</time>
      </trkpt>
      <trkpt lat="49.42176" lon="1.17769">
        <ele>44</ele>
        <time>2017-11-21T14:19:27Z</time>
      </trkpt>
      <trkpt lat="49.42177" lon="1.17776">
        <ele>44</ele>
        <time>2017-11-21T14:19:43Z</time>
      </trkpt>
      <trkpt lat="49.42177" lon="1.17784">
        <ele>44</ele>
        <time>2017-11-21T14:19:43Z</time>
      </trkpt>
      <trkpt lat="49.42176" lon="1.17791">
        <ele>44</ele>
        <time>2017-11-21T14:19:43Z</time>
      </trkpt>
      <trkpt lat="49.42174" lon="1.17798">
        <ele>43</ele>
        <time>2017-11-21T14:19:43Z</time>
      </trkpt>
      <trkpt lat="49.42167" lon="1.17813">
        <ele>43</ele>
        <time>2017-11-21T14:20:15Z</time>
      </trkpt>
      <trkpt lat="49.42166" lon="1.17815">
        <ele>43</ele>
        <time>2017-11-21T14:20:15Z</time>
      </trkpt>
      <trkpt lat="49.42164" lon="1.17819">
        <ele>43</ele>
        <time>2017-11-21T14:20:15Z</time>
      </trkpt>
      <trkpt lat="49.42163" lon="1.17821">
        <ele>43</ele>
        <time>2017-11-21T14:20:15Z</time>
      </trkpt>
      <trkpt lat="49.42163" lon="1.17823">
        <ele>43</ele>
        <time>2017-11-21T14:20:15Z</time>
      </trkpt>
      <trkpt lat="49.42163" lon="1.17828">
        <ele>43</ele>
        <time>2017-11-21T14:20:47Z</time>
      </trkpt>
      <trkpt lat="49.42159" lon="1.17832">
        <ele>43</ele>
        <time>2017-11-21T14:20:47Z</time>
      </trkpt>
      <trkpt lat="49.42156" lon="1.17837">
        <ele>43</ele>
        <time>2017-11-21T14:20:47Z</time>
      </trkpt>
      <trkpt lat="49.42153" lon="1.17843">
        <ele>43</ele>
        <time>2017-11-21T14:20:47Z</time>
      </trkpt>
      <trkpt lat="49.4215" lon="1.17848">
        <ele>43</ele>
        <time>2017-11-21T14:20:47Z</time>
      </trkpt>
      <trkpt lat="49.42147" lon="1.17853">
        <ele>43</ele>
        <time>2017-11-21T14:21:03Z</time>
      </trkpt>
      <trkpt lat="49.42143" lon="1.17858">
        <ele>43</ele>
        <time>2017-11-21T14:21:03Z</time>
      </trkpt>
      <trkpt lat="49.4214" lon="1.17863">
        <ele>43</ele>
        <time>2017-11-21T14:21:03Z</time>
      </trkpt>
      <trkpt lat="49.42137" lon="1.17868">
        <ele>43</ele>
        <time>2017-11-21T14:21:03Z</time>
      </trkpt>
      <trkpt lat="49.42134" lon="1.17873">
        <ele>43</ele>
        <time>2017-11-21T14:21:19Z</time>
      </trkpt>
      <trkpt lat="49.42131" lon="1.17879">
        <ele>44</ele>
        <time>2017-11-21T14:21:19Z</time>
      </trkpt>
      <trkpt lat="49.42128" lon="1.17883">
        <ele>44</ele>
        <time>2017-11-21T14:21:19Z</time>
      </trkpt>
      <trkpt lat="49.42125" lon="1.17886">
        <ele>44</ele>
        <time>2017-11-21T14:21:19Z</time>
      </trkpt>
      <trkpt lat="49.42124" lon="1.17888">
        <ele>44</ele>
        <time>2017-11-21T14:21:39Z</time>
      </trkpt>
      <trkpt lat="49.42122" lon="1.17891">
        <ele>44</ele>
        <time>2017-11-21T14:21:39Z</time>
      </trkpt>
      <trkpt lat="49.4212" lon="1.17894">
        <ele>44</ele>
        <time>2017-11-21T14:21:39Z</time>
      </trkpt>
      <trkpt lat="49.42118" lon="1.17897">
        <ele>44</ele>
        <time>2017-11-21T14:21:39Z</time>
      </trkpt>
      <trkpt lat="49.42116" lon="1.17902">
        <ele>44</ele>
        <time>2017-11-21T14:21:39Z</time>
      </trkpt>
      <trkpt lat="49.42113" lon="1.17906">
        <ele>44</ele>
        <time>2017-11-21T14:21:55Z</time>
      </trkpt>
      <trkpt lat="49.42108" lon="1.17912">
        <ele>44</ele>
        <time>2017-11-21T14:21:55Z</time>
      </trkpt>
      <trkpt lat="49.42104" lon="1.17917">
        <ele>44</ele>
        <time>2017-11-21T14:21:55Z</time>
      </trkpt>
      <trkpt lat="49.42103" lon="1.17922">
        <ele>44</ele>
        <time>2017-11-21T14:21:55Z</time>
      </trkpt>
      <trkpt lat="49.42101" lon="1.17924">
        <ele>44</ele>
        <time>2017-11-21T14:22:11Z</time>
      </trkpt>
      <trkpt lat="49.42099" lon="1.17928">
        <ele>44</ele>
        <time>2017-11-21T14:22:11Z</time>
      </trkpt>
      <trkpt lat="49.42097" lon="1.17932">
        <ele>44</ele>
        <time>2017-11-21T14:22:11Z</time>
      </trkpt>
      <trkpt lat="49.42095" lon="1.1794">
        <ele>44</ele>
        <time>2017-11-21T14:22:11Z</time>
      </trkpt>
      <trkpt lat="49.42092" lon="1.17949">
        <ele>44</ele>
        <time>2017-11-21T14:22:27Z</time>
      </trkpt>
      <trkpt lat="49.42091" lon="1.17957">
        <ele>44</ele>
        <time>2017-11-21T14:22:27Z</time>
      </trkpt>
      <trkpt lat="49.42087" lon="1.17964">
        <ele>44</ele>
        <time>2017-11-21T14:22:27Z</time>
      </trkpt>
      <trkpt lat="49.42081" lon="1.1797">
        <ele>44</ele>
        <time>2017-11-21T14:22:27Z</time>
      </trkpt>
      <trkpt lat="49.42076" lon="1.17976">
        <ele>44</ele>
        <time>2017-11-21T14:22:43Z</time>
      </trkpt>
      <trkpt lat="49.42074" lon="1.17983">
        <ele>44</ele>
        <time>2017-11-21T14:22:43Z</time>
      </trkpt>
      <trkpt lat="49.42071" lon="1.17989">
        <ele>44</ele>
        <time>2017-11-21T14:22:43Z</time>
      </trkpt>
      <trkpt lat="49.4207" lon="1.17994">
        <ele>44</ele>
        <time>2017-11-21T14:22:43Z</time>
      </trkpt>
      <trkpt lat="49.42062" lon="1.18011">
        <ele>44</ele>
        <time>2017-11-21T14:23:39Z</time>
      </trkpt>
      <trkpt lat="49.42062" lon="1.18011">
        <ele>44</ele>
        <time>2017-11-21T14:23:39Z</time>
      </trkpt>
      <trkpt lat="49.42061" lon="1.18012">
        <ele>44</ele>
        <time>2017-11-21T14:23:39Z</time>
      </trkpt>
      <trkpt lat="49.42059" lon="1.18015">
        <ele>44</ele>
        <time>2017-11-21T14:23:39Z</time>
      </trkpt>
      <trkpt lat="49.42057" lon="1.18016">
        <ele>44</ele>
        <time>2017-11-21T14:23:39Z</time>
      </trkpt>
      <trkpt lat="49.42055" lon="1.18022">
        <ele>44</ele>
        <time>2017-11-21T14:24:11Z</time>
      </trkpt>
      <trkpt lat="49.42055" lon="1.18021">
        <ele>44</ele>
        <time>2017-11-21T14:24:11Z</time>
      </trkpt>
      <trkpt lat="49.42054" lon="1.18023">
        <ele>44</ele>
        <time>2017-11-21T14:24:11Z</time>
      </trkpt>
      <trkpt lat="49.42053" lon="1.18026">
        <ele>44</ele>
        <time>2017-11-21T14:24:11Z</time>
      </trkpt>
      <trkpt lat="49.42052" lon="1.18031">
        <ele>44</ele>
        <time>2017-11-21T14:24:11Z</time>
      </trkpt>
      <trkpt lat="49.42051" lon="1.18037">
        <ele>44</ele>
        <time>2017-11-21T14:24:27Z</time>
      </trkpt>
      <trkpt lat="49.4205" lon="1.18041">
        <ele>44</ele>
        <time>2017-11-21T14:24:27Z</time>
      </trkpt>
      <trkpt lat="49.42047" lon="1.18047">
        <ele>47</ele>
        <time>2017-11-21T14:24:27Z</time>
      </trkpt>
      <trkpt lat="49.42045" lon="1.18053">
        <ele>47</ele>
        <time>2017-11-21T14:24:27Z</time>
      </trkpt>
      <trkpt lat="49.42041" lon="1.18061">
        <ele>49</ele>
        <time>2017-11-21T14:24:43Z</time>
      </trkpt>
      <trkpt lat="49.4204" lon="1.18069">
        <ele>49</ele>
        <time>2017-11-21T14:24:43Z</time>
      </trkpt>
      <trkpt lat="49.42039" lon="1.18076">
        <ele>49</ele>
        <time>2017-11-21T14:24:43Z</time>
      </trkpt>
      <trkpt lat="49.42038" lon="1.18083">
        <ele>49</ele>
        <time>2017-11-21T14:24:43Z</time>
      </trkpt>
      <trkpt lat="49.42037" lon="1.18091">
        <ele>49</ele>
        <time>2017-11-21T14:24:59Z</time>
      </trkpt>
      <trkpt lat="49.42036" lon="1.181">
        <ele>49</ele>
        <time>2017-11-21T14:24:59Z</time>
      </trkpt>
      <trkpt lat="49.42035" lon="1.18109">
        <ele>49</ele>
        <time>2017-11-21T14:24:59Z</time>
      </trkpt>
      <trkpt lat="49.42034" lon="1.18118">
        <ele>49</ele>
        <time>2017-11-21T14:24:59Z</time>
      </trkpt>
      <trkpt lat="49.42032" lon="1.18126">
        <ele>46</ele>
        <time>2017-11-21T14:25:15Z</time>
      </trkpt>
      <trkpt lat="49.42031" lon="1.18134">
        <ele>46</ele>
        <time>2017-11-21T14:25:15Z</time>
      </trkpt>
      <trkpt lat="49.4203" lon="1.18142">
        <ele>46</ele>
        <time>2017-11-21T14:25:15Z</time>
      </trkpt>
      <trkpt lat="49.4203" lon="1.18149">
        <ele>46</ele>
        <time>2017-11-21T14:25:15Z</time>
      </trkpt>
      <trkpt lat="49.42029" lon="1.18157">
        <ele>46</ele>
        <time>2017-11-21T14:25:31Z</time>
      </trkpt>
      <trkpt lat="49.42029" lon="1.18165">
        <ele>46</ele>
        <time>2017-11-21T14:25:31Z</time>
      </trkpt>
      <trkpt lat="49.42028" lon="1.18172">
        <ele>46</ele>
        <time>2017-11-21T14:25:31Z</time>
      </trkpt>
      <trkpt lat="49.42027" lon="1.1818">
        <ele>46</ele>
        <time>2017-11-21T14:25:31Z</time>
      </trkpt>
      <trkpt lat="49.42026" lon="1.18188">
        <ele>46</ele>
        <time>2017-11-21T14:25:47Z</time>
      </trkpt>
      <trkpt lat="49.42025" lon="1.18195">
        <ele>46</ele>
        <time>2017-11-21T14:25:47Z</time>
      </trkpt>
      <trkpt lat="49.42024" lon="1.18202">
        <ele>46</ele>
        <time>2017-11-21T14:25:47Z</time>
      </trkpt>
      <trkpt lat="49.42022" lon="1.18209">
        <ele>45</ele>
        <time>2017-11-21T14:25:47Z</time>
      </trkpt>
      <trkpt lat="49.4202" lon="1.18216">
        <ele>45</ele>
        <time>2017-11-21T14:26:03Z</time>
      </trkpt>
      <trkpt lat="49.42018" lon="1.18223">
        <ele>45</ele>
        <time>2017-11-21T14:26:03Z</time>
      </trkpt>
      <trkpt lat="49.42017" lon="1.1823">
        <ele>45</ele>
        <time>2017-11-21T14:26:03Z</time>
      </trkpt>
      <trkpt lat="49.42015" lon="1.18237">
        <ele>45</ele>
        <time>2017-11-21T14:26:03Z</time>
      </trkpt>
      <trkpt lat="49.42013" lon="1.18244">
        <ele>45</ele>
        <time>2017-11-21T14:26:19Z</time>
      </trkpt>
      <trkpt lat="49.42011" lon="1.18251">
        <ele>45</ele>
        <time>2017-11-21T14:26:19Z</time>
      </trkpt>
      <trkpt lat="49.42009" lon="1.18258">
        <ele>45</ele>
        <time>2017-11-21T14:26:19Z</time>
      </trkpt>
      <trkpt lat="49.42007" lon="1.18265">
        <ele>45</ele>
        <time>2017-11-21T14:26:19Z</time>
      </trkpt>
      <trkpt lat="49.42006" lon="1.18271">
        <ele>45</ele>
        <time>2017-11-21T14:26:35Z</time>
      </trkpt>
      <trkpt lat="49.42005" lon="1.18278">
        <ele>45</ele>
        <time>2017-11-21T14:26:35Z</time>
      </trkpt>
      <trkpt lat="49.42003" lon="1.18284">
        <ele>45</ele>
        <time>2017-11-21T14:26:35Z</time>
      </trkpt>
      <trkpt lat="49.42003" lon="1.1829">
        <ele>45</ele>
        <time>2017-11-21T14:26:35Z</time>
      </trkpt>
      <trkpt lat="49.42001" lon="1.18295">
        <ele>45</ele>
        <time>2017-11-21T14:26:51Z</time>
      </trkpt>
      <trkpt lat="49.41999" lon="1.18301">
        <ele>45</ele>
        <time>2017-11-21T14:26:51Z</time>
      </trkpt>
      <trkpt lat="49.41997" lon="1.18308">
        <ele>45</ele>
        <time>2017-11-21T14:26:51Z</time>
      </trkpt>
      <trkpt lat="49.41995" lon="1.18315">
        <ele>45</ele>
        <time>2017-11-21T14:26:51Z</time>
      </trkpt>
      <trkpt lat="49.41993" lon="1.18321">
        <ele>45</ele>
        <time>2017-11-21T14:27:07Z</time>
      </trkpt>
      <trkpt lat="49.4199" lon="1.18327">
        <ele>45</ele>
        <time>2017-11-21T14:27:07Z</time>
      </trkpt>
      <trkpt lat="49.41988" lon="1.18334">
        <ele>45</ele>
        <time>2017-11-21T14:27:07Z</time>
      </trkpt>
      <trkpt lat="49.41986" lon="1.1834">
        <ele>45</ele>
        <time>2017-11-21T14:27:07Z</time>
      </trkpt>
      <trkpt lat="49.41983" lon="1.18347">
        <ele>45</ele>
        <time>2017-11-21T14:27:23Z</time>
      </trkpt>
      <trkpt lat="49.41982" lon="1.18353">
        <ele>45</ele>
        <time>2017-11-21T14:27:23Z</time>
      </trkpt>
      <trkpt lat="49.4198" lon="1.1836">
        <ele>45</ele>
        <time>2017-11-21T14:27:23Z</time>
      </trkpt>
      <trkpt lat="49.41978" lon="1.18366">
        <ele>45</ele>
        <time>2017-11-21T14:27:23Z</time>
      </trkpt>
      <trkpt lat="49.41976" lon="1.18373">
        <ele>45</ele>
        <time>2017-11-21T14:27:39Z</time>
      </trkpt>
      <trkpt lat="49.41973" lon="1.18379">
        <ele>48</ele>
        <time>2017-11-21T14:27:39Z</time>
      </trkpt>
      <trkpt lat="49.41971" lon="1.18386">
        <ele>48</ele>
        <time>2017-11-21T14:27:39Z</time>
      </trkpt>
      <trkpt lat="49.41968" lon="1.18392">
        <ele>48</ele>
        <time>2017-11-21T14:27:39Z</time>
      </trkpt>
      <trkpt lat="49.41966" lon="1.18398">
        <ele>48</ele>
        <time>2017-11-21T14:27:55Z</time>
      </trkpt>
      <trkpt lat="49.41964" lon="1.18404">
        <ele>48</ele>
        <time>2017-11-21T14:27:55Z</time>
      </trkpt>
      <trkpt lat="49.41961" lon="1.18411">
        <ele>48</ele>
        <time>2017-11-21T14:27:55Z</time>
      </trkpt>
      <trkpt lat="49.41958" lon="1.18417">
        <ele>48</ele>
        <time>2017-11-21T14:27:55Z</time>
      </trkpt>
      <trkpt lat="49.41955" lon="1.18423">
        <ele>45</ele>
        <time>2017-11-21T14:28:11Z</time>
      </trkpt>
      <trkpt lat="49.41953" lon="1.1843">
        <ele>45</ele>
        <time>2017-11-21T14:28:11Z</time>
      </trkpt>
      <trkpt lat="49.4195" lon="1.18436">
        <ele>45</ele>
        <time>2017-11-21T14:28:11Z</time>
      </trkpt>
      <trkpt lat="49.41948" lon="1.18442">
        <ele>45</ele>
        <time>2017-11-21T14:28:11Z</time>
      </trkpt>
      <trkpt lat="49.41945" lon="1.18448">
        <ele>45</ele>
        <time>2017-11-21T14:28:27Z</time>
      </trkpt>
      <trkpt lat="49.41942" lon="1.18454">
        <ele>45</ele>
        <time>2017-11-21T14:28:27Z</time>
      </trkpt>
      <trkpt lat="49.41939" lon="1.1846">
        <ele>46</ele>
        <time>2017-11-21T14:28:27Z</time>
      </trkpt>
      <trkpt lat="49.41937" lon="1.18466">
        <ele>46</ele>
        <time>2017-11-21T14:28:27Z</time>
      </trkpt>
      <trkpt lat="49.41934" lon="1.18472">
        <ele>46</ele>
        <time>2017-11-21T14:28:43Z</time>
      </trkpt>
      <trkpt lat="49.41931" lon="1.18477">
        <ele>46</ele>
        <time>2017-11-21T14:28:43Z</time>
      </trkpt>
      <trkpt lat="49.41928" lon="1.18483">
        <ele>46</ele>
        <time>2017-11-21T14:28:43Z</time>
      </trkpt>
      <trkpt lat="49.41926" lon="1.18489">
        <ele>46</ele>
        <time>2017-11-21T14:28:43Z</time>
      </trkpt>
      <trkpt lat="49.41924" lon="1.18495">
        <ele>46</ele>
        <time>2017-11-21T14:28:59Z</time>
      </trkpt>
      <trkpt lat="49.41921" lon="1.185">
        <ele>46</ele>
        <time>2017-11-21T14:28:59Z</time>
      </trkpt>
      <trkpt lat="49.41919" lon="1.18506">
        <ele>46</ele>
        <time>2017-11-21T14:28:59Z</time>
      </trkpt>
      <trkpt lat="49.41916" lon="1.18511">
        <ele>46</ele>
        <time>2017-11-21T14:28:59Z</time>
      </trkpt>
      <trkpt lat="49.41915" lon="1.18515">
        <ele>46</ele>
        <time>2017-11-21T14:29:15Z</time>
      </trkpt>
      <trkpt lat="49.41913" lon="1.18521">
        <ele>46</ele>
        <time>2017-11-21T14:29:15Z</time>
      </trkpt>
      <trkpt lat="49.4191" lon="1.18528">
        <ele>46</ele>
        <time>2017-11-21T14:29:15Z</time>
      </trkpt>
      <trkpt lat="49.41906" lon="1.18535">
        <ele>46</ele>
        <time>2017-11-21T14:29:15Z</time>
      </trkpt>
      <trkpt lat="49.419" lon="1.18547">
        <ele>48</ele>
        <time>2017-11-21T14:32:31Z</time>
      </trkpt>
      <trkpt lat="49.419" lon="1.18547">
        <ele>48</ele>
        <time>2017-11-21T14:32:31Z</time>
      </trkpt>
      <trkpt lat="49.41899" lon="1.18547">
        <ele>48</ele>
        <time>2017-11-21T14:32:31Z</time>
      </trkpt>
      <trkpt lat="49.41899" lon="1.1855">
        <ele>48</ele>
        <time>2017-11-21T14:32:31Z</time>
      </trkpt>
      <trkpt lat="49.41898" lon="1.18555">
        <ele>48</ele>
        <time>2017-11-21T14:32:31Z</time>
      </trkpt>
      <trkpt lat="49.41898" lon="1.18561">
        <ele>48</ele>
        <time>2017-11-21T14:32:47Z</time>
      </trkpt>
      <trkpt lat="49.41896" lon="1.18567">
        <ele>48</ele>
        <time>2017-11-21T14:32:47Z</time>
      </trkpt>
      <trkpt lat="49.41895" lon="1.18574">
        <ele>48</ele>
        <time>2017-11-21T14:32:47Z</time>
      </trkpt>
      <trkpt lat="49.41893" lon="1.18581">
        <ele>48</ele>
        <time>2017-11-21T14:32:47Z</time>
      </trkpt>
      <trkpt lat="49.41892" lon="1.18588">
        <ele>48</ele>
        <time>2017-11-21T14:33:03Z</time>
      </trkpt>
      <trkpt lat="49.4189" lon="1.18596">
        <ele>48</ele>
        <time>2017-11-21T14:33:03Z</time>
      </trkpt>
      <trkpt lat="49.41889" lon="1.18603">
        <ele>48</ele>
        <time>2017-11-21T14:33:03Z</time>
      </trkpt>
      <trkpt lat="49.41888" lon="1.1861">
        <ele>48</ele>
        <time>2017-11-21T14:33:03Z</time>
      </trkpt>
      <trkpt lat="49.41886" lon="1.18618">
        <ele>48</ele>
        <time>2017-11-21T14:33:19Z</time>
      </trkpt>
      <trkpt lat="49.41884" lon="1.18625">
        <ele>48</ele>
        <time>2017-11-21T14:33:19Z</time>
      </trkpt>
      <trkpt lat="49.41883" lon="1.18632">
        <ele>55</ele>
        <time>2017-11-21T14:33:19Z</time>
      </trkpt>
      <trkpt lat="49.41881" lon="1.18639">
        <ele>55</ele>
        <time>2017-11-21T14:33:19Z</time>
      </trkpt>
      <trkpt lat="49.41878" lon="1.18646">
        <ele>55</ele>
        <time>2017-11-21T14:33:35Z</time>
      </trkpt>
      <trkpt lat="49.41875" lon="1.18652">
        <ele>55</ele>
        <time>2017-11-21T14:33:35Z</time>
      </trkpt>
      <trkpt lat="49.41872" lon="1.18658">
        <ele>49</ele>
        <time>2017-11-21T14:33:35Z</time>
      </trkpt>
      <trkpt lat="49.4187" lon="1.18664">
        <ele>49</ele>
        <time>2017-11-21T14:33:35Z</time>
      </trkpt>
      <trkpt lat="49.41867" lon="1.1867">
        <ele>49</ele>
        <time>2017-11-21T14:33:51Z</time>
      </trkpt>
      <trkpt lat="49.41864" lon="1.18676">
        <ele>49</ele>
        <time>2017-11-21T14:33:51Z</time>
      </trkpt>
      <trkpt lat="49.4186" lon="1.18682">
        <ele>49</ele>
        <time>2017-11-21T14:33:51Z</time>
      </trkpt>
      <trkpt lat="49.41858" lon="1.18688">
        <ele>49</ele>
        <time>2017-11-21T14:33:51Z</time>
      </trkpt>
      <trkpt lat="49.41855" lon="1.18695">
        <ele>49</ele>
        <time>2017-11-21T14:34:07Z</time>
      </trkpt>
      <trkpt lat="49.41853" lon="1.18701">
        <ele>49</ele>
        <time>2017-11-21T14:34:07Z</time>
      </trkpt>
      <trkpt lat="49.41851" lon="1.18706">
        <ele>49</ele>
        <time>2017-11-21T14:34:07Z</time>
      </trkpt>
      <trkpt lat="49.41849" lon="1.18712">
        <ele>48</ele>
        <time>2017-11-21T14:34:07Z</time>
      </trkpt>
      <trkpt lat="49.41845" lon="1.18715">
        <ele>48</ele>
        <time>2017-11-21T14:34:23Z</time>
      </trkpt>
      <trkpt lat="49.41842" lon="1.1872">
        <ele>48</ele>
        <time>2017-11-21T14:34:23Z</time>
      </trkpt>
      <trkpt lat="49.41839" lon="1.18724">
        <ele>48</ele>
        <time>2017-11-21T14:34:23Z</time>
      </trkpt>
      <trkpt lat="49.41835" lon="1.18729">
        <ele>48</ele>
        <time>2017-11-21T14:34:23Z</time>
      </trkpt>
      <trkpt lat="49.41831" lon="1.18734">
        <ele>48</ele>
        <time>2017-11-21T14:34:39Z</time>
      </trkpt>
      <trkpt lat="49.41828" lon="1.18739">
        <ele>48</ele>
        <time>2017-11-21T14:34:39Z</time>
      </trkpt>
      <trkpt lat="49.41824" lon="1.18745">
        <ele>48</ele>
        <time>2017-11-21T14:34:39Z</time>
      </trkpt>
      <trkpt lat="49.4182" lon="1.18751">
        <ele>48</ele>
        <time>2017-11-21T14:34:39Z</time>
      </trkpt>
      <trkpt lat="49.41816" lon="1.18756">
        <ele>48</ele>
        <time>2017-11-21T14:34:55Z</time>
      </trkpt>
      <trkpt lat="49.41812" lon="1.1876">
        <ele>48</ele>
        <time>2017-11-21T14:34:55Z</time>
      </trkpt>
      <trkpt lat="49.41808" lon="1.18765">
        <ele>48</ele>
        <time>2017-11-21T14:34:55Z</time>
      </trkpt>
      <trkpt lat="49.41804" lon="1.1877">
        <ele>48</ele>
        <time>2017-11-21T14:34:55Z</time>
      </trkpt>
      <trkpt lat="49.41801" lon="1.18776">
        <ele>48</ele>
        <time>2017-11-21T14:35:11Z</time>
      </trkpt>
      <trkpt lat="49.41797" lon="1.18782">
        <ele>48</ele>
        <time>2017-11-21T14:35:11Z</time>
      </trkpt>
      <trkpt lat="49.41794" lon="1.18787">
        <ele>48</ele>
        <time>2017-11-21T14:35:11Z</time>
      </trkpt>
      <trkpt lat="49.41791" lon="1.18793">
        <ele>50</ele>
        <time>2017-11-21T14:35:11Z</time>
      </trkpt>
      <trkpt lat="49.41788" lon="1.18799">
        <ele>50</ele>
        <time>2017-11-21T14:35:27Z</time>
      </trkpt>
      <trkpt lat="49.41785" lon="1.18805">
        <ele>50</ele>
        <time>2017-11-21T14:35:27Z</time>
      </trkpt>
      <trkpt lat="49.41783" lon="1.18812">
        <ele>50</ele>
        <time>2017-11-21T14:35:27Z</time>
      </trkpt>
      <trkpt lat="49.4178" lon="1.18818">
        <ele>50</ele>
        <time>2017-11-21T14:35:27Z</time>
      </trkpt>
      <trkpt lat="49.41777" lon="1.18824">
        <ele>50</ele>
        <time>2017-11-21T14:35:43Z</time>
      </trkpt>
      <trkpt lat="49.41774" lon="1.1883">
        <ele>50</ele>
        <time>2017-11-21T14:35:43Z</time>
      </trkpt>
      <trkpt lat="49.41772" lon="1.18836">
        <ele>50</ele>
        <time>2017-11-21T14:35:43Z</time>
      </trkpt>
      <trkpt lat="49.41769" lon="1.18842">
        <ele>50</ele>
        <time>2017-11-21T14:35:43Z</time>
      </trkpt>
      <trkpt lat="49.41767" lon="1.18849">
        <ele>50</ele>
        <time>2017-11-21T14:35:59Z</time>
      </trkpt>
      <trkpt lat="49.41764" lon="1.18855">
        <ele>50</ele>
        <time>2017-11-21T14:35:59Z</time>
      </trkpt>
      <trkpt lat="49.41762" lon="1.18861">
        <ele>50</ele>
        <time>2017-11-21T14:35:59Z</time>
      </trkpt>
      <trkpt lat="49.41759" lon="1.18867">
        <ele>50</ele>
        <time>2017-11-21T14:35:59Z</time>
      </trkpt>
      <trkpt lat="49.41757" lon="1.18873">
        <ele>50</ele>
        <time>2017-11-21T14:36:15Z</time>
      </trkpt>
      <trkpt lat="49.41754" lon="1.1888">
        <ele>50</ele>
        <time>2017-11-21T14:36:15Z</time>
      </trkpt>
      <trkpt lat="49.41752" lon="1.18887">
        <ele>50</ele>
        <time>2017-11-21T14:36:15Z</time>
      </trkpt>
      <trkpt lat="49.4175" lon="1.18893">
        <ele>50</ele>
        <time>2017-11-21T14:36:15Z</time>
      </trkpt>
      <trkpt lat="49.41748" lon="1.189">
        <ele>50</ele>
        <time>2017-11-21T14:36:31Z</time>
      </trkpt>
      <trkpt lat="49.41746" lon="1.18907">
        <ele>50</ele>
        <time>2017-11-21T14:36:31Z</time>
      </trkpt>
      <trkpt lat="49.41744" lon="1.18914">
        <ele>50</ele>
        <time>2017-11-21T14:36:31Z</time>
      </trkpt>
      <trkpt lat="49.41742" lon="1.18922">
        <ele>50</ele>
        <time>2017-11-21T14:36:31Z</time>
      </trkpt>
      <trkpt lat="49.41741" lon="1.18929">
        <ele>50</ele>
        <time>2017-11-21T14:36:47Z</time>
      </trkpt>
      <trkpt lat="49.4174" lon="1.18937">
        <ele>50</ele>
        <time>2017-11-21T14:36:47Z</time>
      </trkpt>
      <trkpt lat="49.41739" lon="1.18944">
        <ele>50</ele>
        <time>2017-11-21T14:36:47Z</time>
      </trkpt>
      <trkpt lat="49.41739" lon="1.18952">
        <ele>50</ele>
        <time>2017-11-21T14:36:47Z</time>
      </trkpt>
      <trkpt lat="49.41738" lon="1.18959">
        <ele>50</ele>
        <time>2017-11-21T14:37:03Z</time>
      </trkpt>
      <trkpt lat="49.41738" lon="1.18967">
        <ele>50</ele>
        <time>2017-11-21T14:37:03Z</time>
      </trkpt>
      <trkpt lat="49.41738" lon="1.18974">
        <ele>50</ele>
        <time>2017-11-21T14:37:03Z</time>
      </trkpt>
      <trkpt lat="49.41738" lon="1.18981">
        <ele>50</ele>
        <time>2017-11-21T14:37:03Z</time>
      </trkpt>
      <trkpt lat="49.41737" lon="1.18989">
        <ele>50</ele>
        <time>2017-11-21T14:37:19Z</time>
      </trkpt>
      <trkpt lat="49.41734" lon="1.18996">
        <ele>50</ele>
        <time>2017-11-21T14:37:19Z</time>
      </trkpt>
      <trkpt lat="49.41732" lon="1.19004">
        <ele>50</ele>
        <time>2017-11-21T14:37:19Z</time>
      </trkpt>
      <trkpt lat="49.41729" lon="1.19011">
        <ele>50</ele>
        <time>2017-11-21T14:37:19Z</time>
      </trkpt>
      <trkpt lat="49.41727" lon="1.19017">
        <ele>50</ele>
        <time>2017-11-21T14:37:35Z</time>
      </trkpt>
      <trkpt lat="49.41724" lon="1.19023">
        <ele>50</ele>
        <time>2017-11-21T14:37:35Z</time>
      </trkpt>
      <trkpt lat="49.41722" lon="1.19029">
        <ele>50</ele>
        <time>2017-11-21T14:37:35Z</time>
      </trkpt>
      <trkpt lat="49.41719" lon="1.19035">
        <ele>50</ele>
        <time>2017-11-21T14:37:35Z</time>
      </trkpt>
      <trkpt lat="49.41716" lon="1.19041">
        <ele>50</ele>
        <time>2017-11-21T14:37:51Z</time>
      </trkpt>
      <trkpt lat="49.41713" lon="1.19046">
        <ele>50</ele>
        <time>2017-11-21T14:37:51Z</time>
      </trkpt>
      <trkpt lat="49.4171" lon="1.19052">
        <ele>50</ele>
        <time>2017-11-21T14:37:51Z</time>
      </trkpt>
      <trkpt lat="49.41708" lon="1.19059">
        <ele>55</ele>
        <time>2017-11-21T14:37:51Z</time>
      </trkpt>
      <trkpt lat="49.41706" lon="1.19066">
        <ele>55</ele>
        <time>2017-11-21T14:38:07Z</time>
      </trkpt>
      <trkpt lat="49.41704" lon="1.19073">
        <ele>55</ele>
        <time>2017-11-21T14:38:07Z</time>
      </trkpt>
      <trkpt lat="49.41702" lon="1.19081">
        <ele>55</ele>
        <time>2017-11-21T14:38:07Z</time>
      </trkpt>
      <trkpt lat="49.41701" lon="1.19087">
        <ele>55</ele>
        <time>2017-11-21T14:38:07Z</time>
      </trkpt>
      <trkpt lat="49.41699" lon="1.19094">
        <ele>55</ele>
        <time>2017-11-21T14:38:23Z</time>
      </trkpt>
      <trkpt lat="49.41697" lon="1.19101">
        <ele>55</ele>
        <time>2017-11-21T14:38:23Z</time>
      </trkpt>
      <trkpt lat="49.41696" lon="1.19109">
        <ele>55</ele>
        <time>2017-11-21T14:38:23Z</time>
      </trkpt>
      <trkpt lat="49.41695" lon="1.19116">
        <ele>55</ele>
        <time>2017-11-21T14:38:23Z</time>
      </trkpt>
      <trkpt lat="49.41694" lon="1.19123">
        <ele>55</ele>
        <time>2017-11-21T14:38:39Z</time>
      </trkpt>
      <trkpt lat="49.41693" lon="1.19131">
        <ele>56</ele>
        <time>2017-11-21T14:38:39Z</time>
      </trkpt>
      <trkpt lat="49.41692" lon="1.19138">
        <ele>56</ele>
        <time>2017-11-21T14:38:39Z</time>
      </trkpt>
      <trkpt lat="49.41691" lon="1.19145">
        <ele>56</ele>
        <time>2017-11-21T14:38:39Z</time>
      </trkpt>
      <trkpt lat="49.41689" lon="1.19152">
        <ele>56</ele>
        <time>2017-11-21T14:38:55Z</time>
      </trkpt>
      <trkpt lat="49.41688" lon="1.19159">
        <ele>56</ele>
        <time>2017-11-21T14:38:55Z</time>
      </trkpt>
      <trkpt lat="49.41686" lon="1.19166">
        <ele>56</ele>
        <time>2017-11-21T14:38:55Z</time>
      </trkpt>
      <trkpt lat="49.41684" lon="1.19174">
        <ele>56</ele>
        <time>2017-11-21T14:38:55Z</time>
      </trkpt>
      <trkpt lat="49.41682" lon="1.19181">
        <ele>56</ele>
        <time>2017-11-21T14:39:11Z</time>
      </trkpt>
      <trkpt lat="49.41681" lon="1.19187">
        <ele>56</ele>
        <time>2017-11-21T14:39:11Z</time>
      </trkpt>
      <trkpt lat="49.41679" lon="1.19194">
        <ele>56</ele>
        <time>2017-11-21T14:39:11Z</time>
      </trkpt>
      <trkpt lat="49.41677" lon="1.19201">
        <ele>56</ele>
        <time>2017-11-21T14:39:11Z</time>
      </trkpt>
      <trkpt lat="49.41676" lon="1.19209">
        <ele>55</ele>
        <time>2017-11-21T14:39:27Z</time>
      </trkpt>
      <trkpt lat="49.41674" lon="1.19215">
        <ele>55</ele>
        <time>2017-11-21T14:39:27Z</time>
      </trkpt>
      <trkpt lat="49.41673" lon="1.19223">
        <ele>55</ele>
        <time>2017-11-21T14:39:27Z</time>
      </trkpt>
      <trkpt lat="49.41671" lon="1.1923">
        <ele>55</ele>
        <time>2017-11-21T14:39:27Z</time>
      </trkpt>
      <trkpt lat="49.4167" lon="1.19236">
        <ele>55</ele>
        <time>2017-11-21T14:39:43Z</time>
      </trkpt>
      <trkpt lat="49.41668" lon="1.19243">
        <ele>55</ele>
        <time>2017-11-21T14:39:43Z</time>
      </trkpt>
      <trkpt lat="49.41666" lon="1.19251">
        <ele>55</ele>
        <time>2017-11-21T14:39:43Z</time>
      </trkpt>
      <trkpt lat="49.41664" lon="1.19258">
        <ele>55</ele>
        <time>2017-11-21T14:39:43Z</time>
      </trkpt>
      <trkpt lat="49.41663" lon="1.19264">
        <ele>55</ele>
        <time>2017-11-21T14:39:59Z</time>
      </trkpt>
      <trkpt lat="49.41661" lon="1.19271">
        <ele>55</ele>
        <time>2017-11-21T14:39:59Z</time>
      </trkpt>
      <trkpt lat="49.41659" lon="1.19277">
        <ele>55</ele>
        <time>2017-11-21T14:39:59Z</time>
      </trkpt>
      <trkpt lat="49.41657" lon="1.19284">
        <ele>55</ele>
        <time>2017-11-21T14:39:59Z</time>
      </trkpt>
      <trkpt lat="49.41655" lon="1.19291">
        <ele>55</ele>
        <time>2017-11-21T14:40:15Z</time>
      </trkpt>
      <trkpt lat="49.41653" lon="1.19298">
        <ele>53</ele>
        <time>2017-11-21T14:40:15Z</time>
      </trkpt>
      <trkpt lat="49.41651" lon="1.19305">
        <ele>53</ele>
        <time>2017-11-21T14:40:15Z</time>
      </trkpt>
      <trkpt lat="49.41649" lon="1.19311">
        <ele>53</ele>
        <time>2017-11-21T14:40:15Z</time>
      </trkpt>
      <trkpt lat="49.41647" lon="1.19318">
        <ele>53</ele>
        <time>2017-11-21T14:40:31Z</time>
      </trkpt>
      <trkpt lat="49.41645" lon="1.19325">
        <ele>53</ele>
        <time>2017-11-21T14:40:31Z</time>
      </trkpt>
      <trkpt lat="49.41643" lon="1.19332">
        <ele>53</ele>
        <time>2017-11-21T14:40:31Z</time>
      </trkpt>
      <trkpt lat="49.41641" lon="1.19339">
        <ele>53</ele>
        <time>2017-11-21T14:40:31Z</time>
      </trkpt>
      <trkpt lat="49.41639" lon="1.19346">
        <ele>53</ele>
        <time>2017-11-21T14:40:47Z</time>
      </trkpt>
      <trkpt lat="49.41637" lon="1.19353">
        <ele>53</ele>
        <time>2017-11-21T14:40:47Z</time>
      </trkpt>
      <trkpt lat="49.41634" lon="1.19359">
        <ele>53</ele>
        <time>2017-11-21T14:40:47Z</time>
      </trkpt>
      <trkpt lat="49.41632" lon="1.19366">
        <ele>53</ele>
        <time>2017-11-21T14:40:47Z</time>
      </trkpt>
      <trkpt lat="49.4163" lon="1.19373">
        <ele>53</ele>
        <time>2017-11-21T14:41:03Z</time>
      </trkpt>
      <trkpt lat="49.41628" lon="1.1938">
        <ele>53</ele>
        <time>2017-11-21T14:41:03Z</time>
      </trkpt>
      <trkpt lat="49.41626" lon="1.19386">
        <ele>53</ele>
        <time>2017-11-21T14:41:03Z</time>
      </trkpt>
      <trkpt lat="49.41624" lon="1.19393">
        <ele>57</ele>
        <time>2017-11-21T14:41:03Z</time>
      </trkpt>
      <trkpt lat="49.41621" lon="1.194">
        <ele>57</ele>
        <time>2017-11-21T14:41:19Z</time>
      </trkpt>
      <trkpt lat="49.4162" lon="1.19407">
        <ele>57</ele>
        <time>2017-11-21T14:41:19Z</time>
      </trkpt>
      <trkpt lat="49.41618" lon="1.19414">
        <ele>57</ele>
        <time>2017-11-21T14:41:19Z</time>
      </trkpt>
      <trkpt lat="49.41616" lon="1.1942">
        <ele>57</ele>
        <time>2017-11-21T14:41:19Z</time>
      </trkpt>
      <trkpt lat="49.41613" lon="1.19427">
        <ele>57</ele>
        <time>2017-11-21T14:41:35Z</time>
      </trkpt>
      <trkpt lat="49.41611" lon="1.19434">
        <ele>57</ele>
        <time>2017-11-21T14:41:35Z</time>
      </trkpt>
      <trkpt lat="49.4161" lon="1.19441">
        <ele>57</ele>
        <time>2017-11-21T14:41:35Z</time>
      </trkpt>
      <trkpt lat="49.41608" lon="1.19448">
        <ele>57</ele>
        <time>2017-11-21T14:41:35Z</time>
      </trkpt>
      <trkpt lat="49.41606" lon="1.19455">
        <ele>57</ele>
        <time>2017-11-21T14:41:51Z</time>
      </trkpt>
      <trkpt lat="49.41604" lon="1.19462">
        <ele>54</ele>
        <time>2017-11-21T14:41:51Z</time>
      </trkpt>
      <trkpt lat="49.41602" lon="1.19469">
        <ele>54</ele>
        <time>2017-11-21T14:41:51Z</time>
      </trkpt>
      <trkpt lat="49.41598" lon="1.19475">
        <ele>54</ele>
        <time>2017-11-21T14:41:51Z</time>
      </trkpt>
      <trkpt lat="49.41594" lon="1.19479">
        <ele>54</ele>
        <time>2017-11-21T14:42:07Z</time>
      </trkpt>
      <trkpt lat="49.41589" lon="1.19482">
        <ele>54</ele>
        <time>2017-11-21T14:42:07Z</time>
      </trkpt>
      <trkpt lat="49.41586" lon="1.19486">
        <ele>54</ele>
        <time>2017-11-21T14:42:07Z</time>
      </trkpt>
      <trkpt lat="49.41583" lon="1.19493">
        <ele>54</ele>
        <time>2017-11-21T14:42:07Z</time>
      </trkpt>
      <trkpt lat="49.41581" lon="1.195">
        <ele>54</ele>
        <time>2017-11-21T14:42:23Z</time>
      </trkpt>
      <trkpt lat="49.41579" lon="1.19507">
        <ele>54</ele>
        <time>2017-11-21T14:42:23Z</time>
      </trkpt>
      <trkpt lat="49.41577" lon="1.19513">
        <ele>54</ele>
        <time>2017-11-21T14:42:23Z</time>
      </trkpt>
      <trkpt lat="49.41575" lon="1.1952">
        <ele>54</ele>
        <time>2017-11-21T14:42:23Z</time>
      </trkpt>
      <trkpt lat="49.41573" lon="1.19526">
        <ele>54</ele>
        <time>2017-11-21T14:42:39Z</time>
      </trkpt>
      <trkpt lat="49.4157" lon="1.19532">
        <ele>54</ele>
        <time>2017-11-21T14:42:39Z</time>
      </trkpt>
      <trkpt lat="49.41568" lon="1.19539">
        <ele>54</ele>
        <time>2017-11-21T14:42:39Z</time>
      </trkpt>
      <trkpt lat="49.41566" lon="1.19546">
        <ele>53</ele>
        <time>2017-11-21T14:42:39Z</time>
      </trkpt>
      <trkpt lat="49.41563" lon="1.19552">
        <ele>53</ele>
        <time>2017-11-21T14:42:55Z</time>
      </trkpt>
      <trkpt lat="49.41561" lon="1.19559">
        <ele>53</ele>
        <time>2017-11-21T14:42:55Z</time>
      </trkpt>
      <trkpt lat="49.41559" lon="1.19564">
        <ele>53</ele>
        <time>2017-11-21T14:42:55Z</time>
      </trkpt>
      <trkpt lat="49.41557" lon="1.19571">
        <ele>53</ele>
        <time>2017-11-21T14:42:55Z</time>
      </trkpt>
      <trkpt lat="49.41556" lon="1.19577">
        <ele>53</ele>
        <time>2017-11-21T14:43:11Z</time>
      </trkpt>
      <trkpt lat="49.41555" lon="1.19583">
        <ele>53</ele>
        <time>2017-11-21T14:43:11Z</time>
      </trkpt>
      <trkpt lat="49.41554" lon="1.1959">
        <ele>53</ele>
        <time>2017-11-21T14:43:11Z</time>
      </trkpt>
      <trkpt lat="49.41553" lon="1.19598">
        <ele>53</ele>
        <time>2017-11-21T14:43:11Z</time>
      </trkpt>
      <trkpt lat="49.41552" lon="1.19606">
        <ele>53</ele>
        <time>2017-11-21T14:43:27Z</time>
      </trkpt>
      <trkpt lat="49.4155" lon="1.19613">
        <ele>53</ele>
        <time>2017-11-21T14:43:27Z</time>
      </trkpt>
      <trkpt lat="49.41547" lon="1.1962">
        <ele>53</ele>
        <time>2017-11-21T14:43:27Z</time>
      </trkpt>
      <trkpt lat="49.41544" lon="1.19626">
        <ele>52</ele>
        <time>2017-11-21T14:43:27Z</time>
      </trkpt>
      <trkpt lat="49.41541" lon="1.19632">
        <ele>56</ele>
        <time>2017-11-21T14:43:43Z</time>
      </trkpt>
      <trkpt lat="49.41538" lon="1.19639">
        <ele>56</ele>
        <time>2017-11-21T14:43:43Z</time>
      </trkpt>
      <trkpt lat="49.41536" lon="1.19645">
        <ele>56</ele>
        <time>2017-11-21T14:43:43Z</time>
      </trkpt>
      <trkpt lat="49.41533" lon="1.19651">
        <ele>56</ele>
        <time>2017-11-21T14:43:43Z</time>
      </trkpt>
      <trkpt lat="49.41531" lon="1.19657">
        <ele>56</ele>
        <time>2017-11-21T14:43:59Z</time>
      </trkpt>
      <trkpt lat="49.41528" lon="1.19663">
        <ele>56</ele>
        <time>2017-11-21T14:43:59Z</time>
      </trkpt>
      <trkpt lat="49.41525" lon="1.19669">
        <ele>56</ele>
        <time>2017-11-21T14:43:59Z</time>
      </trkpt>
      <trkpt lat="49.41522" lon="1.19676">
        <ele>56</ele>
        <time>2017-11-21T14:43:59Z</time>
      </trkpt>
      <trkpt lat="49.4152" lon="1.19682">
        <ele>56</ele>
        <time>2017-11-21T14:44:15Z</time>
      </trkpt>
      <trkpt lat="49.41518" lon="1.19689">
        <ele>56</ele>
        <time>2017-11-21T14:44:15Z</time>
      </trkpt>
      <trkpt lat="49.41515" lon="1.19696">
        <ele>56</ele>
        <time>2017-11-21T14:44:15Z</time>
      </trkpt>
      <trkpt lat="49.41512" lon="1.19702">
        <ele>56</ele>
        <time>2017-11-21T14:44:15Z</time>
      </trkpt>
      <trkpt lat="49.41509" lon="1.19708">
        <ele>56</ele>
        <time>2017-11-21T14:44:31Z</time>
      </trkpt>
      <trkpt lat="49.41507" lon="1.19715">
        <ele>54</ele>
        <time>2017-11-21T14:44:31Z</time>
      </trkpt>
      <trkpt lat="49.41504" lon="1.19721">
        <ele>54</ele>
        <time>2017-11-21T14:44:31Z</time>
      </trkpt>
      <trkpt lat="49.41501" lon="1.19727">
        <ele>54</ele>
        <time>2017-11-21T14:44:31Z</time>
      </trkpt>
      <trkpt lat="49.41499" lon="1.19733">
        <ele>54</ele>
        <time>2017-11-21T14:44:47Z</time>
      </trkpt>
      <trkpt lat="49.41496" lon="1.1974">
        <ele>54</ele>
        <time>2017-11-21T14:44:47Z</time>
      </trkpt>
      <trkpt lat="49.41493" lon="1.19746">
        <ele>54</ele>
        <time>2017-11-21T14:44:47Z</time>
      </trkpt>
      <trkpt lat="49.4149" lon="1.19752">
        <ele>54</ele>
        <time>2017-11-21T14:44:47Z</time>
      </trkpt>
      <trkpt lat="49.41488" lon="1.19758">
        <ele>54</ele>
        <time>2017-11-21T14:45:03Z</time>
      </trkpt>
      <trkpt lat="49.41485" lon="1.19764">
        <ele>54</ele>
        <time>2017-11-21T14:45:03Z</time>
      </trkpt>
      <trkpt lat="49.41483" lon="1.19771">
        <ele>54</ele>
        <time>2017-11-21T14:45:03Z</time>
      </trkpt>
      <trkpt lat="49.4148" lon="1.19777">
        <ele>54</ele>
        <time>2017-11-21T14:45:03Z</time>
      </trkpt>
      <trkpt lat="49.41478" lon="1.19784">
        <ele>54</ele>
        <time>2017-11-21T14:45:19Z</time>
      </trkpt>
      <trkpt lat="49.41475" lon="1.1979">
        <ele>54</ele>
        <time>2017-11-21T14:45:19Z</time>
      </trkpt>
      <trkpt lat="49.41472" lon="1.19796">
        <ele>54</ele>
        <time>2017-11-21T14:45:19Z</time>
      </trkpt>
      <trkpt lat="49.4147" lon="1.19802">
        <ele>54</ele>
        <time>2017-11-21T14:45:19Z</time>
      </trkpt>
      <trkpt lat="49.41468" lon="1.19808">
        <ele>54</ele>
        <time>2017-11-21T14:45:35Z</time>
      </trkpt>
      <trkpt lat="49.41465" lon="1.19815">
        <ele>54</ele>
        <time>2017-11-21T14:45:35Z</time>
      </trkpt>
      <trkpt lat="49.41462" lon="1.19821">
        <ele>54</ele>
        <time>2017-11-21T14:45:35Z</time>
      </trkpt>
      <trkpt lat="49.4146" lon="1.19828">
        <ele>54</ele>
        <time>2017-11-21T14:45:35Z</time>
      </trkpt>
      <trkpt lat="49.41458" lon="1.19834">
        <ele>64</ele>
        <time>2017-11-21T14:45:51Z</time>
      </trkpt>
      <trkpt lat="49.41456" lon="1.19841">
        <ele>64</ele>
        <time>2017-11-21T14:45:51Z</time>
      </trkpt>
      <trkpt lat="49.41454" lon="1.19847">
        <ele>64</ele>
        <time>2017-11-21T14:45:51Z</time>
      </trkpt>
      <trkpt lat="49.41452" lon="1.19854">
        <ele>64</ele>
        <time>2017-11-21T14:45:51Z</time>
      </trkpt>
      <trkpt lat="49.41451" lon="1.19861">
        <ele>64</ele>
        <time>2017-11-21T14:46:07Z</time>
      </trkpt>
      <trkpt lat="49.41449" lon="1.19867">
        <ele>64</ele>
        <time>2017-11-21T14:46:07Z</time>
      </trkpt>
      <trkpt lat="49.41447" lon="1.19874">
        <ele>64</ele>
        <time>2017-11-21T14:46:07Z</time>
      </trkpt>
      <trkpt lat="49.41446" lon="1.19881">
        <ele>55</ele>
        <time>2017-11-21T14:46:07Z</time>
      </trkpt>
      <trkpt lat="49.41444" lon="1.19888">
        <ele>55</ele>
        <time>2017-11-21T14:46:23Z</time>
      </trkpt>
      <trkpt lat="49.41442" lon="1.19895">
        <ele>55</ele>
        <time>2017-11-21T14:46:23Z</time>
      </trkpt>
      <trkpt lat="49.4144" lon="1.19903">
        <ele>55</ele>
        <time>2017-11-21T14:46:23Z</time>
      </trkpt>
      <trkpt lat="49.41438" lon="1.1991">
        <ele>55</ele>
        <time>2017-11-21T14:46:23Z</time>
      </trkpt>
      <trkpt lat="49.41437" lon="1.19917">
        <ele>55</ele>
        <time>2017-11-21T14:46:39Z</time>
      </trkpt>
      <trkpt lat="49.41436" lon="1.19924">
        <ele>55</ele>
        <time>2017-11-21T14:46:39Z</time>
      </trkpt>
      <trkpt lat="49.41435" lon="1.19931">
        <ele>55</ele>
        <time>2017-11-21T14:46:39Z</time>
      </trkpt>
      <trkpt lat="49.41434" lon="1.19938">
        <ele>55</ele>
        <time>2017-11-21T14:46:39Z</time>
      </trkpt>
      <trkpt lat="49.41434" lon="1.19945">
        <ele>55</ele>
        <time>2017-11-21T14:46:55Z</time>
      </trkpt>
      <trkpt lat="49.41433" lon="1.19953">
        <ele>55</ele>
        <time>2017-11-21T14:46:55Z</time>
      </trkpt>
      <trkpt lat="49.41433" lon="1.1996">
        <ele>54</ele>
        <time>2017-11-21T14:46:55Z</time>
      </trkpt>
      <trkpt lat="49.41432" lon="1.19968">
        <ele>54</ele>
        <time>2017-11-21T14:46:55Z</time>
      </trkpt>
      <trkpt lat="49.41431" lon="1.19975">
        <ele>54</ele>
        <time>2017-11-21T14:47:11Z</time>
      </trkpt>
      <trkpt lat="49.4143" lon="1.19983">
        <ele>54</ele>
        <time>2017-11-21T14:47:11Z</time>
      </trkpt>
      <trkpt lat="49.41429" lon="1.1999">
        <ele>54</ele>
        <time>2017-11-21T14:47:11Z</time>
      </trkpt>
      <trkpt lat="49.41429" lon="1.19998">
        <ele>54</ele>
        <time>2017-11-21T14:47:11Z</time>
      </trkpt>
      <trkpt lat="49.41428" lon="1.20004">
        <ele>54</ele>
        <time>2017-11-21T14:47:27Z</time>
      </trkpt>
      <trkpt lat="49.41427" lon="1.20011">
        <ele>54</ele>
        <time>2017-11-21T14:47:27Z</time>
      </trkpt>
      <trkpt lat="49.41426" lon="1.20019">
        <ele>54</ele>
        <time>2017-11-21T14:47:27Z</time>
      </trkpt>
      <trkpt lat="49.41425" lon="1.20027">
        <ele>54</ele>
        <time>2017-11-21T14:47:27Z</time>
      </trkpt>
      <trkpt lat="49.41425" lon="1.20035">
        <ele>54</ele>
        <time>2017-11-21T14:47:43Z</time>
      </trkpt>
      <trkpt lat="49.41424" lon="1.20042">
        <ele>54</ele>
        <time>2017-11-21T14:47:43Z</time>
      </trkpt>
      <trkpt lat="49.41424" lon="1.2005">
        <ele>54</ele>
        <time>2017-11-21T14:47:43Z</time>
      </trkpt>
      <trkpt lat="49.41423" lon="1.20057">
        <ele>54</ele>
        <time>2017-11-21T14:47:43Z</time>
      </trkpt>
      <trkpt lat="49.41424" lon="1.20065">
        <ele>54</ele>
        <time>2017-11-21T14:47:59Z</time>
      </trkpt>
      <trkpt lat="49.41423" lon="1.20073">
        <ele>54</ele>
        <time>2017-11-21T14:47:59Z</time>
      </trkpt>
      <trkpt lat="49.41423" lon="1.20081">
        <ele>54</ele>
        <time>2017-11-21T14:47:59Z</time>
      </trkpt>
      <trkpt lat="49.41423" lon="1.20088">
        <ele>54</ele>
        <time>2017-11-21T14:47:59Z</time>
      </trkpt>
      <trkpt lat="49.41422" lon="1.20095">
        <ele>54</ele>
        <time>2017-11-21T14:48:15Z</time>
      </trkpt>
      <trkpt lat="49.41422" lon="1.20103">
        <ele>54</ele>
        <time>2017-11-21T14:48:15Z</time>
      </trkpt>
      <trkpt lat="49.41421" lon="1.2011">
        <ele>54</ele>
        <time>2017-11-21T14:48:15Z</time>
      </trkpt>
      <trkpt lat="49.4142" lon="1.20118">
        <ele>54</ele>
        <time>2017-11-21T14:48:15Z</time>
      </trkpt>
      <trkpt lat="49.4142" lon="1.20125">
        <ele>56</ele>
        <time>2017-11-21T14:48:31Z</time>
      </trkpt>
      <trkpt lat="49.41419" lon="1.20133">
        <ele>56</ele>
        <time>2017-11-21T14:48:31Z</time>
      </trkpt>
      <trkpt lat="49.41419" lon="1.20141">
        <ele>56</ele>
        <time>2017-11-21T14:48:31Z</time>
      </trkpt>
      <trkpt lat="49.41419" lon="1.20148">
        <ele>56</ele>
        <time>2017-11-21T14:48:31Z</time>
      </trkpt>
      <trkpt lat="49.41418" lon="1.20155">
        <ele>56</ele>
        <time>2017-11-21T14:48:47Z</time>
      </trkpt>
      <trkpt lat="49.41418" lon="1.20163">
        <ele>56</ele>
        <time>2017-11-21T14:48:47Z</time>
      </trkpt>
      <trkpt lat="49.41417" lon="1.2017">
        <ele>56</ele>
        <time>2017-11-21T14:48:47Z</time>
      </trkpt>
      <trkpt lat="49.41417" lon="1.20177">
        <ele>56</ele>
        <time>2017-11-21T14:48:47Z</time>
      </trkpt>
      <trkpt lat="49.41417" lon="1.20185">
        <ele>56</ele>
        <time>2017-11-21T14:49:03Z</time>
      </trkpt>
      <trkpt lat="49.41417" lon="1.20193">
        <ele>56</ele>
        <time>2017-11-21T14:49:03Z</time>
      </trkpt>
      <trkpt lat="49.41416" lon="1.20201">
        <ele>56</ele>
        <time>2017-11-21T14:49:03Z</time>
      </trkpt>
      <trkpt lat="49.41416" lon="1.20209">
        <ele>56</ele>
        <time>2017-11-21T14:49:03Z</time>
      </trkpt>
      <trkpt lat="49.41416" lon="1.20216">
        <ele>56</ele>
        <time>2017-11-21T14:49:19Z</time>
      </trkpt>
      <trkpt lat="49.41416" lon="1.20224">
        <ele>56</ele>
        <time>2017-11-21T14:49:19Z</time>
      </trkpt>
      <trkpt lat="49.41416" lon="1.20232">
        <ele>56</ele>
        <time>2017-11-21T14:49:19Z</time>
      </trkpt>
      <trkpt lat="49.41416" lon="1.20239">
        <ele>56</ele>
        <time>2017-11-21T14:49:19Z</time>
      </trkpt>
      <trkpt lat="49.41416" lon="1.20247">
        <ele>56</ele>
        <time>2017-11-21T14:49:35Z</time>
      </trkpt>
      <trkpt lat="49.41417" lon="1.20254">
        <ele>56</ele>
        <time>2017-11-21T14:49:35Z</time>
      </trkpt>
      <trkpt lat="49.41417" lon="1.20262">
        <ele>56</ele>
        <time>2017-11-21T14:49:35Z</time>
      </trkpt>
      <trkpt lat="49.41417" lon="1.20269">
        <ele>56</ele>
        <time>2017-11-21T14:49:35Z</time>
      </trkpt>
      <trkpt lat="49.41418" lon="1.20277">
        <ele>56</ele>
        <time>2017-11-21T14:49:51Z</time>
      </trkpt>
      <trkpt lat="49.41418" lon="1.20284">
        <ele>56</ele>
        <time>2017-11-21T14:49:51Z</time>
      </trkpt>
      <trkpt lat="49.41419" lon="1.20292">
        <ele>55</ele>
        <time>2017-11-21T14:49:51Z</time>
      </trkpt>
      <trkpt lat="49.4142" lon="1.20299">
        <ele>55</ele>
        <time>2017-11-21T14:49:51Z</time>
      </trkpt>
      <trkpt lat="49.4142" lon="1.20307">
        <ele>55</ele>
        <time>2017-11-21T14:50:07Z</time>
      </trkpt>
      <trkpt lat="49.41422" lon="1.20315">
        <ele>55</ele>
        <time>2017-11-21T14:50:07Z</time>
      </trkpt>
      <trkpt lat="49.41422" lon="1.20322">
        <ele>55</ele>
        <time>2017-11-21T14:50:07Z</time>
      </trkpt>
      <trkpt lat="49.41424" lon="1.20329">
        <ele>55</ele>
        <time>2017-11-21T14:50:07Z</time>
      </trkpt>
      <trkpt lat="49.41425" lon="1.20336">
        <ele>55</ele>
        <time>2017-11-21T14:50:23Z</time>
      </trkpt>
      <trkpt lat="49.41426" lon="1.20343">
        <ele>55</ele>
        <time>2017-11-21T14:50:23Z</time>
      </trkpt>
      <trkpt lat="49.41427" lon="1.2035">
        <ele>55</ele>
        <time>2017-11-21T14:50:23Z</time>
      </trkpt>
      <trkpt lat="49.41428" lon="1.20358">
        <ele>55</ele>
        <time>2017-11-21T14:50:23Z</time>
      </trkpt>
      <trkpt lat="49.41429" lon="1.20365">
        <ele>55</ele>
        <time>2017-11-21T14:50:39Z</time>
      </trkpt>
      <trkpt lat="49.41431" lon="1.20373">
        <ele>55</ele>
        <time>2017-11-21T14:50:39Z</time>
      </trkpt>
      <trkpt lat="49.41432" lon="1.2038">
        <ele>55</ele>
        <time>2017-11-21T14:50:39Z</time>
      </trkpt>
      <trkpt lat="49.41433" lon="1.20388">
        <ele>55</ele>
        <time>2017-11-21T14:50:39Z</time>
      </trkpt>
      <trkpt lat="49.41434" lon="1.20395">
        <ele>55</ele>
        <time>2017-11-21T14:50:55Z</time>
      </trkpt>
      <trkpt lat="49.41435" lon="1.20402">
        <ele>55</ele>
        <time>2017-11-21T14:50:55Z</time>
      </trkpt>
      <trkpt lat="49.41437" lon="1.2041">
        <ele>55</ele>
        <time>2017-11-21T14:50:55Z</time>
      </trkpt>
      <trkpt lat="49.41438" lon="1.20417">
        <ele>55</ele>
        <time>2017-11-21T14:50:55Z</time>
      </trkpt>
      <trkpt lat="49.4144" lon="1.20424">
        <ele>55</ele>
        <time>2017-11-21T14:51:11Z</time>
      </trkpt>
      <trkpt lat="49.41441" lon="1.20431">
        <ele>55</ele>
        <time>2017-11-21T14:51:11Z</time>
      </trkpt>
      <trkpt lat="49.41442" lon="1.20439">
        <ele>55</ele>
        <time>2017-11-21T14:51:11Z</time>
      </trkpt>
      <trkpt lat="49.41444" lon="1.20447">
        <ele>55</ele>
        <time>2017-11-21T14:51:11Z</time>
      </trkpt>
      <trkpt lat="49.41446" lon="1.20454">
        <ele>55</ele>
        <time>2017-11-21T14:51:27Z</time>
      </trkpt>
      <trkpt lat="49.41447" lon="1.20461">
        <ele>57</ele>
        <time>2017-11-21T14:51:27Z</time>
      </trkpt>
      <trkpt lat="49.41448" lon="1.20468">
        <ele>57</ele>
        <time>2017-11-21T14:51:27Z</time>
      </trkpt>
      <trkpt lat="49.4145" lon="1.20476">
        <ele>57</ele>
        <time>2017-11-21T14:51:27Z</time>
      </trkpt>
      <trkpt lat="49.41451" lon="1.20483">
        <ele>57</ele>
        <time>2017-11-21T14:51:43Z</time>
      </trkpt>
      <trkpt lat="49.41452" lon="1.2049">
        <ele>57</ele>
        <time>2017-11-21T14:51:43Z</time>
      </trkpt>
      <trkpt lat="49.41453" lon="1.20498">
        <ele>57</ele>
        <time>2017-11-21T14:51:43Z</time>
      </trkpt>
      <trkpt lat="49.41454" lon="1.20505">
        <ele>57</ele>
        <time>2017-11-21T14:51:43Z</time>
      </trkpt>
      <trkpt lat="49.41456" lon="1.20512">
        <ele>57</ele>
        <time>2017-11-21T14:51:59Z</time>
      </trkpt>
      <trkpt lat="49.41458" lon="1.20519">
        <ele>57</ele>
        <time>2017-11-21T14:51:59Z</time>
      </trkpt>
      <trkpt lat="49.41459" lon="1.20527">
        <ele>57</ele>
        <time>2017-11-21T14:51:59Z</time>
      </trkpt>
      <trkpt lat="49.41461" lon="1.20534">
        <ele>57</ele>
        <time>2017-11-21T14:51:59Z</time>
      </trkpt>
      <trkpt lat="49.41461" lon="1.20542">
        <ele>58</ele>
        <time>2017-11-21T14:52:15Z</time>
      </trkpt>
      <trkpt lat="49.41463" lon="1.2055">
        <ele>58</ele>
        <time>2017-11-21T14:52:15Z</time>
      </trkpt>
      <trkpt lat="49.41464" lon="1.20557">
        <ele>58</ele>
        <time>2017-11-21T14:52:15Z</time>
      </trkpt>
      <trkpt lat="49.41465" lon="1.20564">
        <ele>58</ele>
        <time>2017-11-21T14:52:15Z</time>
      </trkpt>
      <trkpt lat="49.41466" lon="1.20571">
        <ele>58</ele>
        <time>2017-11-21T14:52:31Z</time>
      </trkpt>
      <trkpt lat="49.41468" lon="1.20577">
        <ele>58</ele>
        <time>2017-11-21T14:52:31Z</time>
      </trkpt>
      <trkpt lat="49.41469" lon="1.20584">
        <ele>58</ele>
        <time>2017-11-21T14:52:31Z</time>
      </trkpt>
      <trkpt lat="49.41471" lon="1.20591">
        <ele>58</ele>
        <time>2017-11-21T14:52:31Z</time>
      </trkpt>
      <trkpt lat="49.41472" lon="1.20599">
        <ele>58</ele>
        <time>2017-11-21T14:52:47Z</time>
      </trkpt>
      <trkpt lat="49.41472" lon="1.20607">
        <ele>58</ele>
        <time>2017-11-21T14:52:47Z</time>
      </trkpt>
      <trkpt lat="49.41473" lon="1.20614">
        <ele>58</ele>
        <time>2017-11-21T14:52:47Z</time>
      </trkpt>
      <trkpt lat="49.41475" lon="1.20621">
        <ele>58</ele>
        <time>2017-11-21T14:52:47Z</time>
      </trkpt>
      <trkpt lat="49.41476" lon="1.20628">
        <ele>58</ele>
        <time>2017-11-21T14:53:03Z</time>
      </trkpt>
      <trkpt lat="49.41476" lon="1.20635">
        <ele>58</ele>
        <time>2017-11-21T14:53:03Z</time>
      </trkpt>
      <trkpt lat="49.41475" lon="1.20643">
        <ele>58</ele>
        <time>2017-11-21T14:53:03Z</time>
      </trkpt>
      <trkpt lat="49.41475" lon="1.20651">
        <ele>58</ele>
        <time>2017-11-21T14:53:03Z</time>
      </trkpt>
      <trkpt lat="49.41477" lon="1.20658">
        <ele>58</ele>
        <time>2017-11-21T14:53:19Z</time>
      </trkpt>
      <trkpt lat="49.4148" lon="1.20662">
        <ele>58</ele>
        <time>2017-11-21T14:53:19Z</time>
      </trkpt>
      <trkpt lat="49.41484" lon="1.20663">
        <ele>58</ele>
        <time>2017-11-21T14:53:19Z</time>
      </trkpt>
      <trkpt lat="49.41487" lon="1.20667">
        <ele>58</ele>
        <time>2017-11-21T14:53:19Z</time>
      </trkpt>
      <trkpt lat="49.41487" lon="1.20674">
        <ele>58</ele>
        <time>2017-11-21T14:53:35Z</time>
      </trkpt>
      <trkpt lat="49.41488" lon="1.20681">
        <ele>58</ele>
        <time>2017-11-21T14:53:35Z</time>
      </trkpt>
      <trkpt lat="49.4149" lon="1.20687">
        <ele>58</ele>
        <time>2017-11-21T14:53:35Z</time>
      </trkpt>
      <trkpt lat="49.4149" lon="1.20695">
        <ele>58</ele>
        <time>2017-11-21T14:53:35Z</time>
      </trkpt>
      <trkpt lat="49.41491" lon="1.20702">
        <ele>58</ele>
        <time>2017-11-21T14:53:51Z</time>
      </trkpt>
      <trkpt lat="49.41492" lon="1.20709">
        <ele>58</ele>
        <time>2017-11-21T14:53:51Z</time>
      </trkpt>
      <trkpt lat="49.41493" lon="1.20716">
        <ele>58</ele>
        <time>2017-11-21T14:53:51Z</time>
      </trkpt>
      <trkpt lat="49.41494" lon="1.20723">
        <ele>58</ele>
        <time>2017-11-21T14:53:51Z</time>
      </trkpt>
      <trkpt lat="49.41495" lon="1.20731">
        <ele>58</ele>
        <time>2017-11-21T14:54:07Z</time>
      </trkpt>
      <trkpt lat="49.41495" lon="1.20739">
        <ele>58</ele>
        <time>2017-11-21T14:54:07Z</time>
      </trkpt>
      <trkpt lat="49.41496" lon="1.20746">
        <ele>58</ele>
        <time>2017-11-21T14:54:07Z</time>
      </trkpt>
      <trkpt lat="49.41498" lon="1.20753">
        <ele>58</ele>
        <time>2017-11-21T14:54:07Z</time>
      </trkpt>
      <trkpt lat="49.41499" lon="1.2076">
        <ele>58</ele>
        <time>2017-11-21T14:54:23Z</time>
      </trkpt>
      <trkpt lat="49.415" lon="1.20768">
        <ele>58</ele>
        <time>2017-11-21T14:54:23Z</time>
      </trkpt>
      <trkpt lat="49.41502" lon="1.20774">
        <ele>58</ele>
        <time>2017-11-21T14:54:23Z</time>
      </trkpt>
      <trkpt lat="49.41503" lon="1.20781">
        <ele>58</ele>
        <time>2017-11-21T14:54:23Z</time>
      </trkpt>
      <trkpt lat="49.41504" lon="1.20788">
        <ele>58</ele>
        <time>2017-11-21T14:54:39Z</time>
      </trkpt>
      <trkpt lat="49.41505" lon="1.20796">
        <ele>61</ele>
        <time>2017-11-21T14:54:39Z</time>
      </trkpt>
      <trkpt lat="49.41506" lon="1.20803">
        <ele>61</ele>
        <time>2017-11-21T14:54:39Z</time>
      </trkpt>
      <trkpt lat="49.41507" lon="1.2081">
        <ele>61</ele>
        <time>2017-11-21T14:54:39Z</time>
      </trkpt>
      <trkpt lat="49.41508" lon="1.20817">
        <ele>61</ele>
        <time>2017-11-21T14:54:55Z</time>
      </trkpt>
      <trkpt lat="49.41508" lon="1.20823">
        <ele>61</ele>
        <time>2017-11-21T14:54:55Z</time>
      </trkpt>
      <trkpt lat="49.41509" lon="1.2083">
        <ele>61</ele>
        <time>2017-11-21T14:54:55Z</time>
      </trkpt>
      <trkpt lat="49.41509" lon="1.20836">
        <ele>61</ele>
        <time>2017-11-21T14:54:55Z</time>
      </trkpt>
      <trkpt lat="49.4151" lon="1.20843">
        <ele>61</ele>
        <time>2017-11-21T14:55:11Z</time>
      </trkpt>
      <trkpt lat="49.41511" lon="1.20849">
        <ele>61</ele>
        <time>2017-11-21T14:55:11Z</time>
      </trkpt>
      <trkpt lat="49.41513" lon="1.20856">
        <ele>61</ele>
        <time>2017-11-21T14:55:11Z</time>
      </trkpt>
      <trkpt lat="49.41514" lon="1.20863">
        <ele>61</ele>
        <time>2017-11-21T14:55:11Z</time>
      </trkpt>
      <trkpt lat="49.41515" lon="1.20871">
        <ele>61</ele>
        <time>2017-11-21T14:55:27Z</time>
      </trkpt>
      <trkpt lat="49.41516" lon="1.20878">
        <ele>63</ele>
        <time>2017-11-21T14:55:27Z</time>
      </trkpt>
      <trkpt lat="49.41517" lon="1.20885">
        <ele>63</ele>
        <time>2017-11-21T14:55:27Z</time>
      </trkpt>
      <trkpt lat="49.41518" lon="1.20892">
        <ele>63</ele>
        <time>2017-11-21T14:55:27Z</time>
      </trkpt>
      <trkpt lat="49.41515" lon="1.20897">
        <ele>63</ele>
        <time>2017-11-21T15:02:31Z</time>
      </trkpt>
      <trkpt lat="49.41514" lon="1.20897">
        <ele>63</ele>
        <time>2017-11-21T15:02:31Z</time>
      </trkpt>
      <trkpt lat="49.41512" lon="1.20899">
        <ele>63</ele>
        <time>2017-11-21T15:02:31Z</time>
      </trkpt>
      <trkpt lat="49.41508" lon="1.20898">
        <ele>63</ele>
        <time>2017-11-21T15:02:31Z</time>
      </trkpt>
      <trkpt lat="49.41503" lon="1.20896">
        <ele>63</ele>
        <time>2017-11-21T15:02:31Z</time>
      </trkpt>
      <trkpt lat="49.41499" lon="1.20894">
        <ele>63</ele>
        <time>2017-11-21T15:02:47Z</time>
      </trkpt>
      <trkpt lat="49.41494" lon="1.20893">
        <ele>63</ele>
        <time>2017-11-21T15:02:47Z</time>
      </trkpt>
      <trkpt lat="49.41489" lon="1.20891">
        <ele>63</ele>
        <time>2017-11-21T15:02:47Z</time>
      </trkpt>
      <trkpt lat="49.41484" lon="1.2089">
        <ele>63</ele>
        <time>2017-11-21T15:02:47Z</time>
      </trkpt>
      <trkpt lat="49.4148" lon="1.20888">
        <ele>63</ele>
        <time>2017-11-21T15:03:03Z</time>
      </trkpt>
      <trkpt lat="49.41475" lon="1.20886">
        <ele>63</ele>
        <time>2017-11-21T15:03:03Z</time>
      </trkpt>
      <trkpt lat="49.41471" lon="1.20885">
        <ele>63</ele>
        <time>2017-11-21T15:03:03Z</time>
      </trkpt>
      <trkpt lat="49.41466" lon="1.20883">
        <ele>63</ele>
        <time>2017-11-21T15:03:03Z</time>
      </trkpt>
      <trkpt lat="49.41462" lon="1.20881">
        <ele>63</ele>
        <time>2017-11-21T15:03:19Z</time>
      </trkpt>
      <trkpt lat="49.41457" lon="1.20881">
        <ele>65</ele>
        <time>2017-11-21T15:03:19Z</time>
      </trkpt>
      <trkpt lat="49.41452" lon="1.2088">
        <ele>65</ele>
        <time>2017-11-21T15:03:19Z</time>
      </trkpt>
      <trkpt lat="49.41447" lon="1.20879">
        <ele>65</ele>
        <time>2017-11-21T15:03:19Z</time>
      </trkpt>
      <trkpt lat="49.41443" lon="1.20877">
        <ele>65</ele>
        <time>2017-11-21T15:03:35Z</time>
      </trkpt>
      <trkpt lat="49.41439" lon="1.20875">
        <ele>65</ele>
        <time>2017-11-21T15:03:35Z</time>
      </trkpt>
      <trkpt lat="49.41435" lon="1.20874">
        <ele>65</ele>
        <time>2017-11-21T15:03:35Z</time>
      </trkpt>
      <trkpt lat="49.41431" lon="1.20874">
        <ele>65</ele>
        <time>2017-11-21T15:03:35Z</time>
      </trkpt>
      <trkpt lat="49.41429" lon="1.20879">
        <ele>65</ele>
        <time>2017-11-21T15:03:51Z</time>
      </trkpt>
      <trkpt lat="49.41428" lon="1.20885">
        <ele>65</ele>
        <time>2017-11-21T15:03:51Z</time>
      </trkpt>
      <trkpt lat="49.41427" lon="1.20891">
        <ele>65</ele>
        <time>2017-11-21T15:03:51Z</time>
      </trkpt>
      <trkpt lat="49.41426" lon="1.20897">
        <ele>65</ele>
        <time>2017-11-21T15:03:51Z</time>
      </trkpt>
      <trkpt lat="49.41425" lon="1.20904">
        <ele>65</ele>
        <time>2017-11-21T15:04:07Z</time>
      </trkpt>
      <trkpt lat="49.41424" lon="1.20911">
        <ele>65</ele>
        <time>2017-11-21T15:04:07Z</time>
      </trkpt>
      <trkpt lat="49.41422" lon="1.20918">
        <ele>65</ele>
        <time>2017-11-21T15:04:07Z</time>
      </trkpt>
      <trkpt lat="49.41421" lon="1.20926">
        <ele>65</ele>
        <time>2017-11-21T15:04:07Z</time>
      </trkpt>
      <trkpt lat="49.4142" lon="1.20933">
        <ele>65</ele>
        <time>2017-11-21T15:04:23Z</time>
      </trkpt>
      <trkpt lat="49.41418" lon="1.2094">
        <ele>65</ele>
        <time>2017-11-21T15:04:23Z</time>
      </trkpt>
      <trkpt lat="49.41417" lon="1.20947">
        <ele>65</ele>
        <time>2017-11-21T15:04:23Z</time>
      </trkpt>
      <trkpt lat="49.41416" lon="1.20954">
        <ele>65</ele>
        <time>2017-11-21T15:04:23Z</time>
      </trkpt>
      <trkpt lat="49.41414" lon="1.20961">
        <ele>65</ele>
        <time>2017-11-21T15:04:39Z</time>
      </trkpt>
      <trkpt lat="49.41413" lon="1.20968">
        <ele>65</ele>
        <time>2017-11-21T15:04:39Z</time>
      </trkpt>
      <trkpt lat="49.41412" lon="1.20974">
        <ele>65</ele>
        <time>2017-11-21T15:04:39Z</time>
      </trkpt>
      <trkpt lat="49.4141" lon="1.20981">
        <ele>65</ele>
        <time>2017-11-21T15:04:39Z</time>
      </trkpt>
      <trkpt lat="49.41409" lon="1.20986">
        <ele>65</ele>
        <time>2017-11-21T15:04:55Z</time>
      </trkpt>
      <trkpt lat="49.41409" lon="1.20991">
        <ele>65</ele>
        <time>2017-11-21T15:04:55Z</time>
      </trkpt>
      <trkpt lat="49.41408" lon="1.20997">
        <ele>65</ele>
        <time>2017-11-21T15:04:55Z</time>
      </trkpt>
      <trkpt lat="49.41408" lon="1.21005">
        <ele>65</ele>
        <time>2017-11-21T15:04:55Z</time>
      </trkpt>
      <trkpt lat="49.41408" lon="1.21013">
        <ele>65</ele>
        <time>2017-11-21T15:05:11Z</time>
      </trkpt>
      <trkpt lat="49.41408" lon="1.21021">
        <ele>65</ele>
        <time>2017-11-21T15:05:11Z</time>
      </trkpt>
      <trkpt lat="49.41407" lon="1.21029">
        <ele>65</ele>
        <time>2017-11-21T15:05:11Z</time>
      </trkpt>
      <trkpt lat="49.41406" lon="1.21037">
        <ele>65</ele>
        <time>2017-11-21T15:05:11Z</time>
      </trkpt>
      <trkpt lat="49.41406" lon="1.21044">
        <ele>68</ele>
        <time>2017-11-21T15:05:27Z</time>
      </trkpt>
      <trkpt lat="49.41406" lon="1.21051">
        <ele>68</ele>
        <time>2017-11-21T15:05:27Z</time>
      </trkpt>
      <trkpt lat="49.41407" lon="1.21059">
        <ele>68</ele>
        <time>2017-11-21T15:05:27Z</time>
      </trkpt>
      <trkpt lat="49.41408" lon="1.21066">
        <ele>68</ele>
        <time>2017-11-21T15:05:27Z</time>
      </trkpt>
      <trkpt lat="49.41409" lon="1.21073">
        <ele>68</ele>
        <time>2017-11-21T15:05:43Z</time>
      </trkpt>
      <trkpt lat="49.41409" lon="1.2108">
        <ele>68</ele>
        <time>2017-11-21T15:05:43Z</time>
      </trkpt>
      <trkpt lat="49.41409" lon="1.21086">
        <ele>68</ele>
        <time>2017-11-21T15:05:43Z</time>
      </trkpt>
      <trkpt lat="49.4141" lon="1.21093">
        <ele>68</ele>
        <time>2017-11-21T15:05:43Z</time>
      </trkpt>
      <trkpt lat="49.41409" lon="1.21099">
        <ele>68</ele>
        <time>2017-11-21T15:05:59Z</time>
      </trkpt>
      <trkpt lat="49.41409" lon="1.21105">
        <ele>68</ele>
        <time>2017-11-21T15:05:59Z</time>
      </trkpt>
      <trkpt lat="49.41407" lon="1.21112">
        <ele>68</ele>
        <time>2017-11-21T15:05:59Z</time>
      </trkpt>
      <trkpt lat="49.41407" lon="1.21118">
        <ele>68</ele>
        <time>2017-11-21T15:05:59Z</time>
      </trkpt>
      <trkpt lat="49.41407" lon="1.21125">
        <ele>68</ele>
        <time>2017-11-21T15:06:15Z</time>
      </trkpt>
      <trkpt lat="49.41407" lon="1.21131">
        <ele>72</ele>
        <time>2017-11-21T15:06:15Z</time>
      </trkpt>
      <trkpt lat="49.41407" lon="1.21137">
        <ele>72</ele>
        <time>2017-11-21T15:06:15Z</time>
      </trkpt>
      <trkpt lat="49.41407" lon="1.21144">
        <ele>72</ele>
        <time>2017-11-21T15:06:15Z</time>
      </trkpt>
      <trkpt lat="49.41407" lon="1.21151">
        <ele>72</ele>
        <time>2017-11-21T15:06:31Z</time>
      </trkpt>
      <trkpt lat="49.41406" lon="1.21157">
        <ele>72</ele>
        <time>2017-11-21T15:06:31Z</time>
      </trkpt>
      <trkpt lat="49.41405" lon="1.21165">
        <ele>72</ele>
        <time>2017-11-21T15:06:31Z</time>
      </trkpt>
      <trkpt lat="49.41404" lon="1.21171">
        <ele>72</ele>
        <time>2017-11-21T15:06:31Z</time>
      </trkpt>
      <trkpt lat="49.41404" lon="1.21178">
        <ele>72</ele>
        <time>2017-11-21T15:06:47Z</time>
      </trkpt>
      <trkpt lat="49.41403" lon="1.21185">
        <ele>72</ele>
        <time>2017-11-21T15:06:47Z</time>
      </trkpt>
      <trkpt lat="49.41403" lon="1.21191">
        <ele>72</ele>
        <time>2017-11-21T15:06:47Z</time>
      </trkpt>
      <trkpt lat="49.41403" lon="1.21197">
        <ele>72</ele>
        <time>2017-11-21T15:06:47Z</time>
      </trkpt>
      <trkpt lat="49.41402" lon="1.21204">
        <ele>72</ele>
        <time>2017-11-21T15:07:03Z</time>
      </trkpt>
      <trkpt lat="49.41402" lon="1.21211">
        <ele>75</ele>
        <time>2017-11-21T15:07:03Z</time>
      </trkpt>
      <trkpt lat="49.41402" lon="1.21218">
        <ele>75</ele>
        <time>2017-11-21T15:07:03Z</time>
      </trkpt>
      <trkpt lat="49.41401" lon="1.21225">
        <ele>75</ele>
        <time>2017-11-21T15:07:03Z</time>
      </trkpt>
      <trkpt lat="49.41401" lon="1.21231">
        <ele>75</ele>
        <time>2017-11-21T15:07:19Z</time>
      </trkpt>
      <trkpt lat="49.41401" lon="1.21238">
        <ele>75</ele>
        <time>2017-11-21T15:07:19Z</time>
      </trkpt>
      <trkpt lat="49.414" lon="1.21245">
        <ele>75</ele>
        <time>2017-11-21T15:07:19Z</time>
      </trkpt>
      <trkpt lat="49.414" lon="1.21251">
        <ele>75</ele>
        <time>2017-11-21T15:07:19Z</time>
      </trkpt>
      <trkpt lat="49.41399" lon="1.21258">
        <ele>75</ele>
        <time>2017-11-21T15:07:35Z</time>
      </trkpt>
      <trkpt lat="49.41399" lon="1.21265">
        <ele>75</ele>
        <time>2017-11-21T15:07:35Z</time>
      </trkpt>
      <trkpt lat="49.41398" lon="1.21272">
        <ele>75</ele>
        <time>2017-11-21T15:07:35Z</time>
      </trkpt>
      <trkpt lat="49.41397" lon="1.21279">
        <ele>75</ele>
        <time>2017-11-21T15:07:35Z</time>
      </trkpt>
      <trkpt lat="49.41397" lon="1.21285">
        <ele>75</ele>
        <time>2017-11-21T15:07:51Z</time>
      </trkpt>
      <trkpt lat="49.41396" lon="1.21292">
        <ele>74</ele>
        <time>2017-11-21T15:07:51Z</time>
      </trkpt>
      <trkpt lat="49.41395" lon="1.21298">
        <ele>74</ele>
        <time>2017-11-21T15:07:51Z</time>
      </trkpt>
      <trkpt lat="49.41394" lon="1.21305">
        <ele>74</ele>
        <time>2017-11-21T15:07:51Z</time>
      </trkpt>
      <trkpt lat="49.41394" lon="1.21311">
        <ele>74</ele>
        <time>2017-11-21T15:08:07Z</time>
      </trkpt>
      <trkpt lat="49.41392" lon="1.21317">
        <ele>74</ele>
        <time>2017-11-21T15:08:07Z</time>
      </trkpt>
      <trkpt lat="49.41391" lon="1.21323">
        <ele>74</ele>
        <time>2017-11-21T15:08:07Z</time>
      </trkpt>
      <trkpt lat="49.4139" lon="1.21329">
        <ele>74</ele>
        <time>2017-11-21T15:08:07Z</time>
      </trkpt>
      <trkpt lat="49.41389" lon="1.21335">
        <ele>74</ele>
        <time>2017-11-21T15:08:23Z</time>
      </trkpt>
      <trkpt lat="49.41388" lon="1.21341">
        <ele>74</ele>
        <time>2017-11-21T15:08:23Z</time>
      </trkpt>
      <trkpt lat="49.41386" lon="1.21346">
        <ele>74</ele>
        <time>2017-11-21T15:08:23Z</time>
      </trkpt>
      <trkpt lat="49.41385" lon="1.21352">
        <ele>74</ele>
        <time>2017-11-21T15:08:23Z</time>
      </trkpt>
      <trkpt lat="49.41384" lon="1.21357">
        <ele>74</ele>
        <time>2017-11-21T15:08:39Z</time>
      </trkpt>
      <trkpt lat="49.41382" lon="1.21362">
        <ele>74</ele>
        <time>2017-11-21T15:08:39Z</time>
      </trkpt>
      <trkpt lat="49.4138" lon="1.21366">
        <ele>74</ele>
        <time>2017-11-21T15:08:39Z</time>
      </trkpt>
      <trkpt lat="49.41379" lon="1.21371">
        <ele>74</ele>
        <time>2017-11-21T15:08:39Z</time>
      </trkpt>
      <trkpt lat="49.41377" lon="1.21377">
        <ele>75</ele>
        <time>2017-11-21T15:08:55Z</time>
      </trkpt>
      <trkpt lat="49.41375" lon="1.21382">
        <ele>75</ele>
        <time>2017-11-21T15:08:55Z</time>
      </trkpt>
      <trkpt lat="49.41375" lon="1.21387">
        <ele>93</ele>
        <time>2017-11-21T15:08:55Z</time>
      </trkpt>
      <trkpt lat="49.41373" lon="1.21391">
        <ele>93</ele>
        <time>2017-11-21T15:08:55Z</time>
      </trkpt>
      <trkpt lat="49.41372" lon="1.21396">
        <ele>93</ele>
        <time>2017-11-21T15:09:11Z</time>
      </trkpt>
      <trkpt lat="49.41371" lon="1.214">
        <ele>93</ele>
        <time>2017-11-21T15:09:11Z</time>
      </trkpt>
      <trkpt lat="49.41371" lon="1.21405">
        <ele>93</ele>
        <time>2017-11-21T15:09:11Z</time>
      </trkpt>
      <trkpt lat="49.4137" lon="1.21409">
        <ele>93</ele>
        <time>2017-11-21T15:09:11Z</time>
      </trkpt>
      <trkpt lat="49.41369" lon="1.21414">
        <ele>93</ele>
        <time>2017-11-21T15:09:27Z</time>
      </trkpt>
      <trkpt lat="49.41367" lon="1.2142">
        <ele>93</ele>
        <time>2017-11-21T15:09:27Z</time>
      </trkpt>
      <trkpt lat="49.41366" lon="1.21427">
        <ele>93</ele>
        <time>2017-11-21T15:09:27Z</time>
      </trkpt>
      <trkpt lat="49.41365" lon="1.21433">
        <ele>93</ele>
        <time>2017-11-21T15:09:27Z</time>
      </trkpt>
      <trkpt lat="49.41364" lon="1.21438">
        <ele>93</ele>
        <time>2017-11-21T15:09:43Z</time>
      </trkpt>
      <trkpt lat="49.41364" lon="1.21445">
        <ele>93</ele>
        <time>2017-11-21T15:09:43Z</time>
      </trkpt>
      <trkpt lat="49.41363" lon="1.21452">
        <ele>93</ele>
        <time>2017-11-21T15:09:43Z</time>
      </trkpt>
      <trkpt lat="49.41362" lon="1.21458">
        <ele>93</ele>
        <time>2017-11-21T15:09:43Z</time>
      </trkpt>
      <trkpt lat="49.41361" lon="1.21464">
        <ele>95</ele>
        <time>2017-11-21T15:09:59Z</time>
      </trkpt>
      <trkpt lat="49.41359" lon="1.2147">
        <ele>95</ele>
        <time>2017-11-21T15:09:59Z</time>
      </trkpt>
      <trkpt lat="49.41356" lon="1.21476">
        <ele>95</ele>
        <time>2017-11-21T15:09:59Z</time>
      </trkpt>
      <trkpt lat="49.41353" lon="1.21481">
        <ele>95</ele>
        <time>2017-11-21T15:09:59Z</time>
      </trkpt>
      <trkpt lat="49.41349" lon="1.21484">
        <ele>95</ele>
        <time>2017-11-21T15:10:15Z</time>
      </trkpt>
      <trkpt lat="49.41345" lon="1.21484">
        <ele>95</ele>
        <time>2017-11-21T15:10:15Z</time>
      </trkpt>
      <trkpt lat="49.41341" lon="1.21483">
        <ele>95</ele>
        <time>2017-11-21T15:10:15Z</time>
      </trkpt>
      <trkpt lat="49.41337" lon="1.21481">
        <ele>95</ele>
        <time>2017-11-21T15:10:15Z</time>
      </trkpt>
      <trkpt lat="49.41333" lon="1.21478">
        <ele>95</ele>
        <time>2017-11-21T15:10:31Z</time>
      </trkpt>
      <trkpt lat="49.4133" lon="1.21475">
        <ele>95</ele>
        <time>2017-11-21T15:10:31Z</time>
      </trkpt>
      <trkpt lat="49.41327" lon="1.21471">
        <ele>95</ele>
        <time>2017-11-21T15:10:31Z</time>
      </trkpt>
      <trkpt lat="49.41324" lon="1.21467">
        <ele>95</ele>
        <time>2017-11-21T15:10:31Z</time>
      </trkpt>
      <trkpt lat="49.41321" lon="1.21462">
        <ele>95</ele>
        <time>2017-11-21T15:10:47Z</time>
      </trkpt>
      <trkpt lat="49.41318" lon="1.21458">
        <ele>93</ele>
        <time>2017-11-21T15:10:47Z</time>
      </trkpt>
      <trkpt lat="49.41315" lon="1.21453">
        <ele>93</ele>
        <time>2017-11-21T15:10:47Z</time>
      </trkpt>
      <trkpt lat="49.41311" lon="1.21449">
        <ele>93</ele>
        <time>2017-11-21T15:10:47Z</time>
      </trkpt>
      <trkpt lat="49.41308" lon="1.21445">
        <ele>93</ele>
        <time>2017-11-21T15:11:03Z</time>
      </trkpt>
      <trkpt lat="49.41306" lon="1.2144">
        <ele>93</ele>
        <time>2017-11-21T15:11:03Z</time>
      </trkpt>
      <trkpt lat="49.41303" lon="1.21435">
        <ele>93</ele>
        <time>2017-11-21T15:11:03Z</time>
      </trkpt>
      <trkpt lat="49.413" lon="1.2143">
        <ele>93</ele>
        <time>2017-11-21T15:11:03Z</time>
      </trkpt>
      <trkpt lat="49.41298" lon="1.21426">
        <ele>93</ele>
        <time>2017-11-21T15:11:19Z</time>
      </trkpt>
      <trkpt lat="49.41295" lon="1.21422">
        <ele>93</ele>
        <time>2017-11-21T15:11:19Z</time>
      </trkpt>
      <trkpt lat="49.41291" lon="1.21419">
        <ele>106</ele>
        <time>2017-11-21T15:11:19Z</time>
      </trkpt>
      <trkpt lat="49.41287" lon="1.21417">
        <ele>106</ele>
        <time>2017-11-21T15:11:19Z</time>
      </trkpt>
      <trkpt lat="49.41284" lon="1.21416">
        <ele>106</ele>
        <time>2017-11-21T15:11:35Z</time>
      </trkpt>
      <trkpt lat="49.4128" lon="1.21416">
        <ele>106</ele>
        <time>2017-11-21T15:11:35Z</time>
      </trkpt>
      <trkpt lat="49.41276" lon="1.21415">
        <ele>106</ele>
        <time>2017-11-21T15:11:35Z</time>
      </trkpt>
      <trkpt lat="49.41272" lon="1.21414">
        <ele>106</ele>
        <time>2017-11-21T15:11:35Z</time>
      </trkpt>
      <trkpt lat="49.41268" lon="1.21413">
        <ele>106</ele>
        <time>2017-11-21T15:11:51Z</time>
      </trkpt>
      <trkpt lat="49.41264" lon="1.21411">
        <ele>106</ele>
        <time>2017-11-21T15:11:51Z</time>
      </trkpt>
      <trkpt lat="49.4126" lon="1.2141">
        <ele>106</ele>
        <time>2017-11-21T15:11:51Z</time>
      </trkpt>
      <trkpt lat="49.41257" lon="1.21409">
        <ele>106</ele>
        <time>2017-11-21T15:11:51Z</time>
      </trkpt>
      <trkpt lat="49.41253" lon="1.21408">
        <ele>106</ele>
        <time>2017-11-21T15:12:07Z</time>
      </trkpt>
      <trkpt lat="49.41249" lon="1.21407">
        <ele>106</ele>
        <time>2017-11-21T15:12:07Z</time>
      </trkpt>
      <trkpt lat="49.41244" lon="1.21407">
        <ele>106</ele>
        <time>2017-11-21T15:12:07Z</time>
      </trkpt>
      <trkpt lat="49.4124" lon="1.21406">
        <ele>106</ele>
        <time>2017-11-21T15:12:07Z</time>
      </trkpt>
      <trkpt lat="49.41237" lon="1.21404">
        <ele>106</ele>
        <time>2017-11-21T15:12:23Z</time>
      </trkpt>
      <trkpt lat="49.41233" lon="1.21403">
        <ele>106</ele>
        <time>2017-11-21T15:12:23Z</time>
      </trkpt>
      <trkpt lat="49.41229" lon="1.21401">
        <ele>106</ele>
        <time>2017-11-21T15:12:23Z</time>
      </trkpt>
      <trkpt lat="49.41225" lon="1.214">
        <ele>106</ele>
        <time>2017-11-21T15:12:23Z</time>
      </trkpt>
      <trkpt lat="49.41221" lon="1.21398">
        <ele>106</ele>
        <time>2017-11-21T15:12:39Z</time>
      </trkpt>
      <trkpt lat="49.41217" lon="1.21396">
        <ele>106</ele>
        <time>2017-11-21T15:12:39Z</time>
      </trkpt>
      <trkpt lat="49.41214" lon="1.21395">
        <ele>106</ele>
        <time>2017-11-21T15:12:39Z</time>
      </trkpt>
      <trkpt lat="49.4121" lon="1.21394">
        <ele>106</ele>
        <time>2017-11-21T15:12:39Z</time>
      </trkpt>
      <trkpt lat="49.41206" lon="1.21392">
        <ele>119</ele>
        <time>2017-11-21T15:12:55Z</time>
      </trkpt>
      <trkpt lat="49.41202" lon="1.21391">
        <ele>119</ele>
        <time>2017-11-21T15:12:55Z</time>
      </trkpt>
      <trkpt lat="49.41199" lon="1.21388">
        <ele>119</ele>
        <time>2017-11-21T15:12:55Z</time>
      </trkpt>
      <trkpt lat="49.41195" lon="1.21387">
        <ele>119</ele>
        <time>2017-11-21T15:12:55Z</time>
      </trkpt>
      <trkpt lat="49.41191" lon="1.21385">
        <ele>119</ele>
        <time>2017-11-21T15:13:11Z</time>
      </trkpt>
      <trkpt lat="49.41188" lon="1.21384">
        <ele>119</ele>
        <time>2017-11-21T15:13:11Z</time>
      </trkpt>
      <trkpt lat="49.41184" lon="1.21381">
        <ele>119</ele>
        <time>2017-11-21T15:13:11Z</time>
      </trkpt>
      <trkpt lat="49.41179" lon="1.2138">
        <ele>119</ele>
        <time>2017-11-21T15:13:11Z</time>
      </trkpt>
      <trkpt lat="49.41175" lon="1.21378">
        <ele>119</ele>
        <time>2017-11-21T15:13:27Z</time>
      </trkpt>
      <trkpt lat="49.41172" lon="1.21377">
        <ele>119</ele>
        <time>2017-11-21T15:13:27Z</time>
      </trkpt>
      <trkpt lat="49.41168" lon="1.21375">
        <ele>119</ele>
        <time>2017-11-21T15:13:27Z</time>
      </trkpt>
      <trkpt lat="49.41165" lon="1.21373">
        <ele>122</ele>
        <time>2017-11-21T15:13:27Z</time>
      </trkpt>
      <trkpt lat="49.41161" lon="1.21371">
        <ele>122</ele>
        <time>2017-11-21T15:13:43Z</time>
      </trkpt>
      <trkpt lat="49.41158" lon="1.21369">
        <ele>122</ele>
        <time>2017-11-21T15:13:43Z</time>
      </trkpt>
      <trkpt lat="49.41155" lon="1.21368">
        <ele>122</ele>
        <time>2017-11-21T15:13:43Z</time>
      </trkpt>
      <trkpt lat="49.41152" lon="1.21367">
        <ele>122</ele>
        <time>2017-11-21T15:13:43Z</time>
      </trkpt>
      <trkpt lat="49.41147" lon="1.21367">
        <ele>122</ele>
        <time>2017-11-21T15:13:59Z</time>
      </trkpt>
      <trkpt lat="49.41143" lon="1.21368">
        <ele>122</ele>
        <time>2017-11-21T15:13:59Z</time>
      </trkpt>
      <trkpt lat="49.41138" lon="1.2137">
        <ele>122</ele>
        <time>2017-11-21T15:13:59Z</time>
      </trkpt>
      <trkpt lat="49.41134" lon="1.21373">
        <ele>122</ele>
        <time>2017-11-21T15:13:59Z</time>
      </trkpt>
      <trkpt lat="49.4113" lon="1.21376">
        <ele>119</ele>
        <time>2017-11-21T15:14:15Z</time>
      </trkpt>
      <trkpt lat="49.41127" lon="1.21379">
        <ele>119</ele>
        <time>2017-11-21T15:14:15Z</time>
      </trkpt>
      <trkpt lat="49.41123" lon="1.21382">
        <ele>128</ele>
        <time>2017-11-21T15:14:15Z</time>
      </trkpt>
      <trkpt lat="49.41119" lon="1.21384">
        <ele>128</ele>
        <time>2017-11-21T15:14:15Z</time>
      </trkpt>
      <trkpt lat="49.41116" lon="1.21386">
        <ele>128</ele>
        <time>2017-11-21T15:14:31Z</time>
      </trkpt>
      <trkpt lat="49.41113" lon="1.21387">
        <ele>128</ele>
        <time>2017-11-21T15:14:31Z</time>
      </trkpt>
      <trkpt lat="49.41107" lon="1.21388">
        <ele>128</ele>
        <time>2017-11-21T15:14:31Z</time>
      </trkpt>
      <trkpt lat="49.41103" lon="1.21388">
        <ele>128</ele>
        <time>2017-11-21T15:14:31Z</time>
      </trkpt>
      <trkpt lat="49.411" lon="1.2139">
        <ele>128</ele>
        <time>2017-11-21T15:14:47Z</time>
      </trkpt>
      <trkpt lat="49.41096" lon="1.21393">
        <ele>128</ele>
        <time>2017-11-21T15:14:47Z</time>
      </trkpt>
      <trkpt lat="49.41092" lon="1.21396">
        <ele>128</ele>
        <time>2017-11-21T15:14:47Z</time>
      </trkpt>
      <trkpt lat="49.41088" lon="1.21397">
        <ele>128</ele>
        <time>2017-11-21T15:14:47Z</time>
      </trkpt>
      <trkpt lat="49.41084" lon="1.21398">
        <ele>128</ele>
        <time>2017-11-21T15:15:03Z</time>
      </trkpt>
      <trkpt lat="49.4108" lon="1.214">
        <ele>128</ele>
        <time>2017-11-21T15:15:03Z</time>
      </trkpt>
      <trkpt lat="49.41076" lon="1.21401">
        <ele>128</ele>
        <time>2017-11-21T15:15:03Z</time>
      </trkpt>
      <trkpt lat="49.41072" lon="1.21403">
        <ele>128</ele>
        <time>2017-11-21T15:15:03Z</time>
      </trkpt>
      <trkpt lat="49.41068" lon="1.21404">
        <ele>128</ele>
        <time>2017-11-21T15:15:19Z</time>
      </trkpt>
      <trkpt lat="49.41064" lon="1.21405">
        <ele>128</ele>
        <time>2017-11-21T15:15:19Z</time>
      </trkpt>
      <trkpt lat="49.41059" lon="1.21406">
        <ele>128</ele>
        <time>2017-11-21T15:15:19Z</time>
      </trkpt>
      <trkpt lat="49.41054" lon="1.21407">
        <ele>128</ele>
        <time>2017-11-21T15:15:19Z</time>
      </trkpt>
      <trkpt lat="49.4105" lon="1.21409">
        <ele>128</ele>
        <time>2017-11-21T15:15:35Z</time>
      </trkpt>
      <trkpt lat="49.41045" lon="1.2141">
        <ele>128</ele>
        <time>2017-11-21T15:15:35Z</time>
      </trkpt>
      <trkpt lat="49.41041" lon="1.21412">
        <ele>131</ele>
        <time>2017-11-21T15:15:35Z</time>
      </trkpt>
      <trkpt lat="49.41036" lon="1.21412">
        <ele>131</ele>
        <time>2017-11-21T15:15:35Z</time>
      </trkpt>
      <trkpt lat="49.41032" lon="1.21413">
        <ele>131</ele>
        <time>2017-11-21T15:15:51Z</time>
      </trkpt>
      <trkpt lat="49.41028" lon="1.21412">
        <ele>131</ele>
        <time>2017-11-21T15:15:51Z</time>
      </trkpt>
      <trkpt lat="49.41025" lon="1.21412">
        <ele>131</ele>
        <time>2017-11-21T15:15:51Z</time>
      </trkpt>
      <trkpt lat="49.41019" lon="1.21412">
        <ele>131</ele>
        <time>2017-11-21T15:15:51Z</time>
      </trkpt>
      <trkpt lat="49.41015" lon="1.21412">
        <ele>131</ele>
        <time>2017-11-21T15:16:07Z</time>
      </trkpt>
      <trkpt lat="49.41011" lon="1.21413">
        <ele>131</ele>
        <time>2017-11-21T15:16:07Z</time>
      </trkpt>
      <trkpt lat="49.41006" lon="1.21413">
        <ele>131</ele>
        <time>2017-11-21T15:16:07Z</time>
      </trkpt>
      <trkpt lat="49.41002" lon="1.21412">
        <ele>131</ele>
        <time>2017-11-21T15:16:07Z</time>
      </trkpt>
      <trkpt lat="49.40997" lon="1.21413">
        <ele>131</ele>
        <time>2017-11-21T15:16:23Z</time>
      </trkpt>
      <trkpt lat="49.40993" lon="1.21415">
        <ele>131</ele>
        <time>2017-11-21T15:16:23Z</time>
      </trkpt>
      <trkpt lat="49.40989" lon="1.21415">
        <ele>131</ele>
        <time>2017-11-21T15:16:23Z</time>
      </trkpt>
      <trkpt lat="49.40984" lon="1.21415">
        <ele>131</ele>
        <time>2017-11-21T15:16:23Z</time>
      </trkpt>
      <trkpt lat="49.4098" lon="1.21416">
        <ele>131</ele>
        <time>2017-11-21T15:16:39Z</time>
      </trkpt>
      <trkpt lat="49.40976" lon="1.21416">
        <ele>131</ele>
        <time>2017-11-21T15:16:39Z</time>
      </trkpt>
      <trkpt lat="49.40972" lon="1.21416">
        <ele>131</ele>
        <time>2017-11-21T15:16:39Z</time>
      </trkpt>
      <trkpt lat="49.40968" lon="1.21415">
        <ele>131</ele>
        <time>2017-11-21T15:16:39Z</time>
      </trkpt>
      <trkpt lat="49.40963" lon="1.21415">
        <ele>131</ele>
        <time>2017-11-21T15:16:55Z</time>
      </trkpt>
      <trkpt lat="49.40959" lon="1.21414">
        <ele>131</ele>
        <time>2017-11-21T15:16:55Z</time>
      </trkpt>
      <trkpt lat="49.40955" lon="1.21413">
        <ele>135</ele>
        <time>2017-11-21T15:16:55Z</time>
      </trkpt>
      <trkpt lat="49.40951" lon="1.21412">
        <ele>135</ele>
        <time>2017-11-21T15:16:55Z</time>
      </trkpt>
      <trkpt lat="49.40946" lon="1.21411">
        <ele>135</ele>
        <time>2017-11-21T15:17:11Z</time>
      </trkpt>
      <trkpt lat="49.40941" lon="1.21411">
        <ele>135</ele>
        <time>2017-11-21T15:17:11Z</time>
      </trkpt>
      <trkpt lat="49.40936" lon="1.21411">
        <ele>135</ele>
        <time>2017-11-21T15:17:11Z</time>
      </trkpt>
      <trkpt lat="49.40931" lon="1.21411">
        <ele>135</ele>
        <time>2017-11-21T15:17:11Z</time>
      </trkpt>
      <trkpt lat="49.40926" lon="1.21411">
        <ele>135</ele>
        <time>2017-11-21T15:17:27Z</time>
      </trkpt>
      <trkpt lat="49.40921" lon="1.21411">
        <ele>135</ele>
        <time>2017-11-21T15:17:27Z</time>
      </trkpt>
      <trkpt lat="49.40916" lon="1.2141">
        <ele>135</ele>
        <time>2017-11-21T15:17:27Z</time>
      </trkpt>
      <trkpt lat="49.40913" lon="1.21409">
        <ele>135</ele>
        <time>2017-11-21T15:17:27Z</time>
      </trkpt>
      <trkpt lat="49.40907" lon="1.21409">
        <ele>135</ele>
        <time>2017-11-21T15:17:43Z</time>
      </trkpt>
      <trkpt lat="49.40903" lon="1.21408">
        <ele>135</ele>
        <time>2017-11-21T15:17:43Z</time>
      </trkpt>
      <trkpt lat="49.40898" lon="1.21407">
        <ele>135</ele>
        <time>2017-11-21T15:17:43Z</time>
      </trkpt>
      <trkpt lat="49.40894" lon="1.21407">
        <ele>135</ele>
        <time>2017-11-21T15:17:43Z</time>
      </trkpt>
      <trkpt lat="49.40889" lon="1.21406">
        <ele>135</ele>
        <time>2017-11-21T15:17:59Z</time>
      </trkpt>
      <trkpt lat="49.40884" lon="1.21405">
        <ele>135</ele>
        <time>2017-11-21T15:17:59Z</time>
      </trkpt>
      <trkpt lat="49.4088" lon="1.21405">
        <ele>135</ele>
        <time>2017-11-21T15:17:59Z</time>
      </trkpt>
      <trkpt lat="49.40875" lon="1.21405">
        <ele>135</ele>
        <time>2017-11-21T15:17:59Z</time>
      </trkpt>
      <trkpt lat="49.40871" lon="1.21405">
        <ele>138</ele>
        <time>2017-11-21T15:18:15Z</time>
      </trkpt>
      <trkpt lat="49.40866" lon="1.21404">
        <ele>138</ele>
        <time>2017-11-21T15:18:15Z</time>
      </trkpt>
      <trkpt lat="49.40862" lon="1.21405">
        <ele>138</ele>
        <time>2017-11-21T15:18:15Z</time>
      </trkpt>
      <trkpt lat="49.40858" lon="1.21406">
        <ele>138</ele>
        <time>2017-11-21T15:18:15Z</time>
      </trkpt>
      <trkpt lat="49.40855" lon="1.21405">
        <ele>138</ele>
        <time>2017-11-21T15:18:31Z</time>
      </trkpt>
      <trkpt lat="49.40851" lon="1.21405">
        <ele>138</ele>
        <time>2017-11-21T15:18:31Z</time>
      </trkpt>
      <trkpt lat="49.40847" lon="1.21405">
        <ele>138</ele>
        <time>2017-11-21T15:18:31Z</time>
      </trkpt>
      <trkpt lat="49.40842" lon="1.21404">
        <ele>138</ele>
        <time>2017-11-21T15:18:31Z</time>
      </trkpt>
      <trkpt lat="49.40838" lon="1.21404">
        <ele>138</ele>
        <time>2017-11-21T15:18:47Z</time>
      </trkpt>
      <trkpt lat="49.40833" lon="1.21405">
        <ele>138</ele>
        <time>2017-11-21T15:18:47Z</time>
      </trkpt>
      <trkpt lat="49.40829" lon="1.21405">
        <ele>138</ele>
        <time>2017-11-21T15:18:47Z</time>
      </trkpt>
      <trkpt lat="49.40825" lon="1.21406">
        <ele>138</ele>
        <time>2017-11-21T15:18:47Z</time>
      </trkpt>
      <trkpt lat="49.40821" lon="1.21407">
        <ele>138</ele>
        <time>2017-11-21T15:19:03Z</time>
      </trkpt>
      <trkpt lat="49.40816" lon="1.21407">
        <ele>138</ele>
        <time>2017-11-21T15:19:03Z</time>
      </trkpt>
      <trkpt lat="49.40812" lon="1.21408">
        <ele>138</ele>
        <time>2017-11-21T15:19:03Z</time>
      </trkpt>
      <trkpt lat="49.40808" lon="1.21408">
        <ele>138</ele>
        <time>2017-11-21T15:19:03Z</time>
      </trkpt>
      <trkpt lat="49.40804" lon="1.21409">
        <ele>138</ele>
        <time>2017-11-21T15:19:19Z</time>
      </trkpt>
      <trkpt lat="49.40801" lon="1.2141">
        <ele>138</ele>
        <time>2017-11-21T15:19:19Z</time>
      </trkpt>
      <trkpt lat="49.40797" lon="1.21409">
        <ele>138</ele>
        <time>2017-11-21T15:19:19Z</time>
      </trkpt>
      <trkpt lat="49.40793" lon="1.21408">
        <ele>138</ele>
        <time>2017-11-21T15:19:19Z</time>
      </trkpt>
      <trkpt lat="49.40789" lon="1.21407">
        <ele>143</ele>
        <time>2017-11-21T15:19:35Z</time>
      </trkpt>
      <trkpt lat="49.40785" lon="1.21408">
        <ele>143</ele>
        <time>2017-11-21T15:19:35Z</time>
      </trkpt>
      <trkpt lat="49.40781" lon="1.21408">
        <ele>143</ele>
        <time>2017-11-21T15:19:35Z</time>
      </trkpt>
      <trkpt lat="49.40778" lon="1.21409">
        <ele>143</ele>
        <time>2017-11-21T15:19:35Z</time>
      </trkpt>
      <trkpt lat="49.40773" lon="1.21411">
        <ele>143</ele>
        <time>2017-11-21T15:19:51Z</time>
      </trkpt>
      <trkpt lat="49.40769" lon="1.21412">
        <ele>143</ele>
        <time>2017-11-21T15:19:51Z</time>
      </trkpt>
      <trkpt lat="49.40765" lon="1.21412">
        <ele>143</ele>
        <time>2017-11-21T15:19:51Z</time>
      </trkpt>
      <trkpt lat="49.40761" lon="1.21413">
        <ele>143</ele>
        <time>2017-11-21T15:19:51Z</time>
      </trkpt>
      <trkpt lat="49.40757" lon="1.21414">
        <ele>143</ele>
        <time>2017-11-21T15:20:07Z</time>
      </trkpt>
      <trkpt lat="49.40753" lon="1.21414">
        <ele>143</ele>
        <time>2017-11-21T15:20:07Z</time>
      </trkpt>
      <trkpt lat="49.40749" lon="1.21413">
        <ele>143</ele>
        <time>2017-11-21T15:20:07Z</time>
      </trkpt>
      <trkpt lat="49.40744" lon="1.21413">
        <ele>143</ele>
        <time>2017-11-21T15:20:07Z</time>
      </trkpt>
      <trkpt lat="49.4074" lon="1.21412">
        <ele>143</ele>
        <time>2017-11-21T15:20:23Z</time>
      </trkpt>
      <trkpt lat="49.40736" lon="1.21411">
        <ele>143</ele>
        <time>2017-11-21T15:20:23Z</time>
      </trkpt>
      <trkpt lat="49.40731" lon="1.2141">
        <ele>143</ele>
        <time>2017-11-21T15:20:23Z</time>
      </trkpt>
      <trkpt lat="49.40727" lon="1.2141">
        <ele>143</ele>
        <time>2017-11-21T15:20:23Z</time>
      </trkpt>
      <trkpt lat="49.40721" lon="1.21411">
        <ele>143</ele>
        <time>2017-11-21T15:20:39Z</time>
      </trkpt>
      <trkpt lat="49.40717" lon="1.21411">
        <ele>143</ele>
        <time>2017-11-21T15:20:39Z</time>
      </trkpt>
      <trkpt lat="49.40713" lon="1.21412">
        <ele>143</ele>
        <time>2017-11-21T15:20:39Z</time>
      </trkpt>
      <trkpt lat="49.40709" lon="1.21412">
        <ele>143</ele>
        <time>2017-11-21T15:20:39Z</time>
      </trkpt>
      <trkpt lat="49.40704" lon="1.21413">
        <ele>149</ele>
        <time>2017-11-21T15:20:55Z</time>
      </trkpt>
      <trkpt lat="49.407" lon="1.21413">
        <ele>149</ele>
        <time>2017-11-21T15:20:55Z</time>
      </trkpt>
      <trkpt lat="49.40696" lon="1.21413">
        <ele>149</ele>
        <time>2017-11-21T15:20:55Z</time>
      </trkpt>
      <trkpt lat="49.40691" lon="1.21413">
        <ele>149</ele>
        <time>2017-11-21T15:20:55Z</time>
      </trkpt>
      <trkpt lat="49.40687" lon="1.21413">
        <ele>149</ele>
        <time>2017-11-21T15:21:11Z</time>
      </trkpt>
      <trkpt lat="49.40683" lon="1.21414">
        <ele>149</ele>
        <time>2017-11-21T15:21:11Z</time>
      </trkpt>
      <trkpt lat="49.40679" lon="1.21414">
        <ele>149</ele>
        <time>2017-11-21T15:21:11Z</time>
      </trkpt>
      <trkpt lat="49.40676" lon="1.21415">
        <ele>149</ele>
        <time>2017-11-21T15:21:11Z</time>
      </trkpt>
      <trkpt lat="49.40671" lon="1.21414">
        <ele>149</ele>
        <time>2017-11-21T15:21:27Z</time>
      </trkpt>
      <trkpt lat="49.40667" lon="1.21413">
        <ele>149</ele>
        <time>2017-11-21T15:21:27Z</time>
      </trkpt>
      <trkpt lat="49.40662" lon="1.21412">
        <ele>149</ele>
        <time>2017-11-21T15:21:27Z</time>
      </trkpt>
      <trkpt lat="49.40658" lon="1.21411">
        <ele>149</ele>
        <time>2017-11-21T15:21:27Z</time>
      </trkpt>
      <trkpt lat="49.40655" lon="1.21411">
        <ele>149</ele>
        <time>2017-11-21T15:21:43Z</time>
      </trkpt>
      <trkpt lat="49.4065" lon="1.2141">
        <ele>149</ele>
        <time>2017-11-21T15:21:43Z</time>
      </trkpt>
      <trkpt lat="49.40646" lon="1.21409">
        <ele>149</ele>
        <time>2017-11-21T15:21:43Z</time>
      </trkpt>
      <trkpt lat="49.40642" lon="1.2141">
        <ele>149</ele>
        <time>2017-11-21T15:21:43Z</time>
      </trkpt>
      <trkpt lat="49.40639" lon="1.21411">
        <ele>149</ele>
        <time>2017-11-21T15:21:59Z</time>
      </trkpt>
      <trkpt lat="49.40633" lon="1.21412">
        <ele>149</ele>
        <time>2017-11-21T15:21:59Z</time>
      </trkpt>
      <trkpt lat="49.4063" lon="1.21416">
        <ele>149</ele>
        <time>2017-11-21T15:21:59Z</time>
      </trkpt>
      <trkpt lat="49.40628" lon="1.2142">
        <ele>149</ele>
        <time>2017-11-21T15:21:59Z</time>
      </trkpt>
      <trkpt lat="49.40628" lon="1.21426">
        <ele>149</ele>
        <time>2017-11-21T15:23:23Z</time>
      </trkpt>
      <trkpt lat="49.40628" lon="1.2142">
        <ele>149</ele>
        <time>2017-11-21T15:23:23Z</time>
      </trkpt>
      <trkpt lat="49.40627" lon="1.21415">
        <ele>149</ele>
        <time>2017-11-21T15:23:23Z</time>
      </trkpt>
      <trkpt lat="49.40627" lon="1.21411">
        <ele>149</ele>
        <time>2017-11-21T15:23:23Z</time>
      </trkpt>
      <trkpt lat="49.40627" lon="1.21411">
        <ele>149</ele>
        <time>2017-11-21T15:23:23Z</time>
      </trkpt>
      <trkpt lat="49.40626" lon="1.21404">
        <ele>149</ele>
        <time>2017-11-21T15:28:23Z</time>
      </trkpt>
      <trkpt lat="49.40624" lon="1.21404">
        <ele>151</ele>
        <time>2017-11-21T15:28:23Z</time>
      </trkpt>
      <trkpt lat="49.40621" lon="1.21404">
        <ele>151</ele>
        <time>2017-11-21T15:28:23Z</time>
      </trkpt>
      <trkpt lat="49.40618" lon="1.21402">
        <ele>151</ele>
        <time>2017-11-21T15:28:23Z</time>
      </trkpt>
      <trkpt lat="49.40614" lon="1.21401">
        <ele>151</ele>
        <time>2017-11-21T15:28:23Z</time>
      </trkpt>
      <trkpt lat="49.40611" lon="1.214">
        <ele>151</ele>
        <time>2017-11-21T15:28:39Z</time>
      </trkpt>
      <trkpt lat="49.40607" lon="1.21398">
        <ele>151</ele>
        <time>2017-11-21T15:28:39Z</time>
      </trkpt>
      <trkpt lat="49.40602" lon="1.21396">
        <ele>151</ele>
        <time>2017-11-21T15:28:39Z</time>
      </trkpt>
      <trkpt lat="49.40598" lon="1.21394">
        <ele>151</ele>
        <time>2017-11-21T15:28:39Z</time>
      </trkpt>
      <trkpt lat="49.40594" lon="1.21391">
        <ele>151</ele>
        <time>2017-11-21T15:28:55Z</time>
      </trkpt>
      <trkpt lat="49.4059" lon="1.21388">
        <ele>151</ele>
        <time>2017-11-21T15:28:55Z</time>
      </trkpt>
      <trkpt lat="49.40585" lon="1.21386">
        <ele>151</ele>
        <time>2017-11-21T15:28:55Z</time>
      </trkpt>
      <trkpt lat="49.40581" lon="1.21385">
        <ele>151</ele>
        <time>2017-11-21T15:28:55Z</time>
      </trkpt>
      <trkpt lat="49.40576" lon="1.21382">
        <ele>151</ele>
        <time>2017-11-21T15:29:11Z</time>
      </trkpt>
      <trkpt lat="49.40572" lon="1.21379">
        <ele>151</ele>
        <time>2017-11-21T15:29:11Z</time>
      </trkpt>
      <trkpt lat="49.40568" lon="1.21377">
        <ele>151</ele>
        <time>2017-11-21T15:29:11Z</time>
      </trkpt>
      <trkpt lat="49.40564" lon="1.21375">
        <ele>145</ele>
        <time>2017-11-21T15:29:11Z</time>
      </trkpt>
      <trkpt lat="49.40559" lon="1.21372">
        <ele>145</ele>
        <time>2017-11-21T15:29:27Z</time>
      </trkpt>
      <trkpt lat="49.40555" lon="1.21369">
        <ele>145</ele>
        <time>2017-11-21T15:29:27Z</time>
      </trkpt>
      <trkpt lat="49.40551" lon="1.21366">
        <ele>145</ele>
        <time>2017-11-21T15:29:27Z</time>
      </trkpt>
      <trkpt lat="49.40546" lon="1.21364">
        <ele>145</ele>
        <time>2017-11-21T15:29:27Z</time>
      </trkpt>
      <trkpt lat="49.40542" lon="1.21361">
        <ele>145</ele>
        <time>2017-11-21T15:29:43Z</time>
      </trkpt>
      <trkpt lat="49.40538" lon="1.21358">
        <ele>148</ele>
        <time>2017-11-21T15:29:43Z</time>
      </trkpt>
      <trkpt lat="49.40534" lon="1.21355">
        <ele>148</ele>
        <time>2017-11-21T15:29:43Z</time>
      </trkpt>
      <trkpt lat="49.40529" lon="1.21353">
        <ele>148</ele>
        <time>2017-11-21T15:29:43Z</time>
      </trkpt>
      <trkpt lat="49.40525" lon="1.2135">
        <ele>148</ele>
        <time>2017-11-21T15:29:59Z</time>
      </trkpt>
      <trkpt lat="49.4052" lon="1.21347">
        <ele>148</ele>
        <time>2017-11-21T15:29:59Z</time>
      </trkpt>
      <trkpt lat="49.40516" lon="1.21344">
        <ele>148</ele>
        <time>2017-11-21T15:29:59Z</time>
      </trkpt>
      <trkpt lat="49.40511" lon="1.21341">
        <ele>148</ele>
        <time>2017-11-21T15:29:59Z</time>
      </trkpt>
      <trkpt lat="49.40507" lon="1.21338">
        <ele>148</ele>
        <time>2017-11-21T15:30:15Z</time>
      </trkpt>
      <trkpt lat="49.40502" lon="1.21336">
        <ele>148</ele>
        <time>2017-11-21T15:30:15Z</time>
      </trkpt>
      <trkpt lat="49.40498" lon="1.21333">
        <ele>148</ele>
        <time>2017-11-21T15:30:15Z</time>
      </trkpt>
      <trkpt lat="49.40494" lon="1.2133">
        <ele>148</ele>
        <time>2017-11-21T15:30:15Z</time>
      </trkpt>
      <trkpt lat="49.40489" lon="1.21327">
        <ele>148</ele>
        <time>2017-11-21T15:30:31Z</time>
      </trkpt>
      <trkpt lat="49.40485" lon="1.21324">
        <ele>148</ele>
        <time>2017-11-21T15:30:31Z</time>
      </trkpt>
      <trkpt lat="49.40481" lon="1.2132">
        <ele>148</ele>
        <time>2017-11-21T15:30:31Z</time>
      </trkpt>
      <trkpt lat="49.40477" lon="1.21317">
        <ele>148</ele>
        <time>2017-11-21T15:30:31Z</time>
      </trkpt>
      <trkpt lat="49.40473" lon="1.21314">
        <ele>148</ele>
        <time>2017-11-21T15:30:47Z</time>
      </trkpt>
      <trkpt lat="49.40469" lon="1.21312">
        <ele>148</ele>
        <time>2017-11-21T15:30:47Z</time>
      </trkpt>
      <trkpt lat="49.40464" lon="1.2131">
        <ele>148</ele>
        <time>2017-11-21T15:30:47Z</time>
      </trkpt>
      <trkpt lat="49.4046" lon="1.21307">
        <ele>148</ele>
        <time>2017-11-21T15:30:47Z</time>
      </trkpt>
      <trkpt lat="49.40456" lon="1.21305">
        <ele>150</ele>
        <time>2017-11-21T15:31:03Z</time>
      </trkpt>
      <trkpt lat="49.40451" lon="1.21302">
        <ele>150</ele>
        <time>2017-11-21T15:31:03Z</time>
      </trkpt>
      <trkpt lat="49.40446" lon="1.21299">
        <ele>150</ele>
        <time>2017-11-21T15:31:03Z</time>
      </trkpt>
      <trkpt lat="49.40441" lon="1.21297">
        <ele>150</ele>
        <time>2017-11-21T15:31:03Z</time>
      </trkpt>
      <trkpt lat="49.40437" lon="1.21294">
        <ele>150</ele>
        <time>2017-11-21T15:31:19Z</time>
      </trkpt>
      <trkpt lat="49.40432" lon="1.21291">
        <ele>148</ele>
        <time>2017-11-21T15:31:19Z</time>
      </trkpt>
      <trkpt lat="49.40428" lon="1.21289">
        <ele>148</ele>
        <time>2017-11-21T15:31:19Z</time>
      </trkpt>
      <trkpt lat="49.40423" lon="1.21286">
        <ele>148</ele>
        <time>2017-11-21T15:31:19Z</time>
      </trkpt>
      <trkpt lat="49.40419" lon="1.21284">
        <ele>148</ele>
        <time>2017-11-21T15:31:35Z</time>
      </trkpt>
      <trkpt lat="49.40414" lon="1.21283">
        <ele>148</ele>
        <time>2017-11-21T15:31:35Z</time>
      </trkpt>
      <trkpt lat="49.40409" lon="1.21279">
        <ele>148</ele>
        <time>2017-11-21T15:31:35Z</time>
      </trkpt>
      <trkpt lat="49.40405" lon="1.21276">
        <ele>148</ele>
        <time>2017-11-21T15:31:35Z</time>
      </trkpt>
      <trkpt lat="49.40401" lon="1.21273">
        <ele>148</ele>
        <time>2017-11-21T15:31:51Z</time>
      </trkpt>
      <trkpt lat="49.40396" lon="1.21271">
        <ele>148</ele>
        <time>2017-11-21T15:31:51Z</time>
      </trkpt>
      <trkpt lat="49.40392" lon="1.21269">
        <ele>148</ele>
        <time>2017-11-21T15:31:51Z</time>
      </trkpt>
      <trkpt lat="49.40389" lon="1.21268">
        <ele>148</ele>
        <time>2017-11-21T15:31:51Z</time>
      </trkpt>
      <trkpt lat="49.40384" lon="1.21266">
        <ele>148</ele>
        <time>2017-11-21T15:32:07Z</time>
      </trkpt>
      <trkpt lat="49.40379" lon="1.21263">
        <ele>148</ele>
        <time>2017-11-21T15:32:07Z</time>
      </trkpt>
      <trkpt lat="49.40374" lon="1.2126">
        <ele>148</ele>
        <time>2017-11-21T15:32:07Z</time>
      </trkpt>
      <trkpt lat="49.4037" lon="1.21257">
        <ele>148</ele>
        <time>2017-11-21T15:32:07Z</time>
      </trkpt>
      <trkpt lat="49.40366" lon="1.21253">
        <ele>148</ele>
        <time>2017-11-21T15:32:23Z</time>
      </trkpt>
      <trkpt lat="49.40362" lon="1.21251">
        <ele>148</ele>
        <time>2017-11-21T15:32:23Z</time>
      </trkpt>
      <trkpt lat="49.40357" lon="1.21249">
        <ele>148</ele>
        <time>2017-11-21T15:32:23Z</time>
      </trkpt>
      <trkpt lat="49.40353" lon="1.21246">
        <ele>148</ele>
        <time>2017-11-21T15:32:23Z</time>
      </trkpt>
      <trkpt lat="49.40349" lon="1.21244">
        <ele>148</ele>
        <time>2017-11-21T15:32:39Z</time>
      </trkpt>
      <trkpt lat="49.40344" lon="1.21241">
        <ele>148</ele>
        <time>2017-11-21T15:32:39Z</time>
      </trkpt>
      <trkpt lat="49.4034" lon="1.21239">
        <ele>148</ele>
        <time>2017-11-21T15:32:39Z</time>
      </trkpt>
      <trkpt lat="49.40336" lon="1.21237">
        <ele>148</ele>
        <time>2017-11-21T15:32:39Z</time>
      </trkpt>
      <trkpt lat="49.40331" lon="1.21235">
        <ele>148</ele>
        <time>2017-11-21T15:32:55Z</time>
      </trkpt>
      <trkpt lat="49.40326" lon="1.21233">
        <ele>148</ele>
        <time>2017-11-21T15:32:55Z</time>
      </trkpt>
      <trkpt lat="49.40322" lon="1.2123">
        <ele>148</ele>
        <time>2017-11-21T15:32:55Z</time>
      </trkpt>
      <trkpt lat="49.40317" lon="1.21228">
        <ele>148</ele>
        <time>2017-11-21T15:32:55Z</time>
      </trkpt>
      <trkpt lat="49.40313" lon="1.21225">
        <ele>148</ele>
        <time>2017-11-21T15:33:11Z</time>
      </trkpt>
      <trkpt lat="49.40308" lon="1.21222">
        <ele>148</ele>
        <time>2017-11-21T15:33:11Z</time>
      </trkpt>
      <trkpt lat="49.40303" lon="1.2122">
        <ele>148</ele>
        <time>2017-11-21T15:33:11Z</time>
      </trkpt>
      <trkpt lat="49.403" lon="1.21218">
        <ele>148</ele>
        <time>2017-11-21T15:33:11Z</time>
      </trkpt>
      <trkpt lat="49.40295" lon="1.21215">
        <ele>148</ele>
        <time>2017-11-21T15:33:27Z</time>
      </trkpt>
      <trkpt lat="49.40291" lon="1.21212">
        <ele>149</ele>
        <time>2017-11-21T15:33:27Z</time>
      </trkpt>
      <trkpt lat="49.40286" lon="1.21208">
        <ele>147</ele>
        <time>2017-11-21T15:33:27Z</time>
      </trkpt>
      <trkpt lat="49.40282" lon="1.21206">
        <ele>147</ele>
        <time>2017-11-21T15:33:27Z</time>
      </trkpt>
      <trkpt lat="49.40278" lon="1.21203">
        <ele>147</ele>
        <time>2017-11-21T15:33:43Z</time>
      </trkpt>
      <trkpt lat="49.40274" lon="1.212">
        <ele>147</ele>
        <time>2017-11-21T15:33:43Z</time>
      </trkpt>
      <trkpt lat="49.40269" lon="1.21198">
        <ele>147</ele>
        <time>2017-11-21T15:33:43Z</time>
      </trkpt>
      <trkpt lat="49.40265" lon="1.21196">
        <ele>147</ele>
        <time>2017-11-21T15:33:43Z</time>
      </trkpt>
      <trkpt lat="49.40261" lon="1.21193">
        <ele>147</ele>
        <time>2017-11-21T15:33:59Z</time>
      </trkpt>
      <trkpt lat="49.40256" lon="1.2119">
        <ele>147</ele>
        <time>2017-11-21T15:33:59Z</time>
      </trkpt>
      <trkpt lat="49.40252" lon="1.21188">
        <ele>147</ele>
        <time>2017-11-21T15:33:59Z</time>
      </trkpt>
      <trkpt lat="49.40247" lon="1.21185">
        <ele>147</ele>
        <time>2017-11-21T15:33:59Z</time>
      </trkpt>
      <trkpt lat="49.40242" lon="1.21183">
        <ele>147</ele>
        <time>2017-11-21T15:34:15Z</time>
      </trkpt>
      <trkpt lat="49.40238" lon="1.21181">
        <ele>147</ele>
        <time>2017-11-21T15:34:15Z</time>
      </trkpt>
      <trkpt lat="49.40234" lon="1.21178">
        <ele>147</ele>
        <time>2017-11-21T15:34:15Z</time>
      </trkpt>
      <trkpt lat="49.40229" lon="1.21176">
        <ele>147</ele>
        <time>2017-11-21T15:34:15Z</time>
      </trkpt>
      <trkpt lat="49.40225" lon="1.21174">
        <ele>147</ele>
        <time>2017-11-21T15:34:31Z</time>
      </trkpt>
      <trkpt lat="49.4022" lon="1.21172">
        <ele>147</ele>
        <time>2017-11-21T15:34:31Z</time>
      </trkpt>
      <trkpt lat="49.40215" lon="1.21169">
        <ele>147</ele>
        <time>2017-11-21T15:34:31Z</time>
      </trkpt>
      <trkpt lat="49.40211" lon="1.21167">
        <ele>147</ele>
        <time>2017-11-21T15:34:31Z</time>
      </trkpt>
      <trkpt lat="49.40206" lon="1.21164">
        <ele>146</ele>
        <time>2017-11-21T15:34:47Z</time>
      </trkpt>
      <trkpt lat="49.40202" lon="1.21163">
        <ele>146</ele>
        <time>2017-11-21T15:34:47Z</time>
      </trkpt>
      <trkpt lat="49.40197" lon="1.21162">
        <ele>146</ele>
        <time>2017-11-21T15:34:47Z</time>
      </trkpt>
      <trkpt lat="49.40192" lon="1.21162">
        <ele>146</ele>
        <time>2017-11-21T15:34:47Z</time>
      </trkpt>
      <trkpt lat="49.40187" lon="1.2116">
        <ele>146</ele>
        <time>2017-11-21T15:35:03Z</time>
      </trkpt>
      <trkpt lat="49.40183" lon="1.21159">
        <ele>146</ele>
        <time>2017-11-21T15:35:03Z</time>
      </trkpt>
      <trkpt lat="49.40178" lon="1.21158">
        <ele>146</ele>
        <time>2017-11-21T15:35:03Z</time>
      </trkpt>
      <trkpt lat="49.40173" lon="1.21157">
        <ele>146</ele>
        <time>2017-11-21T15:35:03Z</time>
      </trkpt>
      <trkpt lat="49.40168" lon="1.21157">
        <ele>146</ele>
        <time>2017-11-21T15:35:19Z</time>
      </trkpt>
      <trkpt lat="49.40164" lon="1.21157">
        <ele>146</ele>
        <time>2017-11-21T15:35:19Z</time>
      </trkpt>
      <trkpt lat="49.40159" lon="1.21158">
        <ele>146</ele>
        <time>2017-11-21T15:35:19Z</time>
      </trkpt>
      <trkpt lat="49.40154" lon="1.21158">
        <ele>146</ele>
        <time>2017-11-21T15:35:19Z</time>
      </trkpt>
      <trkpt lat="49.40149" lon="1.21158">
        <ele>146</ele>
        <time>2017-11-21T15:35:35Z</time>
      </trkpt>
      <trkpt lat="49.40145" lon="1.21157">
        <ele>146</ele>
        <time>2017-11-21T15:35:35Z</time>
      </trkpt>
      <trkpt lat="49.4014" lon="1.21157">
        <ele>146</ele>
        <time>2017-11-21T15:35:35Z</time>
      </trkpt>
      <trkpt lat="49.40136" lon="1.21156">
        <ele>146</ele>
        <time>2017-11-21T15:35:35Z</time>
      </trkpt>
      <trkpt lat="49.4013" lon="1.21156">
        <ele>146</ele>
        <time>2017-11-21T15:35:51Z</time>
      </trkpt>
      <trkpt lat="49.40126" lon="1.21156">
        <ele>146</ele>
        <time>2017-11-21T15:35:51Z</time>
      </trkpt>
      <trkpt lat="49.40122" lon="1.21155">
        <ele>145</ele>
        <time>2017-11-21T15:35:51Z</time>
      </trkpt>
      <trkpt lat="49.40119" lon="1.21155">
        <ele>145</ele>
        <time>2017-11-21T15:35:51Z</time>
      </trkpt>
      <trkpt lat="49.40113" lon="1.21155">
        <ele>145</ele>
        <time>2017-11-21T15:36:07Z</time>
      </trkpt>
      <trkpt lat="49.40109" lon="1.21155">
        <ele>145</ele>
        <time>2017-11-21T15:36:07Z</time>
      </trkpt>
      <trkpt lat="49.40105" lon="1.21154">
        <ele>145</ele>
        <time>2017-11-21T15:36:07Z</time>
      </trkpt>
      <trkpt lat="49.40101" lon="1.21153">
        <ele>145</ele>
        <time>2017-11-21T15:36:07Z</time>
      </trkpt>
      <trkpt lat="49.40094" lon="1.21149">
        <ele>145</ele>
        <time>2017-11-21T15:37:31Z</time>
      </trkpt>
      <trkpt lat="49.40094" lon="1.21149">
        <ele>145</ele>
        <time>2017-11-21T15:37:31Z</time>
      </trkpt>
      <trkpt lat="49.40094" lon="1.21148">
        <ele>145</ele>
        <time>2017-11-21T15:37:31Z</time>
      </trkpt>
      <trkpt lat="49.40093" lon="1.21148">
        <ele>145</ele>
        <time>2017-11-21T15:37:31Z</time>
      </trkpt>
      <trkpt lat="49.40091" lon="1.21147">
        <ele>145</ele>
        <time>2017-11-21T15:37:31Z</time>
      </trkpt>
      <trkpt lat="49.40087" lon="1.21146">
        <ele>145</ele>
        <time>2017-11-21T15:37:47Z</time>
      </trkpt>
      <trkpt lat="49.40087" lon="1.21143">
        <ele>145</ele>
        <time>2017-11-21T15:37:47Z</time>
      </trkpt>
      <trkpt lat="49.40086" lon="1.21136">
        <ele>145</ele>
        <time>2017-11-21T15:37:47Z</time>
      </trkpt>
      <trkpt lat="49.40085" lon="1.21129">
        <ele>145</ele>
        <time>2017-11-21T15:37:47Z</time>
      </trkpt>
      <trkpt lat="49.40084" lon="1.21122">
        <ele>142</ele>
        <time>2017-11-21T15:38:03Z</time>
      </trkpt>
      <trkpt lat="49.40083" lon="1.21115">
        <ele>142</ele>
        <time>2017-11-21T15:38:03Z</time>
      </trkpt>
      <trkpt lat="49.40082" lon="1.21108">
        <ele>142</ele>
        <time>2017-11-21T15:38:03Z</time>
      </trkpt>
      <trkpt lat="49.40081" lon="1.211">
        <ele>142</ele>
        <time>2017-11-21T15:38:03Z</time>
      </trkpt>
      <trkpt lat="49.40079" lon="1.21094">
        <ele>142</ele>
        <time>2017-11-21T15:38:19Z</time>
      </trkpt>
      <trkpt lat="49.40078" lon="1.21087">
        <ele>142</ele>
        <time>2017-11-21T15:38:19Z</time>
      </trkpt>
      <trkpt lat="49.40076" lon="1.21081">
        <ele>142</ele>
        <time>2017-11-21T15:38:19Z</time>
      </trkpt>
      <trkpt lat="49.40075" lon="1.21074">
        <ele>142</ele>
        <time>2017-11-21T15:38:19Z</time>
      </trkpt>
      <trkpt lat="49.40073" lon="1.21067">
        <ele>142</ele>
        <time>2017-11-21T15:38:35Z</time>
      </trkpt>
      <trkpt lat="49.40073" lon="1.2106">
        <ele>142</ele>
        <time>2017-11-21T15:38:35Z</time>
      </trkpt>
      <trkpt lat="49.40071" lon="1.21053">
        <ele>142</ele>
        <time>2017-11-21T15:38:35Z</time>
      </trkpt>
      <trkpt lat="49.40069" lon="1.21047">
        <ele>142</ele>
        <time>2017-11-21T15:38:35Z</time>
      </trkpt>
      <trkpt lat="49.40068" lon="1.2104">
        <ele>140</ele>
        <time>2017-11-21T15:38:51Z</time>
      </trkpt>
      <trkpt lat="49.40067" lon="1.21033">
        <ele>140</ele>
        <time>2017-11-21T15:38:51Z</time>
      </trkpt>
      <trkpt lat="49.40066" lon="1.21027">
        <ele>140</ele>
        <time>2017-11-21T15:38:51Z</time>
      </trkpt>
      <trkpt lat="49.40064" lon="1.2102">
        <ele>140</ele>
        <time>2017-11-21T15:38:51Z</time>
      </trkpt>
      <trkpt lat="49.40063" lon="1.21013">
        <ele>140</ele>
        <time>2017-11-21T15:39:07Z</time>
      </trkpt>
      <trkpt lat="49.40062" lon="1.21006">
        <ele>140</ele>
        <time>2017-11-21T15:39:07Z</time>
      </trkpt>
      <trkpt lat="49.40061" lon="1.21">
        <ele>140</ele>
        <time>2017-11-21T15:39:07Z</time>
      </trkpt>
      <trkpt lat="49.4006" lon="1.20993">
        <ele>140</ele>
        <time>2017-11-21T15:39:07Z</time>
      </trkpt>
      <trkpt lat="49.40059" lon="1.20986">
        <ele>140</ele>
        <time>2017-11-21T15:39:23Z</time>
      </trkpt>
      <trkpt lat="49.40058" lon="1.20979">
        <ele>140</ele>
        <time>2017-11-21T15:39:23Z</time>
      </trkpt>
      <trkpt lat="49.40058" lon="1.20973">
        <ele>140</ele>
        <time>2017-11-21T15:39:23Z</time>
      </trkpt>
      <trkpt lat="49.40057" lon="1.20966">
        <ele>140</ele>
        <time>2017-11-21T15:39:23Z</time>
      </trkpt>
      <trkpt lat="49.40056" lon="1.20959">
        <ele>140</ele>
        <time>2017-11-21T15:39:39Z</time>
      </trkpt>
      <trkpt lat="49.40056" lon="1.20951">
        <ele>136</ele>
        <time>2017-11-21T15:39:39Z</time>
      </trkpt>
      <trkpt lat="49.40055" lon="1.20944">
        <ele>136</ele>
        <time>2017-11-21T15:39:39Z</time>
      </trkpt>
      <trkpt lat="49.40055" lon="1.20937">
        <ele>136</ele>
        <time>2017-11-21T15:39:39Z</time>
      </trkpt>
      <trkpt lat="49.40055" lon="1.2093">
        <ele>136</ele>
        <time>2017-11-21T15:39:55Z</time>
      </trkpt>
      <trkpt lat="49.40054" lon="1.20923">
        <ele>136</ele>
        <time>2017-11-21T15:39:55Z</time>
      </trkpt>
      <trkpt lat="49.40053" lon="1.20916">
        <ele>136</ele>
        <time>2017-11-21T15:39:55Z</time>
      </trkpt>
      <trkpt lat="49.40052" lon="1.2091">
        <ele>136</ele>
        <time>2017-11-21T15:39:55Z</time>
      </trkpt>
      <trkpt lat="49.40051" lon="1.20904">
        <ele>136</ele>
        <time>2017-11-21T15:40:11Z</time>
      </trkpt>
      <trkpt lat="49.4005" lon="1.20899">
        <ele>136</ele>
        <time>2017-11-21T15:40:11Z</time>
      </trkpt>
      <trkpt lat="49.40045" lon="1.20901">
        <ele>136</ele>
        <time>2017-11-21T15:40:11Z</time>
      </trkpt>
      <trkpt lat="49.40041" lon="1.20906">
        <ele>135</ele>
        <time>2017-11-21T15:40:11Z</time>
      </trkpt>
      <trkpt lat="49.40038" lon="1.20912">
        <ele>135</ele>
        <time>2017-11-21T15:40:27Z</time>
      </trkpt>
      <trkpt lat="49.40035" lon="1.20917">
        <ele>135</ele>
        <time>2017-11-21T15:40:27Z</time>
      </trkpt>
      <trkpt lat="49.40031" lon="1.20923">
        <ele>135</ele>
        <time>2017-11-21T15:40:27Z</time>
      </trkpt>
      <trkpt lat="49.40028" lon="1.20928">
        <ele>135</ele>
        <time>2017-11-21T15:40:27Z</time>
      </trkpt>
      <trkpt lat="49.40024" lon="1.20933">
        <ele>135</ele>
        <time>2017-11-21T15:40:43Z</time>
      </trkpt>
      <trkpt lat="49.40021" lon="1.20939">
        <ele>135</ele>
        <time>2017-11-21T15:40:43Z</time>
      </trkpt>
      <trkpt lat="49.40018" lon="1.20944">
        <ele>135</ele>
        <time>2017-11-21T15:40:43Z</time>
      </trkpt>
      <trkpt lat="49.40014" lon="1.20949">
        <ele>135</ele>
        <time>2017-11-21T15:40:43Z</time>
      </trkpt>
      <trkpt lat="49.40011" lon="1.20955">
        <ele>135</ele>
        <time>2017-11-21T15:40:59Z</time>
      </trkpt>
      <trkpt lat="49.40008" lon="1.2096">
        <ele>138</ele>
        <time>2017-11-21T15:40:59Z</time>
      </trkpt>
      <trkpt lat="49.40005" lon="1.20966">
        <ele>138</ele>
        <time>2017-11-21T15:40:59Z</time>
      </trkpt>
      <trkpt lat="49.40002" lon="1.20971">
        <ele>138</ele>
        <time>2017-11-21T15:40:59Z</time>
      </trkpt>
      <trkpt lat="49.39998" lon="1.20976">
        <ele>138</ele>
        <time>2017-11-21T15:41:15Z</time>
      </trkpt>
      <trkpt lat="49.39995" lon="1.20981">
        <ele>138</ele>
        <time>2017-11-21T15:41:15Z</time>
      </trkpt>
      <trkpt lat="49.39991" lon="1.20985">
        <ele>138</ele>
        <time>2017-11-21T15:41:15Z</time>
      </trkpt>
      <trkpt lat="49.39987" lon="1.20989">
        <ele>138</ele>
        <time>2017-11-21T15:41:15Z</time>
      </trkpt>
      <trkpt lat="49.39984" lon="1.20994">
        <ele>138</ele>
        <time>2017-11-21T15:41:31Z</time>
      </trkpt>
      <trkpt lat="49.39979" lon="1.20998">
        <ele>138</ele>
        <time>2017-11-21T15:41:31Z</time>
      </trkpt>
      <trkpt lat="49.39976" lon="1.21002">
        <ele>138</ele>
        <time>2017-11-21T15:41:31Z</time>
      </trkpt>
      <trkpt lat="49.39972" lon="1.21006">
        <ele>138</ele>
        <time>2017-11-21T15:41:31Z</time>
      </trkpt>
      <trkpt lat="49.39968" lon="1.2101">
        <ele>138</ele>
        <time>2017-11-21T15:41:47Z</time>
      </trkpt>
      <trkpt lat="49.39964" lon="1.21013">
        <ele>138</ele>
        <time>2017-11-21T15:41:47Z</time>
      </trkpt>
      <trkpt lat="49.3996" lon="1.21017">
        <ele>138</ele>
        <time>2017-11-21T15:41:47Z</time>
      </trkpt>
      <trkpt lat="49.39956" lon="1.21021">
        <ele>139</ele>
        <time>2017-11-21T15:41:47Z</time>
      </trkpt>
      <trkpt lat="49.39952" lon="1.21025">
        <ele>139</ele>
        <time>2017-11-21T15:42:03Z</time>
      </trkpt>
      <trkpt lat="49.39949" lon="1.21029">
        <ele>139</ele>
        <time>2017-11-21T15:42:03Z</time>
      </trkpt>
      <trkpt lat="49.39945" lon="1.21033">
        <ele>139</ele>
        <time>2017-11-21T15:42:03Z</time>
      </trkpt>
      <trkpt lat="49.39941" lon="1.21037">
        <ele>139</ele>
        <time>2017-11-21T15:42:03Z</time>
      </trkpt>
      <trkpt lat="49.39937" lon="1.21041">
        <ele>139</ele>
        <time>2017-11-21T15:42:19Z</time>
      </trkpt>
      <trkpt lat="49.39933" lon="1.21044">
        <ele>141</ele>
        <time>2017-11-21T15:42:19Z</time>
      </trkpt>
      <trkpt lat="49.3993" lon="1.21048">
        <ele>141</ele>
        <time>2017-11-21T15:42:19Z</time>
      </trkpt>
      <trkpt lat="49.39926" lon="1.21052">
        <ele>141</ele>
        <time>2017-11-21T15:42:19Z</time>
      </trkpt>
      <trkpt lat="49.39922" lon="1.21055">
        <ele>141</ele>
        <time>2017-11-21T15:42:35Z</time>
      </trkpt>
      <trkpt lat="49.39918" lon="1.21059">
        <ele>141</ele>
        <time>2017-11-21T15:42:35Z</time>
      </trkpt>
      <trkpt lat="49.39915" lon="1.21063">
        <ele>141</ele>
        <time>2017-11-21T15:42:35Z</time>
      </trkpt>
      <trkpt lat="49.39911" lon="1.21066">
        <ele>141</ele>
        <time>2017-11-21T15:42:35Z</time>
      </trkpt>
      <trkpt lat="49.39907" lon="1.2107">
        <ele>141</ele>
        <time>2017-11-21T15:42:51Z</time>
      </trkpt>
      <trkpt lat="49.39904" lon="1.21073">
        <ele>141</ele>
        <time>2017-11-21T15:42:51Z</time>
      </trkpt>
      <trkpt lat="49.399" lon="1.21076">
        <ele>141</ele>
        <time>2017-11-21T15:42:51Z</time>
      </trkpt>
      <trkpt lat="49.39896" lon="1.21078">
        <ele>141</ele>
        <time>2017-11-21T15:42:51Z</time>
      </trkpt>
      <trkpt lat="49.39892" lon="1.21078">
        <ele>141</ele>
        <time>2017-11-21T15:43:07Z</time>
      </trkpt>
      <trkpt lat="49.39887" lon="1.21076">
        <ele>141</ele>
        <time>2017-11-21T15:43:07Z</time>
      </trkpt>
      <trkpt lat="49.39883" lon="1.21074">
        <ele>141</ele>
        <time>2017-11-21T15:43:07Z</time>
      </trkpt>
      <trkpt lat="49.39878" lon="1.21072">
        <ele>141</ele>
        <time>2017-11-21T15:43:07Z</time>
      </trkpt>
      <trkpt lat="49.39874" lon="1.21069">
        <ele>142</ele>
        <time>2017-11-21T15:43:23Z</time>
      </trkpt>
      <trkpt lat="49.39869" lon="1.21067">
        <ele>142</ele>
        <time>2017-11-21T15:43:23Z</time>
      </trkpt>
      <trkpt lat="49.39865" lon="1.21065">
        <ele>142</ele>
        <time>2017-11-21T15:43:23Z</time>
      </trkpt>
      <trkpt lat="49.39861" lon="1.21063">
        <ele>142</ele>
        <time>2017-11-21T15:43:23Z</time>
      </trkpt>
      <trkpt lat="49.39856" lon="1.21061">
        <ele>142</ele>
        <time>2017-11-21T15:43:39Z</time>
      </trkpt>
      <trkpt lat="49.39852" lon="1.21059">
        <ele>142</ele>
        <time>2017-11-21T15:43:39Z</time>
      </trkpt>
      <trkpt lat="49.39848" lon="1.21056">
        <ele>142</ele>
        <time>2017-11-21T15:43:39Z</time>
      </trkpt>
      <trkpt lat="49.39843" lon="1.21054">
        <ele>142</ele>
        <time>2017-11-21T15:43:39Z</time>
      </trkpt>
      <trkpt lat="49.39839" lon="1.21052">
        <ele>142</ele>
        <time>2017-11-21T15:43:55Z</time>
      </trkpt>
      <trkpt lat="49.39835" lon="1.2105">
        <ele>142</ele>
        <time>2017-11-21T15:43:55Z</time>
      </trkpt>
      <trkpt lat="49.39831" lon="1.21048">
        <ele>142</ele>
        <time>2017-11-21T15:43:55Z</time>
      </trkpt>
      <trkpt lat="49.39827" lon="1.21045">
        <ele>142</ele>
        <time>2017-11-21T15:43:55Z</time>
      </trkpt>
      <trkpt lat="49.39823" lon="1.21043">
        <ele>142</ele>
        <time>2017-11-21T15:44:11Z</time>
      </trkpt>
      <trkpt lat="49.39819" lon="1.2104">
        <ele>142</ele>
        <time>2017-11-21T15:44:11Z</time>
      </trkpt>
      <trkpt lat="49.39815" lon="1.21038">
        <ele>142</ele>
        <time>2017-11-21T15:44:11Z</time>
      </trkpt>
      <trkpt lat="49.39811" lon="1.21034">
        <ele>142</ele>
        <time>2017-11-21T15:44:11Z</time>
      </trkpt>
      <trkpt lat="49.39807" lon="1.21031">
        <ele>142</ele>
        <time>2017-11-21T15:44:27Z</time>
      </trkpt>
      <trkpt lat="49.39804" lon="1.21027">
        <ele>142</ele>
        <time>2017-11-21T15:44:27Z</time>
      </trkpt>
      <trkpt lat="49.39801" lon="1.21023">
        <ele>142</ele>
        <time>2017-11-21T15:44:27Z</time>
      </trkpt>
      <trkpt lat="49.39797" lon="1.21019">
        <ele>142</ele>
        <time>2017-11-21T15:44:27Z</time>
      </trkpt>
      <trkpt lat="49.39794" lon="1.21015">
        <ele>142</ele>
        <time>2017-11-21T15:44:43Z</time>
      </trkpt>
      <trkpt lat="49.39791" lon="1.21012">
        <ele>145</ele>
        <time>2017-11-21T15:44:43Z</time>
      </trkpt>
      <trkpt lat="49.39788" lon="1.21008">
        <ele>145</ele>
        <time>2017-11-21T15:44:43Z</time>
      </trkpt>
      <trkpt lat="49.39784" lon="1.21004">
        <ele>145</ele>
        <time>2017-11-21T15:44:43Z</time>
      </trkpt>
      <trkpt lat="49.3978" lon="1.21">
        <ele>145</ele>
        <time>2017-11-21T15:44:59Z</time>
      </trkpt>
      <trkpt lat="49.39777" lon="1.20996">
        <ele>145</ele>
        <time>2017-11-21T15:44:59Z</time>
      </trkpt>
      <trkpt lat="49.39773" lon="1.20992">
        <ele>145</ele>
        <time>2017-11-21T15:44:59Z</time>
      </trkpt>
      <trkpt lat="49.3977" lon="1.20988">
        <ele>145</ele>
        <time>2017-11-21T15:44:59Z</time>
      </trkpt>
      <trkpt lat="49.39767" lon="1.20985">
        <ele>145</ele>
        <time>2017-11-21T15:45:15Z</time>
      </trkpt>
      <trkpt lat="49.39764" lon="1.20981">
        <ele>145</ele>
        <time>2017-11-21T15:45:15Z</time>
      </trkpt>
      <trkpt lat="49.3976" lon="1.20978">
        <ele>145</ele>
        <time>2017-11-21T15:45:15Z</time>
      </trkpt>
      <trkpt lat="49.39757" lon="1.20975">
        <ele>145</ele>
        <time>2017-11-21T15:45:15Z</time>
      </trkpt>
      <trkpt lat="49.39753" lon="1.20971">
        <ele>145</ele>
        <time>2017-11-21T15:45:31Z</time>
      </trkpt>
      <trkpt lat="49.3975" lon="1.20967">
        <ele>145</ele>
        <time>2017-11-21T15:45:31Z</time>
      </trkpt>
      <trkpt lat="49.39746" lon="1.20963">
        <ele>145</ele>
        <time>2017-11-21T15:45:31Z</time>
      </trkpt>
      <trkpt lat="49.39744" lon="1.20958">
        <ele>146</ele>
        <time>2017-11-21T15:45:31Z</time>
      </trkpt>
      <trkpt lat="49.39743" lon="1.20951">
        <ele>146</ele>
        <time>2017-11-21T15:45:47Z</time>
      </trkpt>
      <trkpt lat="49.39744" lon="1.20944">
        <ele>146</ele>
        <time>2017-11-21T15:45:47Z</time>
      </trkpt>
      <trkpt lat="49.39745" lon="1.20937">
        <ele>146</ele>
        <time>2017-11-21T15:45:47Z</time>
      </trkpt>
      <trkpt lat="49.39745" lon="1.20931">
        <ele>146</ele>
        <time>2017-11-21T15:45:47Z</time>
      </trkpt>
      <trkpt lat="49.39746" lon="1.20925">
        <ele>146</ele>
        <time>2017-11-21T15:46:03Z</time>
      </trkpt>
      <trkpt lat="49.39746" lon="1.20918">
        <ele>146</ele>
        <time>2017-11-21T15:46:03Z</time>
      </trkpt>
      <trkpt lat="49.39746" lon="1.20911">
        <ele>146</ele>
        <time>2017-11-21T15:46:03Z</time>
      </trkpt>
      <trkpt lat="49.39744" lon="1.20908">
        <ele>146</ele>
        <time>2017-11-21T15:46:03Z</time>
      </trkpt>
      <trkpt lat="49.39739" lon="1.20906">
        <ele>146</ele>
        <time>2017-11-21T15:46:19Z</time>
      </trkpt>
      <trkpt lat="49.39735" lon="1.20905">
        <ele>146</ele>
        <time>2017-11-21T15:46:19Z</time>
      </trkpt>
      <trkpt lat="49.39731" lon="1.20905">
        <ele>146</ele>
        <time>2017-11-21T15:46:19Z</time>
      </trkpt>
      <trkpt lat="49.39726" lon="1.20904">
        <ele>146</ele>
        <time>2017-11-21T15:46:19Z</time>
      </trkpt>
      <trkpt lat="49.39722" lon="1.20902">
        <ele>146</ele>
        <time>2017-11-21T15:46:35Z</time>
      </trkpt>
      <trkpt lat="49.39718" lon="1.20899">
        <ele>146</ele>
        <time>2017-11-21T15:46:35Z</time>
      </trkpt>
      <trkpt lat="49.39714" lon="1.20896">
        <ele>146</ele>
        <time>2017-11-21T15:46:35Z</time>
      </trkpt>
      <trkpt lat="49.3971" lon="1.20893">
        <ele>146</ele>
        <time>2017-11-21T15:46:35Z</time>
      </trkpt>
      <trkpt lat="49.39706" lon="1.20891">
        <ele>150</ele>
        <time>2017-11-21T15:46:51Z</time>
      </trkpt>
      <trkpt lat="49.39702" lon="1.2089">
        <ele>150</ele>
        <time>2017-11-21T15:46:51Z</time>
      </trkpt>
      <trkpt lat="49.39698" lon="1.20889">
        <ele>150</ele>
        <time>2017-11-21T15:46:51Z</time>
      </trkpt>
      <trkpt lat="49.39694" lon="1.20887">
        <ele>150</ele>
        <time>2017-11-21T15:46:51Z</time>
      </trkpt>
      <trkpt lat="49.3969" lon="1.20885">
        <ele>150</ele>
        <time>2017-11-21T15:47:07Z</time>
      </trkpt>
      <trkpt lat="49.39686" lon="1.20883">
        <ele>150</ele>
        <time>2017-11-21T15:47:07Z</time>
      </trkpt>
      <trkpt lat="49.39682" lon="1.20882">
        <ele>150</ele>
        <time>2017-11-21T15:47:07Z</time>
      </trkpt>
      <trkpt lat="49.39678" lon="1.2088">
        <ele>150</ele>
        <time>2017-11-21T15:47:07Z</time>
      </trkpt>
      <trkpt lat="49.39674" lon="1.20879">
        <ele>150</ele>
        <time>2017-11-21T15:47:23Z</time>
      </trkpt>
      <trkpt lat="49.39671" lon="1.20877">
        <ele>150</ele>
        <time>2017-11-21T15:47:23Z</time>
      </trkpt>
      <trkpt lat="49.39666" lon="1.20875">
        <ele>150</ele>
        <time>2017-11-21T15:47:23Z</time>
      </trkpt>
      <trkpt lat="49.39662" lon="1.20874">
        <ele>151</ele>
        <time>2017-11-21T15:47:23Z</time>
      </trkpt>
      <trkpt lat="49.39658" lon="1.20872">
        <ele>151</ele>
        <time>2017-11-21T15:47:39Z</time>
      </trkpt>
      <trkpt lat="49.39654" lon="1.20871">
        <ele>151</ele>
        <time>2017-11-21T15:47:39Z</time>
      </trkpt>
      <trkpt lat="49.3965" lon="1.2087">
        <ele>151</ele>
        <time>2017-11-21T15:47:39Z</time>
      </trkpt>
      <trkpt lat="49.39646" lon="1.20868">
        <ele>151</ele>
        <time>2017-11-21T15:47:39Z</time>
      </trkpt>
      <trkpt lat="49.39642" lon="1.20866">
        <ele>151</ele>
        <time>2017-11-21T15:47:55Z</time>
      </trkpt>
      <trkpt lat="49.39638" lon="1.20864">
        <ele>151</ele>
        <time>2017-11-21T15:47:55Z</time>
      </trkpt>
      <trkpt lat="49.39634" lon="1.20863">
        <ele>151</ele>
        <time>2017-11-21T15:47:55Z</time>
      </trkpt>
      <trkpt lat="49.3963" lon="1.20862">
        <ele>151</ele>
        <time>2017-11-21T15:47:55Z</time>
      </trkpt>
      <trkpt lat="49.39626" lon="1.20861">
        <ele>151</ele>
        <time>2017-11-21T15:48:11Z</time>
      </trkpt>
      <trkpt lat="49.39622" lon="1.20861">
        <ele>157</ele>
        <time>2017-11-21T15:48:11Z</time>
      </trkpt>
      <trkpt lat="49.39618" lon="1.20862">
        <ele>157</ele>
        <time>2017-11-21T15:48:11Z</time>
      </trkpt>
      <trkpt lat="49.39615" lon="1.20862">
        <ele>157</ele>
        <time>2017-11-21T15:48:11Z</time>
      </trkpt>
      <trkpt lat="49.39612" lon="1.20863">
        <ele>157</ele>
        <time>2017-11-21T15:48:31Z</time>
      </trkpt>
      <trkpt lat="49.39609" lon="1.20862">
        <ele>157</ele>
        <time>2017-11-21T15:48:31Z</time>
      </trkpt>
      <trkpt lat="49.39607" lon="1.20862">
        <ele>157</ele>
        <time>2017-11-21T15:48:31Z</time>
      </trkpt>
      <trkpt lat="49.39604" lon="1.20861">
        <ele>157</ele>
        <time>2017-11-21T15:48:31Z</time>
      </trkpt>
      <trkpt lat="49.39601" lon="1.20862">
        <ele>157</ele>
        <time>2017-11-21T15:48:31Z</time>
      </trkpt>
      <trkpt lat="49.39598" lon="1.20864">
        <ele>157</ele>
        <time>2017-11-21T15:48:47Z</time>
      </trkpt>
      <trkpt lat="49.39596" lon="1.2086">
        <ele>157</ele>
        <time>2017-11-21T15:48:47Z</time>
      </trkpt>
      <trkpt lat="49.39595" lon="1.20855">
        <ele>157</ele>
        <time>2017-11-21T15:48:47Z</time>
      </trkpt>
      <trkpt lat="49.39595" lon="1.20849">
        <ele>157</ele>
        <time>2017-11-21T15:48:47Z</time>
      </trkpt>
      <trkpt lat="49.39596" lon="1.20843">
        <ele>157</ele>
        <time>2017-11-21T15:49:03Z</time>
      </trkpt>
      <trkpt lat="49.39596" lon="1.20837">
        <ele>157</ele>
        <time>2017-11-21T15:49:03Z</time>
      </trkpt>
      <trkpt lat="49.39597" lon="1.20831">
        <ele>157</ele>
        <time>2017-11-21T15:49:03Z</time>
      </trkpt>
      <trkpt lat="49.39596" lon="1.20825">
        <ele>157</ele>
        <time>2017-11-21T15:49:03Z</time>
      </trkpt>
      <trkpt lat="49.39596" lon="1.20819">
        <ele>157</ele>
        <time>2017-11-21T15:49:23Z</time>
      </trkpt>
      <trkpt lat="49.39596" lon="1.20813">
        <ele>157</ele>
        <time>2017-11-21T15:49:23Z</time>
      </trkpt>
      <trkpt lat="49.39596" lon="1.20811">
        <ele>157</ele>
        <time>2017-11-21T15:49:23Z</time>
      </trkpt>
      <trkpt lat="49.39596" lon="1.20811">
        <ele>157</ele>
        <time>2017-11-21T15:49:23Z</time>
      </trkpt>
      <trkpt lat="49.39595" lon="1.20804">
        <ele>157</ele>
        <time>2017-11-21T15:49:23Z</time>
      </trkpt>
      <trkpt lat="49.39595" lon="1.20797">
        <ele>157</ele>
        <time>2017-11-21T15:49:39Z</time>
      </trkpt>
      <trkpt lat="49.39595" lon="1.2079">
        <ele>153</ele>
        <time>2017-11-21T15:49:39Z</time>
      </trkpt>
      <trkpt lat="49.39595" lon="1.20783">
        <ele>153</ele>
        <time>2017-11-21T15:49:39Z</time>
      </trkpt>
      <trkpt lat="49.39594" lon="1.20776">
        <ele>153</ele>
        <time>2017-11-21T15:49:39Z</time>
      </trkpt>
      <trkpt lat="49.39594" lon="1.20769">
        <ele>153</ele>
        <time>2017-11-21T15:49:55Z</time>
      </trkpt>
      <trkpt lat="49.39594" lon="1.20762">
        <ele>153</ele>
        <time>2017-11-21T15:49:55Z</time>
      </trkpt>
      <trkpt lat="49.39595" lon="1.20755">
        <ele>153</ele>
        <time>2017-11-21T15:49:55Z</time>
      </trkpt>
      <trkpt lat="49.39595" lon="1.20747">
        <ele>153</ele>
        <time>2017-11-21T15:49:55Z</time>
      </trkpt>
      <trkpt lat="49.39597" lon="1.20741">
        <ele>153</ele>
        <time>2017-11-21T15:50:11Z</time>
      </trkpt>
      <trkpt lat="49.39596" lon="1.20737">
        <ele>153</ele>
        <time>2017-11-21T15:50:11Z</time>
      </trkpt>
      <trkpt lat="49.39596" lon="1.20733">
        <ele>153</ele>
        <time>2017-11-21T15:50:11Z</time>
      </trkpt>
      <trkpt lat="49.39596" lon="1.20726">
        <ele>153</ele>
        <time>2017-11-21T15:50:11Z</time>
      </trkpt>
      <trkpt lat="49.39596" lon="1.20719">
        <ele>153</ele>
        <time>2017-11-21T15:50:27Z</time>
      </trkpt>
      <trkpt lat="49.39596" lon="1.20712">
        <ele>153</ele>
        <time>2017-11-21T15:50:27Z</time>
      </trkpt>
      <trkpt lat="49.39596" lon="1.20704">
        <ele>154</ele>
        <time>2017-11-21T15:50:27Z</time>
      </trkpt>
      <trkpt lat="49.39595" lon="1.20697">
        <ele>154</ele>
        <time>2017-11-21T15:50:27Z</time>
      </trkpt>
      <trkpt lat="49.39595" lon="1.2069">
        <ele>154</ele>
        <time>2017-11-21T15:50:43Z</time>
      </trkpt>
      <trkpt lat="49.39595" lon="1.20682">
        <ele>154</ele>
        <time>2017-11-21T15:50:43Z</time>
      </trkpt>
      <trkpt lat="49.39596" lon="1.20676">
        <ele>154</ele>
        <time>2017-11-21T15:50:43Z</time>
      </trkpt>
      <trkpt lat="49.39596" lon="1.20669">
        <ele>154</ele>
        <time>2017-11-21T15:50:43Z</time>
      </trkpt>
      <trkpt lat="49.39595" lon="1.20662">
        <ele>154</ele>
        <time>2017-11-21T15:50:59Z</time>
      </trkpt>
      <trkpt lat="49.39595" lon="1.20656">
        <ele>154</ele>
        <time>2017-11-21T15:50:59Z</time>
      </trkpt>
      <trkpt lat="49.39594" lon="1.20649">
        <ele>154</ele>
        <time>2017-11-21T15:50:59Z</time>
      </trkpt>
      <trkpt lat="49.39594" lon="1.20643">
        <ele>154</ele>
        <time>2017-11-21T15:50:59Z</time>
      </trkpt>
      <trkpt lat="49.39594" lon="1.20637">
        <ele>154</ele>
        <time>2017-11-21T15:51:19Z</time>
      </trkpt>
      <trkpt lat="49.39594" lon="1.20638">
        <ele>154</ele>
        <time>2017-11-21T15:51:19Z</time>
      </trkpt>
      <trkpt lat="49.39594" lon="1.20635">
        <ele>154</ele>
        <time>2017-11-21T15:51:19Z</time>
      </trkpt>
      <trkpt lat="49.39593" lon="1.20629">
        <ele>154</ele>
        <time>2017-11-21T15:51:19Z</time>
      </trkpt>
      <trkpt lat="49.39592" lon="1.20622">
        <ele>154</ele>
        <time>2017-11-21T15:51:19Z</time>
      </trkpt>
      <trkpt lat="49.39592" lon="1.20616">
        <ele>154</ele>
        <time>2017-11-21T15:51:35Z</time>
      </trkpt>
      <trkpt lat="49.39591" lon="1.2061">
        <ele>154</ele>
        <time>2017-11-21T15:51:35Z</time>
      </trkpt>
      <trkpt lat="49.39591" lon="1.20604">
        <ele>154</ele>
        <time>2017-11-21T15:51:35Z</time>
      </trkpt>
      <trkpt lat="49.39591" lon="1.206">
        <ele>154</ele>
        <time>2017-11-21T15:51:35Z</time>
      </trkpt>
      <trkpt lat="49.39591" lon="1.20601">
        <ele>154</ele>
        <time>2017-11-21T15:51:59Z</time>
      </trkpt>
      <trkpt lat="49.3959" lon="1.206">
        <ele>154</ele>
        <time>2017-11-21T15:51:59Z</time>
      </trkpt>
      <trkpt lat="49.39589" lon="1.20594">
        <ele>154</ele>
        <time>2017-11-21T15:51:59Z</time>
      </trkpt>
      <trkpt lat="49.39588" lon="1.20588">
        <ele>154</ele>
        <time>2017-11-21T15:51:59Z</time>
      </trkpt>
      <trkpt lat="49.39587" lon="1.20582">
        <ele>154</ele>
        <time>2017-11-21T15:51:59Z</time>
      </trkpt>
      <trkpt lat="49.39587" lon="1.20575">
        <ele>154</ele>
        <time>2017-11-21T15:52:15Z</time>
      </trkpt>
      <trkpt lat="49.39586" lon="1.20568">
        <ele>154</ele>
        <time>2017-11-21T15:52:15Z</time>
      </trkpt>
      <trkpt lat="49.39586" lon="1.20561">
        <ele>154</ele>
        <time>2017-11-21T15:52:15Z</time>
      </trkpt>
      <trkpt lat="49.39585" lon="1.20554">
        <ele>154</ele>
        <time>2017-11-21T15:52:15Z</time>
      </trkpt>
      <trkpt lat="49.39586" lon="1.2055">
        <ele>154</ele>
        <time>2017-11-21T15:52:55Z</time>
      </trkpt>
      <trkpt lat="49.39585" lon="1.20545">
        <ele>154</ele>
        <time>2017-11-21T15:52:55Z</time>
      </trkpt>
      <trkpt lat="49.39585" lon="1.20538">
        <ele>154</ele>
        <time>2017-11-21T15:52:55Z</time>
      </trkpt>
      <trkpt lat="49.39585" lon="1.20532">
        <ele>154</ele>
        <time>2017-11-21T15:52:55Z</time>
      </trkpt>
      <trkpt lat="49.39584" lon="1.20525">
        <ele>154</ele>
        <time>2017-11-21T15:52:55Z</time>
      </trkpt>
      <trkpt lat="49.39584" lon="1.20517">
        <ele>154</ele>
        <time>2017-11-21T15:53:11Z</time>
      </trkpt>
      <trkpt lat="49.39584" lon="1.2051">
        <ele>154</ele>
        <time>2017-11-21T15:53:11Z</time>
      </trkpt>
      <trkpt lat="49.39584" lon="1.20502">
        <ele>154</ele>
        <time>2017-11-21T15:53:11Z</time>
      </trkpt>
      <trkpt lat="49.39584" lon="1.20495">
        <ele>154</ele>
        <time>2017-11-21T15:53:11Z</time>
      </trkpt>
      <trkpt lat="49.39584" lon="1.20488">
        <ele>154</ele>
        <time>2017-11-21T15:53:27Z</time>
      </trkpt>
      <trkpt lat="49.39583" lon="1.20483">
        <ele>154</ele>
        <time>2017-11-21T15:53:27Z</time>
      </trkpt>
      <trkpt lat="49.39583" lon="1.20475">
        <ele>154</ele>
        <time>2017-11-21T15:53:27Z</time>
      </trkpt>
      <trkpt lat="49.39583" lon="1.20468">
        <ele>154</ele>
        <time>2017-11-21T15:53:27Z</time>
      </trkpt>
      <trkpt lat="49.39583" lon="1.20461">
        <ele>154</ele>
        <time>2017-11-21T15:53:43Z</time>
      </trkpt>
      <trkpt lat="49.39583" lon="1.20454">
        <ele>154</ele>
        <time>2017-11-21T15:53:43Z</time>
      </trkpt>
      <trkpt lat="49.39583" lon="1.20447">
        <ele>154</ele>
        <time>2017-11-21T15:53:43Z</time>
      </trkpt>
      <trkpt lat="49.39584" lon="1.2044">
        <ele>154</ele>
        <time>2017-11-21T15:53:43Z</time>
      </trkpt>
      <trkpt lat="49.39584" lon="1.20434">
        <ele>154</ele>
        <time>2017-11-21T15:53:59Z</time>
      </trkpt>
      <trkpt lat="49.39584" lon="1.20427">
        <ele>154</ele>
        <time>2017-11-21T15:53:59Z</time>
      </trkpt>
      <trkpt lat="49.39584" lon="1.20421">
        <ele>154</ele>
        <time>2017-11-21T15:53:59Z</time>
      </trkpt>
      <trkpt lat="49.39584" lon="1.20414">
        <ele>154</ele>
        <time>2017-11-21T15:53:59Z</time>
      </trkpt>
      <trkpt lat="49.39584" lon="1.20407">
        <ele>154</ele>
        <time>2017-11-21T15:54:15Z</time>
      </trkpt>
      <trkpt lat="49.39585" lon="1.204">
        <ele>154</ele>
        <time>2017-11-21T15:54:15Z</time>
      </trkpt>
      <trkpt lat="49.39585" lon="1.20394">
        <ele>154</ele>
        <time>2017-11-21T15:54:15Z</time>
      </trkpt>
      <trkpt lat="49.39585" lon="1.20387">
        <ele>154</ele>
        <time>2017-11-21T15:54:15Z</time>
      </trkpt>
      <trkpt lat="49.39585" lon="1.2038">
        <ele>154</ele>
        <time>2017-11-21T15:54:31Z</time>
      </trkpt>
      <trkpt lat="49.39585" lon="1.20373">
        <ele>154</ele>
        <time>2017-11-21T15:54:31Z</time>
      </trkpt>
      <trkpt lat="49.39585" lon="1.20367">
        <ele>154</ele>
        <time>2017-11-21T15:54:31Z</time>
      </trkpt>
      <trkpt lat="49.39585" lon="1.2036">
        <ele>154</ele>
        <time>2017-11-21T15:54:31Z</time>
      </trkpt>
      <trkpt lat="49.39585" lon="1.20353">
        <ele>154</ele>
        <time>2017-11-21T15:54:47Z</time>
      </trkpt>
      <trkpt lat="49.39586" lon="1.20347">
        <ele>154</ele>
        <time>2017-11-21T15:54:47Z</time>
      </trkpt>
      <trkpt lat="49.39586" lon="1.20339">
        <ele>154</ele>
        <time>2017-11-21T15:54:47Z</time>
      </trkpt>
      <trkpt lat="49.39588" lon="1.20333">
        <ele>154</ele>
        <time>2017-11-21T15:54:47Z</time>
      </trkpt>
      <trkpt lat="49.39588" lon="1.20327">
        <ele>154</ele>
        <time>2017-11-21T15:55:03Z</time>
      </trkpt>
      <trkpt lat="49.39588" lon="1.2032">
        <ele>154</ele>
        <time>2017-11-21T15:55:03Z</time>
      </trkpt>
      <trkpt lat="49.39588" lon="1.20313">
        <ele>154</ele>
        <time>2017-11-21T15:55:03Z</time>
      </trkpt>
      <trkpt lat="49.39589" lon="1.20306">
        <ele>154</ele>
        <time>2017-11-21T15:55:03Z</time>
      </trkpt>
      <trkpt lat="49.39589" lon="1.20299">
        <ele>154</ele>
        <time>2017-11-21T15:55:19Z</time>
      </trkpt>
      <trkpt lat="49.39589" lon="1.20292">
        <ele>154</ele>
        <time>2017-11-21T15:55:19Z</time>
      </trkpt>
      <trkpt lat="49.39589" lon="1.20285">
        <ele>155</ele>
        <time>2017-11-21T15:55:19Z</time>
      </trkpt>
      <trkpt lat="49.3959" lon="1.20278">
        <ele>155</ele>
        <time>2017-11-21T15:55:19Z</time>
      </trkpt>
      <trkpt lat="49.39591" lon="1.20272">
        <ele>155</ele>
        <time>2017-11-21T15:55:35Z</time>
      </trkpt>
      <trkpt lat="49.39591" lon="1.20265">
        <ele>155</ele>
        <time>2017-11-21T15:55:35Z</time>
      </trkpt>
      <trkpt lat="49.39593" lon="1.20259">
        <ele>155</ele>
        <time>2017-11-21T15:55:35Z</time>
      </trkpt>
      <trkpt lat="49.39594" lon="1.20253">
        <ele>155</ele>
        <time>2017-11-21T15:55:35Z</time>
      </trkpt>
      <trkpt lat="49.39595" lon="1.20246">
        <ele>155</ele>
        <time>2017-11-21T15:55:51Z</time>
      </trkpt>
      <trkpt lat="49.39597" lon="1.2024">
        <ele>155</ele>
        <time>2017-11-21T15:55:51Z</time>
      </trkpt>
      <trkpt lat="49.39599" lon="1.20234">
        <ele>155</ele>
        <time>2017-11-21T15:55:51Z</time>
      </trkpt>
      <trkpt lat="49.39601" lon="1.20228">
        <ele>155</ele>
        <time>2017-11-21T15:55:51Z</time>
      </trkpt>
      <trkpt lat="49.39604" lon="1.20222">
        <ele>155</ele>
        <time>2017-11-21T15:56:07Z</time>
      </trkpt>
      <trkpt lat="49.39606" lon="1.20216">
        <ele>155</ele>
        <time>2017-11-21T15:56:07Z</time>
      </trkpt>
      <trkpt lat="49.39609" lon="1.20211">
        <ele>155</ele>
        <time>2017-11-21T15:56:07Z</time>
      </trkpt>
      <trkpt lat="49.39611" lon="1.20205">
        <ele>156</ele>
        <time>2017-11-21T15:56:07Z</time>
      </trkpt>
      <trkpt lat="49.39613" lon="1.202">
        <ele>156</ele>
        <time>2017-11-21T15:56:23Z</time>
      </trkpt>
      <trkpt lat="49.39616" lon="1.20195">
        <ele>156</ele>
        <time>2017-11-21T15:56:23Z</time>
      </trkpt>
      <trkpt lat="49.39618" lon="1.20189">
        <ele>156</ele>
        <time>2017-11-21T15:56:23Z</time>
      </trkpt>
      <trkpt lat="49.39621" lon="1.20183">
        <ele>156</ele>
        <time>2017-11-21T15:56:23Z</time>
      </trkpt>
      <trkpt lat="49.39623" lon="1.20177">
        <ele>156</ele>
        <time>2017-11-21T15:56:39Z</time>
      </trkpt>
      <trkpt lat="49.39625" lon="1.20172">
        <ele>154</ele>
        <time>2017-11-21T15:56:39Z</time>
      </trkpt>
      <trkpt lat="49.39628" lon="1.20167">
        <ele>154</ele>
        <time>2017-11-21T15:56:39Z</time>
      </trkpt>
      <trkpt lat="49.39631" lon="1.20162">
        <ele>154</ele>
        <time>2017-11-21T15:56:39Z</time>
      </trkpt>
      <trkpt lat="49.39635" lon="1.20161">
        <ele>154</ele>
        <time>2017-11-21T15:56:59Z</time>
      </trkpt>
      <trkpt lat="49.39638" lon="1.20161">
        <ele>154</ele>
        <time>2017-11-21T15:56:59Z</time>
      </trkpt>
      <trkpt lat="49.3964" lon="1.20163">
        <ele>154</ele>
        <time>2017-11-21T15:56:59Z</time>
      </trkpt>
      <trkpt lat="49.39644" lon="1.20165">
        <ele>154</ele>
        <time>2017-11-21T15:56:59Z</time>
      </trkpt>
      <trkpt lat="49.39647" lon="1.20168">
        <ele>154</ele>
        <time>2017-11-21T15:56:59Z</time>
      </trkpt>
      <trkpt lat="49.39651" lon="1.20171">
        <ele>154</ele>
        <time>2017-11-21T15:57:15Z</time>
      </trkpt>
      <trkpt lat="49.39656" lon="1.20174">
        <ele>154</ele>
        <time>2017-11-21T15:57:15Z</time>
      </trkpt>
      <trkpt lat="49.39661" lon="1.20177">
        <ele>154</ele>
        <time>2017-11-21T15:57:15Z</time>
      </trkpt>
      <trkpt lat="49.39666" lon="1.20179">
        <ele>154</ele>
        <time>2017-11-21T15:57:15Z</time>
      </trkpt>
      <trkpt lat="49.3967" lon="1.20183">
        <ele>154</ele>
        <time>2017-11-21T15:57:31Z</time>
      </trkpt>
      <trkpt lat="49.39674" lon="1.20186">
        <ele>154</ele>
        <time>2017-11-21T15:57:31Z</time>
      </trkpt>
      <trkpt lat="49.39679" lon="1.20189">
        <ele>154</ele>
        <time>2017-11-21T15:57:31Z</time>
      </trkpt>
      <trkpt lat="49.39683" lon="1.20193">
        <ele>154</ele>
        <time>2017-11-21T15:57:31Z</time>
      </trkpt>
      <trkpt lat="49.39687" lon="1.20195">
        <ele>154</ele>
        <time>2017-11-21T15:57:47Z</time>
      </trkpt>
      <trkpt lat="49.39692" lon="1.20197">
        <ele>154</ele>
        <time>2017-11-21T15:57:47Z</time>
      </trkpt>
      <trkpt lat="49.39695" lon="1.20199">
        <ele>154</ele>
        <time>2017-11-21T15:57:47Z</time>
      </trkpt>
      <trkpt lat="49.397" lon="1.20204">
        <ele>154</ele>
        <time>2017-11-21T15:57:47Z</time>
      </trkpt>
      <trkpt lat="49.39704" lon="1.20207">
        <ele>154</ele>
        <time>2017-11-21T15:58:03Z</time>
      </trkpt>
      <trkpt lat="49.39708" lon="1.2021">
        <ele>154</ele>
        <time>2017-11-21T15:58:03Z</time>
      </trkpt>
      <trkpt lat="49.39713" lon="1.20213">
        <ele>151</ele>
        <time>2017-11-21T15:58:03Z</time>
      </trkpt>
      <trkpt lat="49.39718" lon="1.20215">
        <ele>151</ele>
        <time>2017-11-21T15:58:03Z</time>
      </trkpt>
      <trkpt lat="49.39722" lon="1.20218">
        <ele>151</ele>
        <time>2017-11-21T15:58:19Z</time>
      </trkpt>
      <trkpt lat="49.39726" lon="1.2022">
        <ele>151</ele>
        <time>2017-11-21T15:58:19Z</time>
      </trkpt>
      <trkpt lat="49.3973" lon="1.20223">
        <ele>151</ele>
        <time>2017-11-21T15:58:19Z</time>
      </trkpt>
      <trkpt lat="49.39734" lon="1.20224">
        <ele>151</ele>
        <time>2017-11-21T15:58:19Z</time>
      </trkpt>
      <trkpt lat="49.39738" lon="1.20227">
        <ele>151</ele>
        <time>2017-11-21T15:58:35Z</time>
      </trkpt>
      <trkpt lat="49.39742" lon="1.20226">
        <ele>151</ele>
        <time>2017-11-21T15:58:35Z</time>
      </trkpt>
      <trkpt lat="49.39744" lon="1.20222">
        <ele>151</ele>
        <time>2017-11-21T15:58:35Z</time>
      </trkpt>
      <trkpt lat="49.39747" lon="1.20221">
        <ele>151</ele>
        <time>2017-11-21T15:58:35Z</time>
      </trkpt>
      <trkpt lat="49.39751" lon="1.2022">
        <ele>151</ele>
        <time>2017-11-21T15:58:51Z</time>
      </trkpt>
      <trkpt lat="49.39754" lon="1.20217">
        <ele>151</ele>
        <time>2017-11-21T15:58:51Z</time>
      </trkpt>
      <trkpt lat="49.39757" lon="1.20213">
        <ele>151</ele>
        <time>2017-11-21T15:58:51Z</time>
      </trkpt>
      <trkpt lat="49.39761" lon="1.20208">
        <ele>150</ele>
        <time>2017-11-21T15:58:51Z</time>
      </trkpt>
      <trkpt lat="49.39763" lon="1.20201">
        <ele>150</ele>
        <time>2017-11-21T15:59:07Z</time>
      </trkpt>
      <trkpt lat="49.39765" lon="1.20194">
        <ele>150</ele>
        <time>2017-11-21T15:59:07Z</time>
      </trkpt>
      <trkpt lat="49.39767" lon="1.20188">
        <ele>150</ele>
        <time>2017-11-21T15:59:07Z</time>
      </trkpt>
      <trkpt lat="49.39768" lon="1.20181">
        <ele>150</ele>
        <time>2017-11-21T15:59:07Z</time>
      </trkpt>
      <trkpt lat="49.3977" lon="1.20175">
        <ele>150</ele>
        <time>2017-11-21T15:59:23Z</time>
      </trkpt>
      <trkpt lat="49.39772" lon="1.20169">
        <ele>150</ele>
        <time>2017-11-21T15:59:23Z</time>
      </trkpt>
      <trkpt lat="49.39772" lon="1.20164">
        <ele>150</ele>
        <time>2017-11-21T15:59:23Z</time>
      </trkpt>
      <trkpt lat="49.39774" lon="1.20156">
        <ele>150</ele>
        <time>2017-11-21T15:59:23Z</time>
      </trkpt>
      <trkpt lat="49.39774" lon="1.20149">
        <ele>150</ele>
        <time>2017-11-21T15:59:39Z</time>
      </trkpt>
      <trkpt lat="49.39776" lon="1.20143">
        <ele>150</ele>
        <time>2017-11-21T15:59:39Z</time>
      </trkpt>
      <trkpt lat="49.39777" lon="1.20137">
        <ele>150</ele>
        <time>2017-11-21T15:59:39Z</time>
      </trkpt>
      <trkpt lat="49.39778" lon="1.20131">
        <ele>150</ele>
        <time>2017-11-21T15:59:39Z</time>
      </trkpt>
      <trkpt lat="49.39779" lon="1.20125">
        <ele>150</ele>
        <time>2017-11-21T15:59:55Z</time>
      </trkpt>
      <trkpt lat="49.3978" lon="1.20119">
        <ele>151</ele>
        <time>2017-11-21T15:59:55Z</time>
      </trkpt>
      <trkpt lat="49.39783" lon="1.20117">
        <ele>151</ele>
        <time>2017-11-21T15:59:55Z</time>
      </trkpt>
      <trkpt lat="49.39786" lon="1.20115">
        <ele>151</ele>
        <time>2017-11-21T15:59:55Z</time>
      </trkpt>
      <trkpt lat="49.39791" lon="1.20116">
        <ele>151</ele>
        <time>2017-11-21T16:00:11Z</time>
      </trkpt>
      <trkpt lat="49.39795" lon="1.20119">
        <ele>148</ele>
        <time>2017-11-21T16:00:11Z</time>
      </trkpt>
      <trkpt lat="49.39799" lon="1.2012">
        <ele>148</ele>
        <time>2017-11-21T16:00:11Z</time>
      </trkpt>
      <trkpt lat="49.39803" lon="1.20121">
        <ele>148</ele>
        <time>2017-11-21T16:00:11Z</time>
      </trkpt>
      <trkpt lat="49.39808" lon="1.20121">
        <ele>148</ele>
        <time>2017-11-21T16:00:27Z</time>
      </trkpt>
      <trkpt lat="49.39812" lon="1.20121">
        <ele>148</ele>
        <time>2017-11-21T16:00:27Z</time>
      </trkpt>
      <trkpt lat="49.39816" lon="1.20122">
        <ele>148</ele>
        <time>2017-11-21T16:00:27Z</time>
      </trkpt>
      <trkpt lat="49.3982" lon="1.20122">
        <ele>148</ele>
        <time>2017-11-21T16:00:27Z</time>
      </trkpt>
      <trkpt lat="49.39824" lon="1.20123">
        <ele>148</ele>
        <time>2017-11-21T16:00:43Z</time>
      </trkpt>
      <trkpt lat="49.39828" lon="1.20122">
        <ele>148</ele>
        <time>2017-11-21T16:00:43Z</time>
      </trkpt>
      <trkpt lat="49.3983" lon="1.20117">
        <ele>148</ele>
        <time>2017-11-21T16:00:43Z</time>
      </trkpt>
      <trkpt lat="49.39831" lon="1.20112">
        <ele>148</ele>
        <time>2017-11-21T16:00:43Z</time>
      </trkpt>
      <trkpt lat="49.39832" lon="1.20106">
        <ele>148</ele>
        <time>2017-11-21T16:00:59Z</time>
      </trkpt>
      <trkpt lat="49.39832" lon="1.201">
        <ele>148</ele>
        <time>2017-11-21T16:00:59Z</time>
      </trkpt>
      <trkpt lat="49.39833" lon="1.20094">
        <ele>148</ele>
        <time>2017-11-21T16:00:59Z</time>
      </trkpt>
      <trkpt lat="49.39834" lon="1.20089">
        <ele>148</ele>
        <time>2017-11-21T16:00:59Z</time>
      </trkpt>
      <trkpt lat="49.39836" lon="1.20083">
        <ele>148</ele>
        <time>2017-11-21T16:01:15Z</time>
      </trkpt>
      <trkpt lat="49.39837" lon="1.20077">
        <ele>148</ele>
        <time>2017-11-21T16:01:15Z</time>
      </trkpt>
      <trkpt lat="49.39838" lon="1.20072">
        <ele>148</ele>
        <time>2017-11-21T16:01:15Z</time>
      </trkpt>
      <trkpt lat="49.39839" lon="1.20067">
        <ele>148</ele>
        <time>2017-11-21T16:01:15Z</time>
      </trkpt>
      <trkpt lat="49.39841" lon="1.20064">
        <ele>148</ele>
        <time>2017-11-21T16:02:11Z</time>
      </trkpt>
      <trkpt lat="49.39842" lon="1.20062">
        <ele>148</ele>
        <time>2017-11-21T16:02:11Z</time>
      </trkpt>
      <trkpt lat="49.39842" lon="1.20059">
        <ele>148</ele>
        <time>2017-11-21T16:02:11Z</time>
      </trkpt>
      <trkpt lat="49.39842" lon="1.20054">
        <ele>148</ele>
        <time>2017-11-21T16:02:11Z</time>
      </trkpt>
      <trkpt lat="49.39843" lon="1.20049">
        <ele>148</ele>
        <time>2017-11-21T16:02:11Z</time>
      </trkpt>
      <trkpt lat="49.39844" lon="1.20036">
        <ele>147</ele>
        <time>2017-11-21T16:02:39Z</time>
      </trkpt>
      <trkpt lat="49.39844" lon="1.20036">
        <ele>147</ele>
        <time>2017-11-21T16:02:39Z</time>
      </trkpt>
      <trkpt lat="49.39843" lon="1.20035">
        <ele>147</ele>
        <time>2017-11-21T16:02:39Z</time>
      </trkpt>
      <trkpt lat="49.39844" lon="1.2003">
        <ele>147</ele>
        <time>2017-11-21T16:02:39Z</time>
      </trkpt>
      <trkpt lat="49.39845" lon="1.20024">
        <ele>147</ele>
        <time>2017-11-21T16:02:39Z</time>
      </trkpt>
      <trkpt lat="49.39847" lon="1.20018">
        <ele>147</ele>
        <time>2017-11-21T16:02:55Z</time>
      </trkpt>
      <trkpt lat="49.39848" lon="1.20012">
        <ele>147</ele>
        <time>2017-11-21T16:02:55Z</time>
      </trkpt>
      <trkpt lat="49.39849" lon="1.20005">
        <ele>147</ele>
        <time>2017-11-21T16:02:55Z</time>
      </trkpt>
      <trkpt lat="49.3985" lon="1.19999">
        <ele>147</ele>
        <time>2017-11-21T16:02:55Z</time>
      </trkpt>
      <trkpt lat="49.39851" lon="1.19992">
        <ele>147</ele>
        <time>2017-11-21T16:03:11Z</time>
      </trkpt>
      <trkpt lat="49.39852" lon="1.19986">
        <ele>147</ele>
        <time>2017-11-21T16:03:11Z</time>
      </trkpt>
      <trkpt lat="49.39852" lon="1.1998">
        <ele>147</ele>
        <time>2017-11-21T16:03:11Z</time>
      </trkpt>
      <trkpt lat="49.39853" lon="1.19973">
        <ele>147</ele>
        <time>2017-11-21T16:03:11Z</time>
      </trkpt>
      <trkpt lat="49.39854" lon="1.19967">
        <ele>147</ele>
        <time>2017-11-21T16:03:27Z</time>
      </trkpt>
      <trkpt lat="49.39856" lon="1.1996">
        <ele>147</ele>
        <time>2017-11-21T16:03:27Z</time>
      </trkpt>
      <trkpt lat="49.39857" lon="1.19952">
        <ele>148</ele>
        <time>2017-11-21T16:03:27Z</time>
      </trkpt>
      <trkpt lat="49.39858" lon="1.19946">
        <ele>148</ele>
        <time>2017-11-21T16:03:27Z</time>
      </trkpt>
      <trkpt lat="49.39859" lon="1.1994">
        <ele>148</ele>
        <time>2017-11-21T16:03:43Z</time>
      </trkpt>
      <trkpt lat="49.39861" lon="1.19934">
        <ele>148</ele>
        <time>2017-11-21T16:03:43Z</time>
      </trkpt>
      <trkpt lat="49.39862" lon="1.19927">
        <ele>148</ele>
        <time>2017-11-21T16:03:43Z</time>
      </trkpt>
      <trkpt lat="49.39864" lon="1.19921">
        <ele>148</ele>
        <time>2017-11-21T16:03:43Z</time>
      </trkpt>
      <trkpt lat="49.39866" lon="1.19915">
        <ele>148</ele>
        <time>2017-11-21T16:03:59Z</time>
      </trkpt>
      <trkpt lat="49.39867" lon="1.19909">
        <ele>148</ele>
        <time>2017-11-21T16:03:59Z</time>
      </trkpt>
      <trkpt lat="49.39869" lon="1.19902">
        <ele>148</ele>
        <time>2017-11-21T16:03:59Z</time>
      </trkpt>
      <trkpt lat="49.39871" lon="1.19896">
        <ele>148</ele>
        <time>2017-11-21T16:03:59Z</time>
      </trkpt>
      <trkpt lat="49.39873" lon="1.19889">
        <ele>148</ele>
        <time>2017-11-21T16:04:15Z</time>
      </trkpt>
      <trkpt lat="49.39874" lon="1.19883">
        <ele>148</ele>
        <time>2017-11-21T16:04:15Z</time>
      </trkpt>
      <trkpt lat="49.39876" lon="1.19876">
        <ele>144</ele>
        <time>2017-11-21T16:04:15Z</time>
      </trkpt>
      <trkpt lat="49.39877" lon="1.19869">
        <ele>144</ele>
        <time>2017-11-21T16:04:15Z</time>
      </trkpt>
      <trkpt lat="49.39879" lon="1.19862">
        <ele>144</ele>
        <time>2017-11-21T16:04:31Z</time>
      </trkpt>
      <trkpt lat="49.39881" lon="1.19855">
        <ele>144</ele>
        <time>2017-11-21T16:04:31Z</time>
      </trkpt>
      <trkpt lat="49.39882" lon="1.19849">
        <ele>144</ele>
        <time>2017-11-21T16:04:31Z</time>
      </trkpt>
      <trkpt lat="49.39884" lon="1.19842">
        <ele>144</ele>
        <time>2017-11-21T16:04:31Z</time>
      </trkpt>
      <trkpt lat="49.39886" lon="1.19836">
        <ele>144</ele>
        <time>2017-11-21T16:04:47Z</time>
      </trkpt>
      <trkpt lat="49.39887" lon="1.19829">
        <ele>144</ele>
        <time>2017-11-21T16:04:47Z</time>
      </trkpt>
      <trkpt lat="49.39889" lon="1.19823">
        <ele>144</ele>
        <time>2017-11-21T16:04:47Z</time>
      </trkpt>
      <trkpt lat="49.39891" lon="1.19817">
        <ele>144</ele>
        <time>2017-11-21T16:04:47Z</time>
      </trkpt>
      <trkpt lat="49.39892" lon="1.19811">
        <ele>144</ele>
        <time>2017-11-21T16:05:03Z</time>
      </trkpt>
      <trkpt lat="49.39894" lon="1.19805">
        <ele>144</ele>
        <time>2017-11-21T16:05:03Z</time>
      </trkpt>
      <trkpt lat="49.39896" lon="1.19798">
        <ele>144</ele>
        <time>2017-11-21T16:05:03Z</time>
      </trkpt>
      <trkpt lat="49.39897" lon="1.19792">
        <ele>144</ele>
        <time>2017-11-21T16:05:03Z</time>
      </trkpt>
      <trkpt lat="49.39899" lon="1.19786">
        <ele>144</ele>
        <time>2017-11-21T16:05:19Z</time>
      </trkpt>
      <trkpt lat="49.399" lon="1.1978">
        <ele>144</ele>
        <time>2017-11-21T16:05:19Z</time>
      </trkpt>
      <trkpt lat="49.39903" lon="1.19775">
        <ele>144</ele>
        <time>2017-11-21T16:05:19Z</time>
      </trkpt>
      <trkpt lat="49.39905" lon="1.19769">
        <ele>144</ele>
        <time>2017-11-21T16:05:19Z</time>
      </trkpt>
      <trkpt lat="49.39907" lon="1.19764">
        <ele>144</ele>
        <time>2017-11-21T16:05:35Z</time>
      </trkpt>
      <trkpt lat="49.3991" lon="1.19758">
        <ele>144</ele>
        <time>2017-11-21T16:05:35Z</time>
      </trkpt>
      <trkpt lat="49.39912" lon="1.19751">
        <ele>144</ele>
        <time>2017-11-21T16:05:35Z</time>
      </trkpt>
      <trkpt lat="49.39915" lon="1.19745">
        <ele>144</ele>
        <time>2017-11-21T16:05:35Z</time>
      </trkpt>
      <trkpt lat="49.39917" lon="1.19739">
        <ele>144</ele>
        <time>2017-11-21T16:05:51Z</time>
      </trkpt>
      <trkpt lat="49.3992" lon="1.19734">
        <ele>144</ele>
        <time>2017-11-21T16:05:51Z</time>
      </trkpt>
      <trkpt lat="49.39922" lon="1.19728">
        <ele>144</ele>
        <time>2017-11-21T16:05:51Z</time>
      </trkpt>
      <trkpt lat="49.39924" lon="1.19721">
        <ele>144</ele>
        <time>2017-11-21T16:05:51Z</time>
      </trkpt>
      <trkpt lat="49.39926" lon="1.19714">
        <ele>144</ele>
        <time>2017-11-21T16:06:07Z</time>
      </trkpt>
      <trkpt lat="49.39928" lon="1.19708">
        <ele>145</ele>
        <time>2017-11-21T16:06:07Z</time>
      </trkpt>
      <trkpt lat="49.3993" lon="1.19703">
        <ele>145</ele>
        <time>2017-11-21T16:06:07Z</time>
      </trkpt>
      <trkpt lat="49.39933" lon="1.19697">
        <ele>145</ele>
        <time>2017-11-21T16:06:07Z</time>
      </trkpt>
      <trkpt lat="49.39935" lon="1.19692">
        <ele>145</ele>
        <time>2017-11-21T16:06:23Z</time>
      </trkpt>
      <trkpt lat="49.39937" lon="1.19686">
        <ele>145</ele>
        <time>2017-11-21T16:06:23Z</time>
      </trkpt>
      <trkpt lat="49.39939" lon="1.1968">
        <ele>145</ele>
        <time>2017-11-21T16:06:23Z</time>
      </trkpt>
      <trkpt lat="49.39942" lon="1.19674">
        <ele>145</ele>
        <time>2017-11-21T16:06:23Z</time>
      </trkpt>
      <trkpt lat="49.39944" lon="1.19669">
        <ele>145</ele>
        <time>2017-11-21T16:06:39Z</time>
      </trkpt>
      <trkpt lat="49.39947" lon="1.19664">
        <ele>145</ele>
        <time>2017-11-21T16:06:39Z</time>
      </trkpt>
      <trkpt lat="49.3995" lon="1.19659">
        <ele>145</ele>
        <time>2017-11-21T16:06:39Z</time>
      </trkpt>
      <trkpt lat="49.39952" lon="1.19654">
        <ele>145</ele>
        <time>2017-11-21T16:06:39Z</time>
      </trkpt>
      <trkpt lat="49.39955" lon="1.19649">
        <ele>145</ele>
        <time>2017-11-21T16:06:55Z</time>
      </trkpt>
      <trkpt lat="49.39958" lon="1.19645">
        <ele>145</ele>
        <time>2017-11-21T16:06:55Z</time>
      </trkpt>
      <trkpt lat="49.3996" lon="1.19639">
        <ele>144</ele>
        <time>2017-11-21T16:06:55Z</time>
      </trkpt>
      <trkpt lat="49.3996" lon="1.19635">
        <ele>144</ele>
        <time>2017-11-21T16:06:55Z</time>
      </trkpt>
      <trkpt lat="49.39957" lon="1.19629">
        <ele>145</ele>
        <time>2017-11-21T16:07:11Z</time>
      </trkpt>
      <trkpt lat="49.39955" lon="1.19624">
        <ele>146</ele>
        <time>2017-11-21T16:07:11Z</time>
      </trkpt>
      <trkpt lat="49.39952" lon="1.19623">
        <ele>146</ele>
        <time>2017-11-21T16:07:11Z</time>
      </trkpt>
      <trkpt lat="49.39948" lon="1.19619">
        <ele>146</ele>
        <time>2017-11-21T16:07:11Z</time>
      </trkpt>
      <trkpt lat="49.39945" lon="1.19616">
        <ele>146</ele>
        <time>2017-11-21T16:07:27Z</time>
      </trkpt>
      <trkpt lat="49.39941" lon="1.19614">
        <ele>146</ele>
        <time>2017-11-21T16:07:27Z</time>
      </trkpt>
      <trkpt lat="49.39936" lon="1.19613">
        <ele>146</ele>
        <time>2017-11-21T16:07:27Z</time>
      </trkpt>
      <trkpt lat="49.39935" lon="1.19607">
        <ele>146</ele>
        <time>2017-11-21T16:07:27Z</time>
      </trkpt>
      <trkpt lat="49.39936" lon="1.196">
        <ele>146</ele>
        <time>2017-11-21T16:07:43Z</time>
      </trkpt>
      <trkpt lat="49.39938" lon="1.19594">
        <ele>146</ele>
        <time>2017-11-21T16:07:43Z</time>
      </trkpt>
      <trkpt lat="49.39941" lon="1.1959">
        <ele>146</ele>
        <time>2017-11-21T16:07:43Z</time>
      </trkpt>
      <trkpt lat="49.39943" lon="1.19585">
        <ele>146</ele>
        <time>2017-11-21T16:07:43Z</time>
      </trkpt>
      <trkpt lat="49.39945" lon="1.19579">
        <ele>146</ele>
        <time>2017-11-21T16:07:59Z</time>
      </trkpt>
      <trkpt lat="49.39948" lon="1.19572">
        <ele>146</ele>
        <time>2017-11-21T16:07:59Z</time>
      </trkpt>
      <trkpt lat="49.3995" lon="1.19566">
        <ele>146</ele>
        <time>2017-11-21T16:07:59Z</time>
      </trkpt>
      <trkpt lat="49.39953" lon="1.1956">
        <ele>146</ele>
        <time>2017-11-21T16:07:59Z</time>
      </trkpt>
      <trkpt lat="49.39955" lon="1.19555">
        <ele>146</ele>
        <time>2017-11-21T16:08:15Z</time>
      </trkpt>
      <trkpt lat="49.39958" lon="1.1955">
        <ele>146</ele>
        <time>2017-11-21T16:08:15Z</time>
      </trkpt>
      <trkpt lat="49.3996" lon="1.19545">
        <ele>146</ele>
        <time>2017-11-21T16:08:15Z</time>
      </trkpt>
      <trkpt lat="49.39962" lon="1.19539">
        <ele>147</ele>
        <time>2017-11-21T16:08:15Z</time>
      </trkpt>
      <trkpt lat="49.39963" lon="1.19534">
        <ele>147</ele>
        <time>2017-11-21T16:08:31Z</time>
      </trkpt>
      <trkpt lat="49.39966" lon="1.19529">
        <ele>147</ele>
        <time>2017-11-21T16:08:31Z</time>
      </trkpt>
      <trkpt lat="49.39968" lon="1.19525">
        <ele>147</ele>
        <time>2017-11-21T16:08:31Z</time>
      </trkpt>
      <trkpt lat="49.3997" lon="1.19525">
        <ele>147</ele>
        <time>2017-11-21T16:08:31Z</time>
      </trkpt>
      <trkpt lat="49.39973" lon="1.19524">
        <ele>147</ele>
        <time>2017-11-21T16:20:07Z</time>
      </trkpt>
      <trkpt lat="49.39974" lon="1.19521">
        <ele>147</ele>
        <time>2017-11-21T16:20:07Z</time>
      </trkpt>
      <trkpt lat="49.39976" lon="1.19519">
        <ele>147</ele>
        <time>2017-11-21T16:20:07Z</time>
      </trkpt>
      <trkpt lat="49.39977" lon="1.19516">
        <ele>147</ele>
        <time>2017-11-21T16:20:07Z</time>
      </trkpt>
      <trkpt lat="49.39979" lon="1.19512">
        <ele>147</ele>
        <time>2017-11-21T16:20:07Z</time>
      </trkpt>
      <trkpt lat="49.39983" lon="1.19503">
        <ele>147</ele>
        <time>2017-11-21T16:21:31Z</time>
      </trkpt>
      <trkpt lat="49.39983" lon="1.19503">
        <ele>147</ele>
        <time>2017-11-21T16:21:31Z</time>
      </trkpt>
      <trkpt lat="49.39985" lon="1.19501">
        <ele>147</ele>
        <time>2017-11-21T16:21:31Z</time>
      </trkpt>
      <trkpt lat="49.39987" lon="1.19498">
        <ele>147</ele>
        <time>2017-11-21T16:21:31Z</time>
      </trkpt>
      <trkpt lat="49.3999" lon="1.19492">
        <ele>147</ele>
        <time>2017-11-21T16:21:31Z</time>
      </trkpt>
      <trkpt lat="49.39993" lon="1.19488">
        <ele>147</ele>
        <time>2017-11-21T16:21:47Z</time>
      </trkpt>
      <trkpt lat="49.39997" lon="1.19483">
        <ele>147</ele>
        <time>2017-11-21T16:21:47Z</time>
      </trkpt>
      <trkpt lat="49.40001" lon="1.19479">
        <ele>147</ele>
        <time>2017-11-21T16:21:47Z</time>
      </trkpt>
      <trkpt lat="49.40004" lon="1.19475">
        <ele>147</ele>
        <time>2017-11-21T16:21:47Z</time>
      </trkpt>
      <trkpt lat="49.40008" lon="1.19472">
        <ele>147</ele>
        <time>2017-11-21T16:22:03Z</time>
      </trkpt>
      <trkpt lat="49.40011" lon="1.19468">
        <ele>147</ele>
        <time>2017-11-21T16:22:03Z</time>
      </trkpt>
      <trkpt lat="49.40014" lon="1.19463">
        <ele>147</ele>
        <time>2017-11-21T16:22:03Z</time>
      </trkpt>
      <trkpt lat="49.40018" lon="1.19458">
        <ele>147</ele>
        <time>2017-11-21T16:22:03Z</time>
      </trkpt>
      <trkpt lat="49.40021" lon="1.19453">
        <ele>147</ele>
        <time>2017-11-21T16:22:19Z</time>
      </trkpt>
      <trkpt lat="49.40025" lon="1.19448">
        <ele>147</ele>
        <time>2017-11-21T16:22:19Z</time>
      </trkpt>
      <trkpt lat="49.40028" lon="1.19442">
        <ele>147</ele>
        <time>2017-11-21T16:22:19Z</time>
      </trkpt>
      <trkpt lat="49.40031" lon="1.19436">
        <ele>147</ele>
        <time>2017-11-21T16:22:19Z</time>
      </trkpt>
      <trkpt lat="49.40035" lon="1.19431">
        <ele>147</ele>
        <time>2017-11-21T16:22:35Z</time>
      </trkpt>
      <trkpt lat="49.40038" lon="1.19426">
        <ele>147</ele>
        <time>2017-11-21T16:22:35Z</time>
      </trkpt>
      <trkpt lat="49.40041" lon="1.1942">
        <ele>147</ele>
        <time>2017-11-21T16:22:35Z</time>
      </trkpt>
      <trkpt lat="49.40044" lon="1.19415">
        <ele>150</ele>
        <time>2017-11-21T16:22:35Z</time>
      </trkpt>
      <trkpt lat="49.40047" lon="1.19409">
        <ele>150</ele>
        <time>2017-11-21T16:22:51Z</time>
      </trkpt>
      <trkpt lat="49.40051" lon="1.19404">
        <ele>150</ele>
        <time>2017-11-21T16:22:51Z</time>
      </trkpt>
      <trkpt lat="49.40054" lon="1.19399">
        <ele>150</ele>
        <time>2017-11-21T16:22:51Z</time>
      </trkpt>
      <trkpt lat="49.40057" lon="1.19394">
        <ele>150</ele>
        <time>2017-11-21T16:22:51Z</time>
      </trkpt>
      <trkpt lat="49.40059" lon="1.19389">
        <ele>150</ele>
        <time>2017-11-21T16:23:07Z</time>
      </trkpt>
      <trkpt lat="49.40063" lon="1.19382">
        <ele>150</ele>
        <time>2017-11-21T16:23:07Z</time>
      </trkpt>
      <trkpt lat="49.40066" lon="1.19377">
        <ele>150</ele>
        <time>2017-11-21T16:23:07Z</time>
      </trkpt>
      <trkpt lat="49.40069" lon="1.19372">
        <ele>152</ele>
        <time>2017-11-21T16:23:07Z</time>
      </trkpt>
      <trkpt lat="49.40072" lon="1.19367">
        <ele>152</ele>
        <time>2017-11-21T16:23:23Z</time>
      </trkpt>
      <trkpt lat="49.40075" lon="1.19362">
        <ele>152</ele>
        <time>2017-11-21T16:23:23Z</time>
      </trkpt>
      <trkpt lat="49.40078" lon="1.19357">
        <ele>152</ele>
        <time>2017-11-21T16:23:23Z</time>
      </trkpt>
      <trkpt lat="49.4008" lon="1.19352">
        <ele>152</ele>
        <time>2017-11-21T16:23:23Z</time>
      </trkpt>
      <trkpt lat="49.40083" lon="1.19347">
        <ele>152</ele>
        <time>2017-11-21T16:23:39Z</time>
      </trkpt>
      <trkpt lat="49.40086" lon="1.19341">
        <ele>152</ele>
        <time>2017-11-21T16:23:39Z</time>
      </trkpt>
      <trkpt lat="49.40089" lon="1.19336">
        <ele>152</ele>
        <time>2017-11-21T16:23:39Z</time>
      </trkpt>
      <trkpt lat="49.40093" lon="1.19331">
        <ele>152</ele>
        <time>2017-11-21T16:23:39Z</time>
      </trkpt>
      <trkpt lat="49.40096" lon="1.19325">
        <ele>152</ele>
        <time>2017-11-21T16:23:55Z</time>
      </trkpt>
      <trkpt lat="49.40099" lon="1.1932">
        <ele>152</ele>
        <time>2017-11-21T16:23:55Z</time>
      </trkpt>
      <trkpt lat="49.40102" lon="1.19315">
        <ele>152</ele>
        <time>2017-11-21T16:23:55Z</time>
      </trkpt>
      <trkpt lat="49.40105" lon="1.19309">
        <ele>152</ele>
        <time>2017-11-21T16:23:55Z</time>
      </trkpt>
      <trkpt lat="49.40108" lon="1.19304">
        <ele>152</ele>
        <time>2017-11-21T16:24:11Z</time>
      </trkpt>
      <trkpt lat="49.40111" lon="1.19299">
        <ele>152</ele>
        <time>2017-11-21T16:24:11Z</time>
      </trkpt>
      <trkpt lat="49.40114" lon="1.19294">
        <ele>152</ele>
        <time>2017-11-21T16:24:11Z</time>
      </trkpt>
      <trkpt lat="49.40118" lon="1.19289">
        <ele>151</ele>
        <time>2017-11-21T16:24:11Z</time>
      </trkpt>
      <trkpt lat="49.40121" lon="1.19283">
        <ele>151</ele>
        <time>2017-11-21T16:24:27Z</time>
      </trkpt>
      <trkpt lat="49.40124" lon="1.19278">
        <ele>151</ele>
        <time>2017-11-21T16:24:27Z</time>
      </trkpt>
      <trkpt lat="49.40127" lon="1.19273">
        <ele>154</ele>
        <time>2017-11-21T16:24:27Z</time>
      </trkpt>
      <trkpt lat="49.4013" lon="1.19267">
        <ele>154</ele>
        <time>2017-11-21T16:24:27Z</time>
      </trkpt>
      <trkpt lat="49.40133" lon="1.19262">
        <ele>154</ele>
        <time>2017-11-21T16:24:43Z</time>
      </trkpt>
      <trkpt lat="49.40137" lon="1.19257">
        <ele>154</ele>
        <time>2017-11-21T16:24:43Z</time>
      </trkpt>
      <trkpt lat="49.4014" lon="1.19252">
        <ele>154</ele>
        <time>2017-11-21T16:24:43Z</time>
      </trkpt>
      <trkpt lat="49.40143" lon="1.19247">
        <ele>154</ele>
        <time>2017-11-21T16:24:43Z</time>
      </trkpt>
      <trkpt lat="49.40146" lon="1.19241">
        <ele>154</ele>
        <time>2017-11-21T16:24:59Z</time>
      </trkpt>
      <trkpt lat="49.40149" lon="1.19236">
        <ele>154</ele>
        <time>2017-11-21T16:24:59Z</time>
      </trkpt>
      <trkpt lat="49.40152" lon="1.1923">
        <ele>154</ele>
        <time>2017-11-21T16:24:59Z</time>
      </trkpt>
      <trkpt lat="49.40155" lon="1.19225">
        <ele>154</ele>
        <time>2017-11-21T16:24:59Z</time>
      </trkpt>
      <trkpt lat="49.40158" lon="1.19219">
        <ele>154</ele>
        <time>2017-11-21T16:25:15Z</time>
      </trkpt>
      <trkpt lat="49.4016" lon="1.19213">
        <ele>154</ele>
        <time>2017-11-21T16:25:15Z</time>
      </trkpt>
      <trkpt lat="49.40163" lon="1.19207">
        <ele>155</ele>
        <time>2017-11-21T16:25:15Z</time>
      </trkpt>
      <trkpt lat="49.40166" lon="1.192">
        <ele>155</ele>
        <time>2017-11-21T16:25:15Z</time>
      </trkpt>
      <trkpt lat="49.40168" lon="1.19194">
        <ele>155</ele>
        <time>2017-11-21T16:25:31Z</time>
      </trkpt>
      <trkpt lat="49.40171" lon="1.19189">
        <ele>155</ele>
        <time>2017-11-21T16:25:31Z</time>
      </trkpt>
      <trkpt lat="49.40174" lon="1.19183">
        <ele>155</ele>
        <time>2017-11-21T16:25:31Z</time>
      </trkpt>
      <trkpt lat="49.40177" lon="1.19178">
        <ele>155</ele>
        <time>2017-11-21T16:25:31Z</time>
      </trkpt>
      <trkpt lat="49.4018" lon="1.19172">
        <ele>155</ele>
        <time>2017-11-21T16:25:47Z</time>
      </trkpt>
      <trkpt lat="49.40183" lon="1.19166">
        <ele>155</ele>
        <time>2017-11-21T16:25:47Z</time>
      </trkpt>
      <trkpt lat="49.40185" lon="1.19159">
        <ele>155</ele>
        <time>2017-11-21T16:25:47Z</time>
      </trkpt>
      <trkpt lat="49.40188" lon="1.19153">
        <ele>155</ele>
        <time>2017-11-21T16:25:47Z</time>
      </trkpt>
      <trkpt lat="49.40191" lon="1.19147">
        <ele>155</ele>
        <time>2017-11-21T16:26:03Z</time>
      </trkpt>
      <trkpt lat="49.40193" lon="1.19141">
        <ele>155</ele>
        <time>2017-11-21T16:26:03Z</time>
      </trkpt>
      <trkpt lat="49.40196" lon="1.19135">
        <ele>155</ele>
        <time>2017-11-21T16:26:03Z</time>
      </trkpt>
      <trkpt lat="49.40199" lon="1.19128">
        <ele>155</ele>
        <time>2017-11-21T16:26:03Z</time>
      </trkpt>
      <trkpt lat="49.40201" lon="1.19122">
        <ele>156</ele>
        <time>2017-11-21T16:26:19Z</time>
      </trkpt>
      <trkpt lat="49.40204" lon="1.19116">
        <ele>156</ele>
        <time>2017-11-21T16:26:19Z</time>
      </trkpt>
      <trkpt lat="49.40207" lon="1.1911">
        <ele>156</ele>
        <time>2017-11-21T16:26:19Z</time>
      </trkpt>
      <trkpt lat="49.4021" lon="1.19104">
        <ele>156</ele>
        <time>2017-11-21T16:26:19Z</time>
      </trkpt>
      <trkpt lat="49.40212" lon="1.19098">
        <ele>156</ele>
        <time>2017-11-21T16:26:35Z</time>
      </trkpt>
      <trkpt lat="49.40215" lon="1.19091">
        <ele>156</ele>
        <time>2017-11-21T16:26:35Z</time>
      </trkpt>
      <trkpt lat="49.40218" lon="1.19085">
        <ele>156</ele>
        <time>2017-11-21T16:26:35Z</time>
      </trkpt>
      <trkpt lat="49.4022" lon="1.19079">
        <ele>156</ele>
        <time>2017-11-21T16:26:35Z</time>
      </trkpt>
      <trkpt lat="49.40223" lon="1.19072">
        <ele>156</ele>
        <time>2017-11-21T16:26:51Z</time>
      </trkpt>
      <trkpt lat="49.40226" lon="1.19067">
        <ele>156</ele>
        <time>2017-11-21T16:26:51Z</time>
      </trkpt>
      <trkpt lat="49.40228" lon="1.1906">
        <ele>156</ele>
        <time>2017-11-21T16:26:51Z</time>
      </trkpt>
      <trkpt lat="49.4023" lon="1.19054">
        <ele>156</ele>
        <time>2017-11-21T16:26:51Z</time>
      </trkpt>
      <trkpt lat="49.40233" lon="1.19048">
        <ele>156</ele>
        <time>2017-11-21T16:27:07Z</time>
      </trkpt>
      <trkpt lat="49.40235" lon="1.19042">
        <ele>156</ele>
        <time>2017-11-21T16:27:07Z</time>
      </trkpt>
      <trkpt lat="49.40238" lon="1.19036">
        <ele>156</ele>
        <time>2017-11-21T16:27:07Z</time>
      </trkpt>
      <trkpt lat="49.4024" lon="1.1903">
        <ele>156</ele>
        <time>2017-11-21T16:27:07Z</time>
      </trkpt>
      <trkpt lat="49.40243" lon="1.19023">
        <ele>156</ele>
        <time>2017-11-21T16:27:23Z</time>
      </trkpt>
      <trkpt lat="49.40245" lon="1.19017">
        <ele>156</ele>
        <time>2017-11-21T16:27:23Z</time>
      </trkpt>
      <trkpt lat="49.40248" lon="1.1901">
        <ele>156</ele>
        <time>2017-11-21T16:27:23Z</time>
      </trkpt>
      <trkpt lat="49.40251" lon="1.19004">
        <ele>156</ele>
        <time>2017-11-21T16:27:23Z</time>
      </trkpt>
      <trkpt lat="49.40253" lon="1.18998">
        <ele>156</ele>
        <time>2017-11-21T16:27:39Z</time>
      </trkpt>
      <trkpt lat="49.40255" lon="1.18992">
        <ele>156</ele>
        <time>2017-11-21T16:27:39Z</time>
      </trkpt>
      <trkpt lat="49.40257" lon="1.18985">
        <ele>156</ele>
        <time>2017-11-21T16:27:39Z</time>
      </trkpt>
      <trkpt lat="49.40259" lon="1.18979">
        <ele>156</ele>
        <time>2017-11-21T16:27:39Z</time>
      </trkpt>
      <trkpt lat="49.40262" lon="1.18973">
        <ele>156</ele>
        <time>2017-11-21T16:27:55Z</time>
      </trkpt>
      <trkpt lat="49.40264" lon="1.18967">
        <ele>156</ele>
        <time>2017-11-21T16:27:55Z</time>
      </trkpt>
      <trkpt lat="49.40267" lon="1.18963">
        <ele>156</ele>
        <time>2017-11-21T16:27:55Z</time>
      </trkpt>
      <trkpt lat="49.40268" lon="1.18957">
        <ele>156</ele>
        <time>2017-11-21T16:27:55Z</time>
      </trkpt>
      <trkpt lat="49.40268" lon="1.18954">
        <ele>156</ele>
        <time>2017-11-21T16:29:19Z</time>
      </trkpt>
      <trkpt lat="49.40269" lon="1.18946">
        <ele>156</ele>
        <time>2017-11-21T16:29:19Z</time>
      </trkpt>
      <trkpt lat="49.4027" lon="1.18939">
        <ele>156</ele>
        <time>2017-11-21T16:29:19Z</time>
      </trkpt>
      <trkpt lat="49.4027" lon="1.18931">
        <ele>156</ele>
        <time>2017-11-21T16:29:19Z</time>
      </trkpt>
      <trkpt lat="49.40271" lon="1.18925">
        <ele>156</ele>
        <time>2017-11-21T16:29:19Z</time>
      </trkpt>
      <trkpt lat="49.40272" lon="1.18918">
        <ele>156</ele>
        <time>2017-11-21T16:29:35Z</time>
      </trkpt>
      <trkpt lat="49.40272" lon="1.18912">
        <ele>156</ele>
        <time>2017-11-21T16:29:35Z</time>
      </trkpt>
      <trkpt lat="49.40273" lon="1.18905">
        <ele>156</ele>
        <time>2017-11-21T16:29:35Z</time>
      </trkpt>
      <trkpt lat="49.40273" lon="1.18898">
        <ele>156</ele>
        <time>2017-11-21T16:29:35Z</time>
      </trkpt>
      <trkpt lat="49.40274" lon="1.18891">
        <ele>156</ele>
        <time>2017-11-21T16:29:51Z</time>
      </trkpt>
      <trkpt lat="49.40274" lon="1.18884">
        <ele>156</ele>
        <time>2017-11-21T16:29:51Z</time>
      </trkpt>
      <trkpt lat="49.40275" lon="1.18877">
        <ele>156</ele>
        <time>2017-11-21T16:29:51Z</time>
      </trkpt>
      <trkpt lat="49.40276" lon="1.1887">
        <ele>158</ele>
        <time>2017-11-21T16:29:51Z</time>
      </trkpt>
      <trkpt lat="49.40277" lon="1.18863">
        <ele>158</ele>
        <time>2017-11-21T16:30:07Z</time>
      </trkpt>
      <trkpt lat="49.40277" lon="1.18857">
        <ele>158</ele>
        <time>2017-11-21T16:30:07Z</time>
      </trkpt>
      <trkpt lat="49.40277" lon="1.18851">
        <ele>158</ele>
        <time>2017-11-21T16:30:07Z</time>
      </trkpt>
      <trkpt lat="49.40278" lon="1.18847">
        <ele>158</ele>
        <time>2017-11-21T16:30:07Z</time>
      </trkpt>
      <trkpt lat="49.40278" lon="1.18841">
        <ele>158</ele>
        <time>2017-11-21T16:30:23Z</time>
      </trkpt>
      <trkpt lat="49.40279" lon="1.18835">
        <ele>158</ele>
        <time>2017-11-21T16:30:23Z</time>
      </trkpt>
      <trkpt lat="49.40279" lon="1.18828">
        <ele>158</ele>
        <time>2017-11-21T16:30:23Z</time>
      </trkpt>
      <trkpt lat="49.40281" lon="1.18822">
        <ele>158</ele>
        <time>2017-11-21T16:30:23Z</time>
      </trkpt>
      <trkpt lat="49.40281" lon="1.18815">
        <ele>158</ele>
        <time>2017-11-21T16:30:39Z</time>
      </trkpt>
      <trkpt lat="49.40282" lon="1.18808">
        <ele>158</ele>
        <time>2017-11-21T16:30:39Z</time>
      </trkpt>
      <trkpt lat="49.40282" lon="1.18801">
        <ele>158</ele>
        <time>2017-11-21T16:30:39Z</time>
      </trkpt>
      <trkpt lat="49.40283" lon="1.18794">
        <ele>158</ele>
        <time>2017-11-21T16:30:39Z</time>
      </trkpt>
      <trkpt lat="49.40283" lon="1.18787">
        <ele>156</ele>
        <time>2017-11-21T16:30:55Z</time>
      </trkpt>
      <trkpt lat="49.40284" lon="1.18781">
        <ele>156</ele>
        <time>2017-11-21T16:30:55Z</time>
      </trkpt>
      <trkpt lat="49.40285" lon="1.18774">
        <ele>156</ele>
        <time>2017-11-21T16:30:55Z</time>
      </trkpt>
      <trkpt lat="49.40286" lon="1.18768">
        <ele>156</ele>
        <time>2017-11-21T16:30:55Z</time>
      </trkpt>
      <trkpt lat="49.40287" lon="1.18761">
        <ele>156</ele>
        <time>2017-11-21T16:31:11Z</time>
      </trkpt>
      <trkpt lat="49.40288" lon="1.18754">
        <ele>156</ele>
        <time>2017-11-21T16:31:11Z</time>
      </trkpt>
      <trkpt lat="49.40288" lon="1.18748">
        <ele>156</ele>
        <time>2017-11-21T16:31:11Z</time>
      </trkpt>
      <trkpt lat="49.40289" lon="1.18742">
        <ele>156</ele>
        <time>2017-11-21T16:31:11Z</time>
      </trkpt>
      <trkpt lat="49.4029" lon="1.18735">
        <ele>156</ele>
        <time>2017-11-21T16:31:27Z</time>
      </trkpt>
      <trkpt lat="49.4029" lon="1.18729">
        <ele>156</ele>
        <time>2017-11-21T16:31:27Z</time>
      </trkpt>
      <trkpt lat="49.40291" lon="1.18722">
        <ele>156</ele>
        <time>2017-11-21T16:31:27Z</time>
      </trkpt>
      <trkpt lat="49.40292" lon="1.18714">
        <ele>156</ele>
        <time>2017-11-21T16:31:27Z</time>
      </trkpt>
      <trkpt lat="49.40292" lon="1.18707">
        <ele>157</ele>
        <time>2017-11-21T16:31:43Z</time>
      </trkpt>
      <trkpt lat="49.40292" lon="1.18699">
        <ele>157</ele>
        <time>2017-11-21T16:31:43Z</time>
      </trkpt>
      <trkpt lat="49.40293" lon="1.18692">
        <ele>157</ele>
        <time>2017-11-21T16:31:43Z</time>
      </trkpt>
      <trkpt lat="49.40294" lon="1.18684">
        <ele>157</ele>
        <time>2017-11-21T16:31:43Z</time>
      </trkpt>
      <trkpt lat="49.40295" lon="1.18677">
        <ele>157</ele>
        <time>2017-11-21T16:31:59Z</time>
      </trkpt>
      <trkpt lat="49.40296" lon="1.1867">
        <ele>157</ele>
        <time>2017-11-21T16:31:59Z</time>
      </trkpt>
      <trkpt lat="49.40296" lon="1.18663">
        <ele>157</ele>
        <time>2017-11-21T16:31:59Z</time>
      </trkpt>
      <trkpt lat="49.40297" lon="1.18656">
        <ele>157</ele>
        <time>2017-11-21T16:31:59Z</time>
      </trkpt>
      <trkpt lat="49.40298" lon="1.18649">
        <ele>157</ele>
        <time>2017-11-21T16:32:15Z</time>
      </trkpt>
      <trkpt lat="49.40298" lon="1.18642">
        <ele>157</ele>
        <time>2017-11-21T16:32:15Z</time>
      </trkpt>
      <trkpt lat="49.40299" lon="1.18636">
        <ele>157</ele>
        <time>2017-11-21T16:32:15Z</time>
      </trkpt>
      <trkpt lat="49.403" lon="1.18629">
        <ele>157</ele>
        <time>2017-11-21T16:32:15Z</time>
      </trkpt>
      <trkpt lat="49.403" lon="1.18622">
        <ele>157</ele>
        <time>2017-11-21T16:32:31Z</time>
      </trkpt>
      <trkpt lat="49.40301" lon="1.18615">
        <ele>157</ele>
        <time>2017-11-21T16:32:31Z</time>
      </trkpt>
      <trkpt lat="49.40302" lon="1.18608">
        <ele>157</ele>
        <time>2017-11-21T16:32:31Z</time>
      </trkpt>
      <trkpt lat="49.40303" lon="1.186">
        <ele>157</ele>
        <time>2017-11-21T16:32:31Z</time>
      </trkpt>
      <trkpt lat="49.40304" lon="1.18593">
        <ele>157</ele>
        <time>2017-11-21T16:32:47Z</time>
      </trkpt>
      <trkpt lat="49.40305" lon="1.18586">
        <ele>157</ele>
        <time>2017-11-21T16:32:47Z</time>
      </trkpt>
      <trkpt lat="49.40306" lon="1.18578">
        <ele>157</ele>
        <time>2017-11-21T16:32:47Z</time>
      </trkpt>
      <trkpt lat="49.40307" lon="1.18571">
        <ele>157</ele>
        <time>2017-11-21T16:32:47Z</time>
      </trkpt>
      <trkpt lat="49.40307" lon="1.18564">
        <ele>157</ele>
        <time>2017-11-21T16:33:03Z</time>
      </trkpt>
      <trkpt lat="49.40308" lon="1.18557">
        <ele>157</ele>
        <time>2017-11-21T16:33:03Z</time>
      </trkpt>
      <trkpt lat="49.40309" lon="1.1855">
        <ele>157</ele>
        <time>2017-11-21T16:33:03Z</time>
      </trkpt>
      <trkpt lat="49.40311" lon="1.18543">
        <ele>157</ele>
        <time>2017-11-21T16:33:03Z</time>
      </trkpt>
      <trkpt lat="49.40313" lon="1.18536">
        <ele>157</ele>
        <time>2017-11-21T16:33:19Z</time>
      </trkpt>
      <trkpt lat="49.40314" lon="1.1853">
        <ele>157</ele>
        <time>2017-11-21T16:33:19Z</time>
      </trkpt>
      <trkpt lat="49.40315" lon="1.18523">
        <ele>157</ele>
        <time>2017-11-21T16:33:19Z</time>
      </trkpt>
      <trkpt lat="49.40316" lon="1.18516">
        <ele>157</ele>
        <time>2017-11-21T16:33:19Z</time>
      </trkpt>
      <trkpt lat="49.40317" lon="1.18509">
        <ele>157</ele>
        <time>2017-11-21T16:33:35Z</time>
      </trkpt>
      <trkpt lat="49.40318" lon="1.18502">
        <ele>157</ele>
        <time>2017-11-21T16:33:35Z</time>
      </trkpt>
      <trkpt lat="49.40318" lon="1.18495">
        <ele>157</ele>
        <time>2017-11-21T16:33:35Z</time>
      </trkpt>
      <trkpt lat="49.40319" lon="1.18488">
        <ele>157</ele>
        <time>2017-11-21T16:33:35Z</time>
      </trkpt>
      <trkpt lat="49.40316" lon="1.18474">
        <ele>157</ele>
        <time>2017-11-21T16:35:47Z</time>
      </trkpt>
      <trkpt lat="49.40316" lon="1.18472">
        <ele>157</ele>
        <time>2017-11-21T16:35:47Z</time>
      </trkpt>
      <trkpt lat="49.40317" lon="1.18464">
        <ele>157</ele>
        <time>2017-11-21T16:35:47Z</time>
      </trkpt>
      <trkpt lat="49.40319" lon="1.18457">
        <ele>157</ele>
        <time>2017-11-21T16:35:47Z</time>
      </trkpt>
      <trkpt lat="49.40319" lon="1.18451">
        <ele>157</ele>
        <time>2017-11-21T16:35:47Z</time>
      </trkpt>
      <trkpt lat="49.4032" lon="1.18444">
        <ele>157</ele>
        <time>2017-11-21T16:36:03Z</time>
      </trkpt>
      <trkpt lat="49.40321" lon="1.18437">
        <ele>157</ele>
        <time>2017-11-21T16:36:03Z</time>
      </trkpt>
      <trkpt lat="49.40323" lon="1.1843">
        <ele>157</ele>
        <time>2017-11-21T16:36:03Z</time>
      </trkpt>
      <trkpt lat="49.40325" lon="1.18424">
        <ele>157</ele>
        <time>2017-11-21T16:36:03Z</time>
      </trkpt>
      <trkpt lat="49.40324" lon="1.18417">
        <ele>157</ele>
        <time>2017-11-21T16:36:19Z</time>
      </trkpt>
      <trkpt lat="49.40324" lon="1.18409">
        <ele>157</ele>
        <time>2017-11-21T16:36:19Z</time>
      </trkpt>
      <trkpt lat="49.40324" lon="1.18401">
        <ele>157</ele>
        <time>2017-11-21T16:36:19Z</time>
      </trkpt>
      <trkpt lat="49.40324" lon="1.18393">
        <ele>157</ele>
        <time>2017-11-21T16:36:19Z</time>
      </trkpt>
      <trkpt lat="49.40324" lon="1.18386">
        <ele>157</ele>
        <time>2017-11-21T16:36:35Z</time>
      </trkpt>
      <trkpt lat="49.40324" lon="1.18379">
        <ele>157</ele>
        <time>2017-11-21T16:36:35Z</time>
      </trkpt>
      <trkpt lat="49.40324" lon="1.18371">
        <ele>156</ele>
        <time>2017-11-21T16:36:35Z</time>
      </trkpt>
      <trkpt lat="49.40324" lon="1.18364">
        <ele>156</ele>
        <time>2017-11-21T16:36:35Z</time>
      </trkpt>
      <trkpt lat="49.40325" lon="1.18357">
        <ele>156</ele>
        <time>2017-11-21T16:36:51Z</time>
      </trkpt>
      <trkpt lat="49.40326" lon="1.1835">
        <ele>156</ele>
        <time>2017-11-21T16:36:51Z</time>
      </trkpt>
      <trkpt lat="49.40327" lon="1.18343">
        <ele>156</ele>
        <time>2017-11-21T16:36:51Z</time>
      </trkpt>
      <trkpt lat="49.40328" lon="1.18336">
        <ele>156</ele>
        <time>2017-11-21T16:36:51Z</time>
      </trkpt>
      <trkpt lat="49.40329" lon="1.18329">
        <ele>156</ele>
        <time>2017-11-21T16:37:07Z</time>
      </trkpt>
      <trkpt lat="49.4033" lon="1.18321">
        <ele>156</ele>
        <time>2017-11-21T16:37:07Z</time>
      </trkpt>
      <trkpt lat="49.40331" lon="1.18314">
        <ele>156</ele>
        <time>2017-11-21T16:37:07Z</time>
      </trkpt>
      <trkpt lat="49.40331" lon="1.18306">
        <ele>156</ele>
        <time>2017-11-21T16:37:07Z</time>
      </trkpt>
      <trkpt lat="49.40333" lon="1.18299">
        <ele>156</ele>
        <time>2017-11-21T16:37:23Z</time>
      </trkpt>
      <trkpt lat="49.40334" lon="1.18291">
        <ele>156</ele>
        <time>2017-11-21T16:37:23Z</time>
      </trkpt>
      <trkpt lat="49.40335" lon="1.18284">
        <ele>156</ele>
        <time>2017-11-21T16:37:23Z</time>
      </trkpt>
      <trkpt lat="49.40336" lon="1.18277">
        <ele>156</ele>
        <time>2017-11-21T16:37:23Z</time>
      </trkpt>
      <trkpt lat="49.40337" lon="1.1827">
        <ele>156</ele>
        <time>2017-11-21T16:37:39Z</time>
      </trkpt>
      <trkpt lat="49.40339" lon="1.18263">
        <ele>156</ele>
        <time>2017-11-21T16:37:39Z</time>
      </trkpt>
      <trkpt lat="49.40339" lon="1.18255">
        <ele>156</ele>
        <time>2017-11-21T16:37:39Z</time>
      </trkpt>
      <trkpt lat="49.40337" lon="1.18248">
        <ele>156</ele>
        <time>2017-11-21T16:37:39Z</time>
      </trkpt>
      <trkpt lat="49.40333" lon="1.18243">
        <ele>156</ele>
        <time>2017-11-21T16:37:55Z</time>
      </trkpt>
      <trkpt lat="49.40329" lon="1.18239">
        <ele>156</ele>
        <time>2017-11-21T16:37:55Z</time>
      </trkpt>
      <trkpt lat="49.40325" lon="1.18235">
        <ele>156</ele>
        <time>2017-11-21T16:37:55Z</time>
      </trkpt>
      <trkpt lat="49.4032" lon="1.18232">
        <ele>156</ele>
        <time>2017-11-21T16:37:55Z</time>
      </trkpt>
      <trkpt lat="49.40316" lon="1.18229">
        <ele>156</ele>
        <time>2017-11-21T16:38:11Z</time>
      </trkpt>
      <trkpt lat="49.40312" lon="1.18225">
        <ele>156</ele>
        <time>2017-11-21T16:38:11Z</time>
      </trkpt>
      <trkpt lat="49.40308" lon="1.18221">
        <ele>156</ele>
        <time>2017-11-21T16:38:11Z</time>
      </trkpt>
      <trkpt lat="49.40304" lon="1.18218">
        <ele>156</ele>
        <time>2017-11-21T16:38:11Z</time>
      </trkpt>
      <trkpt lat="49.40302" lon="1.18213">
        <ele>156</ele>
        <time>2017-11-21T16:38:27Z</time>
      </trkpt>
      <trkpt lat="49.403" lon="1.18208">
        <ele>156</ele>
        <time>2017-11-21T16:38:27Z</time>
      </trkpt>
      <trkpt lat="49.40299" lon="1.18201">
        <ele>156</ele>
        <time>2017-11-21T16:38:27Z</time>
      </trkpt>
      <trkpt lat="49.403" lon="1.18194">
        <ele>156</ele>
        <time>2017-11-21T16:38:27Z</time>
      </trkpt>
      <trkpt lat="49.40301" lon="1.18187">
        <ele>156</ele>
        <time>2017-11-21T16:38:43Z</time>
      </trkpt>
      <trkpt lat="49.40303" lon="1.1818">
        <ele>156</ele>
        <time>2017-11-21T16:38:43Z</time>
      </trkpt>
      <trkpt lat="49.40305" lon="1.18173">
        <ele>156</ele>
        <time>2017-11-21T16:38:43Z</time>
      </trkpt>
      <trkpt lat="49.40306" lon="1.18166">
        <ele>156</ele>
        <time>2017-11-21T16:38:43Z</time>
      </trkpt>
      <trkpt lat="49.40308" lon="1.18159">
        <ele>156</ele>
        <time>2017-11-21T16:38:59Z</time>
      </trkpt>
      <trkpt lat="49.40309" lon="1.18151">
        <ele>156</ele>
        <time>2017-11-21T16:38:59Z</time>
      </trkpt>
      <trkpt lat="49.40309" lon="1.18143">
        <ele>156</ele>
        <time>2017-11-21T16:38:59Z</time>
      </trkpt>
      <trkpt lat="49.40311" lon="1.18136">
        <ele>156</ele>
        <time>2017-11-21T16:38:59Z</time>
      </trkpt>
      <trkpt lat="49.40313" lon="1.18129">
        <ele>156</ele>
        <time>2017-11-21T16:39:15Z</time>
      </trkpt>
      <trkpt lat="49.40315" lon="1.18123">
        <ele>156</ele>
        <time>2017-11-21T16:39:15Z</time>
      </trkpt>
      <trkpt lat="49.40317" lon="1.18116">
        <ele>156</ele>
        <time>2017-11-21T16:39:15Z</time>
      </trkpt>
      <trkpt lat="49.40317" lon="1.18109">
        <ele>156</ele>
        <time>2017-11-21T16:39:15Z</time>
      </trkpt>
      <trkpt lat="49.40319" lon="1.18102">
        <ele>156</ele>
        <time>2017-11-21T16:39:31Z</time>
      </trkpt>
      <trkpt lat="49.4032" lon="1.18095">
        <ele>156</ele>
        <time>2017-11-21T16:39:31Z</time>
      </trkpt>
      <trkpt lat="49.4032" lon="1.18087">
        <ele>156</ele>
        <time>2017-11-21T16:39:31Z</time>
      </trkpt>
      <trkpt lat="49.40321" lon="1.1808">
        <ele>156</ele>
        <time>2017-11-21T16:39:31Z</time>
      </trkpt>
      <trkpt lat="49.40321" lon="1.18073">
        <ele>156</ele>
        <time>2017-11-21T16:39:47Z</time>
      </trkpt>
      <trkpt lat="49.40323" lon="1.18066">
        <ele>156</ele>
        <time>2017-11-21T16:39:47Z</time>
      </trkpt>
      <trkpt lat="49.40323" lon="1.1806">
        <ele>156</ele>
        <time>2017-11-21T16:39:47Z</time>
      </trkpt>
      <trkpt lat="49.40325" lon="1.18053">
        <ele>156</ele>
        <time>2017-11-21T16:39:47Z</time>
      </trkpt>
      <trkpt lat="49.40326" lon="1.18046">
        <ele>156</ele>
        <time>2017-11-21T16:40:03Z</time>
      </trkpt>
      <trkpt lat="49.40328" lon="1.18039">
        <ele>157</ele>
        <time>2017-11-21T16:40:03Z</time>
      </trkpt>
      <trkpt lat="49.40329" lon="1.18033">
        <ele>157</ele>
        <time>2017-11-21T16:40:03Z</time>
      </trkpt>
      <trkpt lat="49.40331" lon="1.18026">
        <ele>157</ele>
        <time>2017-11-21T16:40:03Z</time>
      </trkpt>
      <trkpt lat="49.40332" lon="1.18019">
        <ele>157</ele>
        <time>2017-11-21T16:40:19Z</time>
      </trkpt>
      <trkpt lat="49.40334" lon="1.18013">
        <ele>157</ele>
        <time>2017-11-21T16:40:19Z</time>
      </trkpt>
      <trkpt lat="49.40336" lon="1.18007">
        <ele>157</ele>
        <time>2017-11-21T16:40:19Z</time>
      </trkpt>
      <trkpt lat="49.40337" lon="1.18006">
        <ele>157</ele>
        <time>2017-11-21T16:40:19Z</time>
      </trkpt>
      <trkpt lat="49.40338" lon="1.18002">
        <ele>157</ele>
        <time>2017-11-21T16:40:51Z</time>
      </trkpt>
      <trkpt lat="49.40338" lon="1.18001">
        <ele>157</ele>
        <time>2017-11-21T16:40:51Z</time>
      </trkpt>
      <trkpt lat="49.40338" lon="1.17998">
        <ele>157</ele>
        <time>2017-11-21T16:40:51Z</time>
      </trkpt>
      <trkpt lat="49.40339" lon="1.17994">
        <ele>157</ele>
        <time>2017-11-21T16:40:51Z</time>
      </trkpt>
      <trkpt lat="49.40341" lon="1.17987">
        <ele>157</ele>
        <time>2017-11-21T16:40:51Z</time>
      </trkpt>
      <trkpt lat="49.40343" lon="1.17981">
        <ele>157</ele>
        <time>2017-11-21T16:41:07Z</time>
      </trkpt>
      <trkpt lat="49.40345" lon="1.17975">
        <ele>157</ele>
        <time>2017-11-21T16:41:07Z</time>
      </trkpt>
      <trkpt lat="49.40347" lon="1.17969">
        <ele>157</ele>
        <time>2017-11-21T16:41:07Z</time>
      </trkpt>
      <trkpt lat="49.40348" lon="1.17966">
        <ele>157</ele>
        <time>2017-11-21T16:41:07Z</time>
      </trkpt>
      <trkpt lat="49.40349" lon="1.17963">
        <ele>157</ele>
        <time>2017-11-21T16:41:23Z</time>
      </trkpt>
      <trkpt lat="49.40349" lon="1.17957">
        <ele>155</ele>
        <time>2017-11-21T16:41:23Z</time>
      </trkpt>
      <trkpt lat="49.40351" lon="1.1795">
        <ele>155</ele>
        <time>2017-11-21T16:41:23Z</time>
      </trkpt>
      <trkpt lat="49.40353" lon="1.17943">
        <ele>155</ele>
        <time>2017-11-21T16:41:23Z</time>
      </trkpt>
      <trkpt lat="49.40354" lon="1.17937">
        <ele>155</ele>
        <time>2017-11-21T16:41:39Z</time>
      </trkpt>
      <trkpt lat="49.40356" lon="1.1793">
        <ele>155</ele>
        <time>2017-11-21T16:41:39Z</time>
      </trkpt>
      <trkpt lat="49.40357" lon="1.17923">
        <ele>155</ele>
        <time>2017-11-21T16:41:39Z</time>
      </trkpt>
      <trkpt lat="49.40358" lon="1.17915">
        <ele>155</ele>
        <time>2017-11-21T16:41:39Z</time>
      </trkpt>
      <trkpt lat="49.40359" lon="1.17908">
        <ele>155</ele>
        <time>2017-11-21T16:41:55Z</time>
      </trkpt>
      <trkpt lat="49.4036" lon="1.179">
        <ele>155</ele>
        <time>2017-11-21T16:41:55Z</time>
      </trkpt>
      <trkpt lat="49.4036" lon="1.17893">
        <ele>155</ele>
        <time>2017-11-21T16:41:55Z</time>
      </trkpt>
      <trkpt lat="49.4036" lon="1.17885">
        <ele>155</ele>
        <time>2017-11-21T16:41:55Z</time>
      </trkpt>
      <trkpt lat="49.4036" lon="1.17877">
        <ele>155</ele>
        <time>2017-11-21T16:42:11Z</time>
      </trkpt>
      <trkpt lat="49.40361" lon="1.17869">
        <ele>154</ele>
        <time>2017-11-21T16:42:11Z</time>
      </trkpt>
      <trkpt lat="49.40361" lon="1.17862">
        <ele>154</ele>
        <time>2017-11-21T16:42:11Z</time>
      </trkpt>
      <trkpt lat="49.40361" lon="1.1786">
        <ele>154</ele>
        <time>2017-11-21T16:42:11Z</time>
      </trkpt>
      <trkpt lat="49.40361" lon="1.17856">
        <ele>154</ele>
        <time>2017-11-21T16:42:27Z</time>
      </trkpt>
      <trkpt lat="49.40361" lon="1.17851">
        <ele>154</ele>
        <time>2017-11-21T16:42:27Z</time>
      </trkpt>
      <trkpt lat="49.40362" lon="1.17844">
        <ele>154</ele>
        <time>2017-11-21T16:42:27Z</time>
      </trkpt>
      <trkpt lat="49.40362" lon="1.17837">
        <ele>154</ele>
        <time>2017-11-21T16:42:27Z</time>
      </trkpt>
      <trkpt lat="49.40362" lon="1.1783">
        <ele>154</ele>
        <time>2017-11-21T16:42:43Z</time>
      </trkpt>
      <trkpt lat="49.40364" lon="1.17823">
        <ele>154</ele>
        <time>2017-11-21T16:42:43Z</time>
      </trkpt>
      <trkpt lat="49.40365" lon="1.17817">
        <ele>154</ele>
        <time>2017-11-21T16:42:43Z</time>
      </trkpt>
      <trkpt lat="49.40365" lon="1.1781">
        <ele>154</ele>
        <time>2017-11-21T16:42:43Z</time>
      </trkpt>
      <trkpt lat="49.40366" lon="1.17804">
        <ele>154</ele>
        <time>2017-11-21T16:42:59Z</time>
      </trkpt>
      <trkpt lat="49.40367" lon="1.17798">
        <ele>154</ele>
        <time>2017-11-21T16:42:59Z</time>
      </trkpt>
      <trkpt lat="49.40367" lon="1.17791">
        <ele>153</ele>
        <time>2017-11-21T16:42:59Z</time>
      </trkpt>
      <trkpt lat="49.40368" lon="1.17785">
        <ele>153</ele>
        <time>2017-11-21T16:42:59Z</time>
      </trkpt>
      <trkpt lat="49.40369" lon="1.17778">
        <ele>153</ele>
        <time>2017-11-21T16:43:15Z</time>
      </trkpt>
      <trkpt lat="49.4037" lon="1.17772">
        <ele>153</ele>
        <time>2017-11-21T16:43:15Z</time>
      </trkpt>
      <trkpt lat="49.40371" lon="1.17765">
        <ele>153</ele>
        <time>2017-11-21T16:43:15Z</time>
      </trkpt>
      <trkpt lat="49.40373" lon="1.17759">
        <ele>153</ele>
        <time>2017-11-21T16:43:15Z</time>
      </trkpt>
      <trkpt lat="49.40374" lon="1.17753">
        <ele>153</ele>
        <time>2017-11-21T16:43:31Z</time>
      </trkpt>
      <trkpt lat="49.40375" lon="1.17747">
        <ele>153</ele>
        <time>2017-11-21T16:43:31Z</time>
      </trkpt>
      <trkpt lat="49.40376" lon="1.17741">
        <ele>155</ele>
        <time>2017-11-21T16:43:31Z</time>
      </trkpt>
      <trkpt lat="49.40377" lon="1.17735">
        <ele>155</ele>
        <time>2017-11-21T16:43:31Z</time>
      </trkpt>
      <trkpt lat="49.40378" lon="1.17729">
        <ele>155</ele>
        <time>2017-11-21T16:43:47Z</time>
      </trkpt>
      <trkpt lat="49.40379" lon="1.17722">
        <ele>155</ele>
        <time>2017-11-21T16:43:47Z</time>
      </trkpt>
      <trkpt lat="49.40381" lon="1.17716">
        <ele>155</ele>
        <time>2017-11-21T16:43:47Z</time>
      </trkpt>
      <trkpt lat="49.40382" lon="1.17709">
        <ele>155</ele>
        <time>2017-11-21T16:43:47Z</time>
      </trkpt>
      <trkpt lat="49.40383" lon="1.17703">
        <ele>155</ele>
        <time>2017-11-21T16:44:03Z</time>
      </trkpt>
      <trkpt lat="49.40384" lon="1.17696">
        <ele>155</ele>
        <time>2017-11-21T16:44:03Z</time>
      </trkpt>
      <trkpt lat="49.40385" lon="1.17689">
        <ele>155</ele>
        <time>2017-11-21T16:44:03Z</time>
      </trkpt>
      <trkpt lat="49.40386" lon="1.17683">
        <ele>155</ele>
        <time>2017-11-21T16:44:03Z</time>
      </trkpt>
      <trkpt lat="49.40389" lon="1.17676">
        <ele>155</ele>
        <time>2017-11-21T16:44:19Z</time>
      </trkpt>
      <trkpt lat="49.4039" lon="1.17668">
        <ele>155</ele>
        <time>2017-11-21T16:44:19Z</time>
      </trkpt>
      <trkpt lat="49.40393" lon="1.17662">
        <ele>155</ele>
        <time>2017-11-21T16:44:19Z</time>
      </trkpt>
      <trkpt lat="49.40396" lon="1.17659">
        <ele>155</ele>
        <time>2017-11-21T16:44:19Z</time>
      </trkpt>
      <trkpt lat="49.40398" lon="1.17654">
        <ele>155</ele>
        <time>2017-11-21T16:44:35Z</time>
      </trkpt>
      <trkpt lat="49.404" lon="1.17649">
        <ele>155</ele>
        <time>2017-11-21T16:44:35Z</time>
      </trkpt>
      <trkpt lat="49.40403" lon="1.17643">
        <ele>155</ele>
        <time>2017-11-21T16:44:35Z</time>
      </trkpt>
      <trkpt lat="49.40405" lon="1.17637">
        <ele>155</ele>
        <time>2017-11-21T16:44:35Z</time>
      </trkpt>
      <trkpt lat="49.40408" lon="1.17632">
        <ele>155</ele>
        <time>2017-11-21T16:44:51Z</time>
      </trkpt>
      <trkpt lat="49.4041" lon="1.17625">
        <ele>155</ele>
        <time>2017-11-21T16:44:51Z</time>
      </trkpt>
      <trkpt lat="49.40411" lon="1.17618">
        <ele>155</ele>
        <time>2017-11-21T16:44:51Z</time>
      </trkpt>
      <trkpt lat="49.40412" lon="1.17611">
        <ele>155</ele>
        <time>2017-11-21T16:44:51Z</time>
      </trkpt>
      <trkpt lat="49.40413" lon="1.17605">
        <ele>155</ele>
        <time>2017-11-21T16:45:07Z</time>
      </trkpt>
      <trkpt lat="49.40415" lon="1.17598">
        <ele>155</ele>
        <time>2017-11-21T16:45:07Z</time>
      </trkpt>
      <trkpt lat="49.40416" lon="1.17592">
        <ele>155</ele>
        <time>2017-11-21T16:45:07Z</time>
      </trkpt>
      <trkpt lat="49.40418" lon="1.17586">
        <ele>155</ele>
        <time>2017-11-21T16:45:07Z</time>
      </trkpt>
      <trkpt lat="49.40419" lon="1.1758">
        <ele>155</ele>
        <time>2017-11-21T16:45:23Z</time>
      </trkpt>
      <trkpt lat="49.4042" lon="1.17574">
        <ele>155</ele>
        <time>2017-11-21T16:45:23Z</time>
      </trkpt>
      <trkpt lat="49.40422" lon="1.17567">
        <ele>155</ele>
        <time>2017-11-21T16:45:23Z</time>
      </trkpt>
      <trkpt lat="49.40424" lon="1.1756">
        <ele>155</ele>
        <time>2017-11-21T16:45:23Z</time>
      </trkpt>
      <trkpt lat="49.40425" lon="1.17553">
        <ele>155</ele>
        <time>2017-11-21T16:45:39Z</time>
      </trkpt>
      <trkpt lat="49.40426" lon="1.17546">
        <ele>155</ele>
        <time>2017-11-21T16:45:39Z</time>
      </trkpt>
      <trkpt lat="49.40428" lon="1.17539">
        <ele>155</ele>
        <time>2017-11-21T16:45:39Z</time>
      </trkpt>
      <trkpt lat="49.40429" lon="1.17532">
        <ele>155</ele>
        <time>2017-11-21T16:45:39Z</time>
      </trkpt>
      <trkpt lat="49.4043" lon="1.17525">
        <ele>155</ele>
        <time>2017-11-21T16:45:55Z</time>
      </trkpt>
      <trkpt lat="49.40432" lon="1.17518">
        <ele>155</ele>
        <time>2017-11-21T16:45:55Z</time>
      </trkpt>
      <trkpt lat="49.40433" lon="1.17511">
        <ele>155</ele>
        <time>2017-11-21T16:45:55Z</time>
      </trkpt>
      <trkpt lat="49.40435" lon="1.17504">
        <ele>155</ele>
        <time>2017-11-21T16:45:55Z</time>
      </trkpt>
      <trkpt lat="49.40436" lon="1.17497">
        <ele>155</ele>
        <time>2017-11-21T16:46:11Z</time>
      </trkpt>
      <trkpt lat="49.40438" lon="1.17491">
        <ele>155</ele>
        <time>2017-11-21T16:46:11Z</time>
      </trkpt>
      <trkpt lat="49.40439" lon="1.17484">
        <ele>155</ele>
        <time>2017-11-21T16:46:11Z</time>
      </trkpt>
      <trkpt lat="49.4044" lon="1.17478">
        <ele>155</ele>
        <time>2017-11-21T16:46:11Z</time>
      </trkpt>
      <trkpt lat="49.40441" lon="1.17471">
        <ele>155</ele>
        <time>2017-11-21T16:46:27Z</time>
      </trkpt>
      <trkpt lat="49.40443" lon="1.17464">
        <ele>155</ele>
        <time>2017-11-21T16:46:27Z</time>
      </trkpt>
      <trkpt lat="49.40445" lon="1.17457">
        <ele>154</ele>
        <time>2017-11-21T16:46:27Z</time>
      </trkpt>
      <trkpt lat="49.40446" lon="1.17451">
        <ele>154</ele>
        <time>2017-11-21T16:46:27Z</time>
      </trkpt>
      <trkpt lat="49.40447" lon="1.17444">
        <ele>154</ele>
        <time>2017-11-21T16:46:43Z</time>
      </trkpt>
      <trkpt lat="49.40449" lon="1.17438">
        <ele>154</ele>
        <time>2017-11-21T16:46:43Z</time>
      </trkpt>
      <trkpt lat="49.4045" lon="1.17431">
        <ele>154</ele>
        <time>2017-11-21T16:46:43Z</time>
      </trkpt>
      <trkpt lat="49.40452" lon="1.17425">
        <ele>154</ele>
        <time>2017-11-21T16:46:43Z</time>
      </trkpt>
      <trkpt lat="49.40453" lon="1.17418">
        <ele>154</ele>
        <time>2017-11-21T16:46:59Z</time>
      </trkpt>
      <trkpt lat="49.40455" lon="1.17412">
        <ele>154</ele>
        <time>2017-11-21T16:46:59Z</time>
      </trkpt>
      <trkpt lat="49.40456" lon="1.17405">
        <ele>154</ele>
        <time>2017-11-21T16:46:59Z</time>
      </trkpt>
      <trkpt lat="49.40458" lon="1.17399">
        <ele>154</ele>
        <time>2017-11-21T16:46:59Z</time>
      </trkpt>
      <trkpt lat="49.4046" lon="1.17393">
        <ele>156</ele>
        <time>2017-11-21T16:47:15Z</time>
      </trkpt>
      <trkpt lat="49.40462" lon="1.17387">
        <ele>156</ele>
        <time>2017-11-21T16:47:15Z</time>
      </trkpt>
      <trkpt lat="49.40465" lon="1.17381">
        <ele>156</ele>
        <time>2017-11-21T16:47:15Z</time>
      </trkpt>
      <trkpt lat="49.40467" lon="1.17375">
        <ele>156</ele>
        <time>2017-11-21T16:47:15Z</time>
      </trkpt>
      <trkpt lat="49.40469" lon="1.17369">
        <ele>156</ele>
        <time>2017-11-21T16:47:31Z</time>
      </trkpt>
      <trkpt lat="49.40472" lon="1.17363">
        <ele>156</ele>
        <time>2017-11-21T16:47:31Z</time>
      </trkpt>
      <trkpt lat="49.40474" lon="1.17357">
        <ele>156</ele>
        <time>2017-11-21T16:47:31Z</time>
      </trkpt>
      <trkpt lat="49.40476" lon="1.1735">
        <ele>156</ele>
        <time>2017-11-21T16:47:31Z</time>
      </trkpt>
      <trkpt lat="49.40475" lon="1.17344">
        <ele>156</ele>
        <time>2017-11-21T16:47:47Z</time>
      </trkpt>
      <trkpt lat="49.40475" lon="1.17338">
        <ele>156</ele>
        <time>2017-11-21T16:47:47Z</time>
      </trkpt>
      <trkpt lat="49.40472" lon="1.17335">
        <ele>156</ele>
        <time>2017-11-21T16:47:47Z</time>
      </trkpt>
      <trkpt lat="49.40468" lon="1.17331">
        <ele>156</ele>
        <time>2017-11-21T16:47:47Z</time>
      </trkpt>
      <trkpt lat="49.40463" lon="1.17328">
        <ele>156</ele>
        <time>2017-11-21T16:48:03Z</time>
      </trkpt>
      <trkpt lat="49.4046" lon="1.17325">
        <ele>156</ele>
        <time>2017-11-21T16:48:03Z</time>
      </trkpt>
      <trkpt lat="49.40456" lon="1.1732">
        <ele>153</ele>
        <time>2017-11-21T16:48:03Z</time>
      </trkpt>
      <trkpt lat="49.40452" lon="1.17316">
        <ele>153</ele>
        <time>2017-11-21T16:48:03Z</time>
      </trkpt>
      <trkpt lat="49.40448" lon="1.17312">
        <ele>153</ele>
        <time>2017-11-21T16:48:19Z</time>
      </trkpt>
      <trkpt lat="49.40443" lon="1.17309">
        <ele>153</ele>
        <time>2017-11-21T16:48:19Z</time>
      </trkpt>
      <trkpt lat="49.4044" lon="1.17305">
        <ele>153</ele>
        <time>2017-11-21T16:48:19Z</time>
      </trkpt>
      <trkpt lat="49.40436" lon="1.173">
        <ele>153</ele>
        <time>2017-11-21T16:48:19Z</time>
      </trkpt>
      <trkpt lat="49.40433" lon="1.17296">
        <ele>153</ele>
        <time>2017-11-21T16:48:35Z</time>
      </trkpt>
      <trkpt lat="49.40429" lon="1.17292">
        <ele>153</ele>
        <time>2017-11-21T16:48:35Z</time>
      </trkpt>
      <trkpt lat="49.40425" lon="1.17288">
        <ele>153</ele>
        <time>2017-11-21T16:48:35Z</time>
      </trkpt>
      <trkpt lat="49.40421" lon="1.17283">
        <ele>153</ele>
        <time>2017-11-21T16:48:35Z</time>
      </trkpt>
      <trkpt lat="49.40417" lon="1.1728">
        <ele>153</ele>
        <time>2017-11-21T16:48:51Z</time>
      </trkpt>
      <trkpt lat="49.40413" lon="1.17278">
        <ele>153</ele>
        <time>2017-11-21T16:48:51Z</time>
      </trkpt>
      <trkpt lat="49.40408" lon="1.17275">
        <ele>153</ele>
        <time>2017-11-21T16:48:51Z</time>
      </trkpt>
      <trkpt lat="49.40404" lon="1.17272">
        <ele>153</ele>
        <time>2017-11-21T16:48:51Z</time>
      </trkpt>
      <trkpt lat="49.404" lon="1.1727">
        <ele>153</ele>
        <time>2017-11-21T16:49:07Z</time>
      </trkpt>
      <trkpt lat="49.40396" lon="1.17267">
        <ele>153</ele>
        <time>2017-11-21T16:49:07Z</time>
      </trkpt>
      <trkpt lat="49.40391" lon="1.17264">
        <ele>153</ele>
        <time>2017-11-21T16:49:07Z</time>
      </trkpt>
      <trkpt lat="49.40387" lon="1.17262">
        <ele>153</ele>
        <time>2017-11-21T16:49:07Z</time>
      </trkpt>
      <trkpt lat="49.40383" lon="1.1726">
        <ele>153</ele>
        <time>2017-11-21T16:49:23Z</time>
      </trkpt>
      <trkpt lat="49.40379" lon="1.17257">
        <ele>153</ele>
        <time>2017-11-21T16:49:23Z</time>
      </trkpt>
      <trkpt lat="49.40375" lon="1.17254">
        <ele>153</ele>
        <time>2017-11-21T16:49:23Z</time>
      </trkpt>
      <trkpt lat="49.40371" lon="1.17251">
        <ele>151</ele>
        <time>2017-11-21T16:49:23Z</time>
      </trkpt>
      <trkpt lat="49.40367" lon="1.17248">
        <ele>151</ele>
        <time>2017-11-21T16:49:39Z</time>
      </trkpt>
      <trkpt lat="49.40363" lon="1.17246">
        <ele>151</ele>
        <time>2017-11-21T16:49:39Z</time>
      </trkpt>
      <trkpt lat="49.40359" lon="1.17244">
        <ele>151</ele>
        <time>2017-11-21T16:49:39Z</time>
      </trkpt>
      <trkpt lat="49.40355" lon="1.17242">
        <ele>151</ele>
        <time>2017-11-21T16:49:39Z</time>
      </trkpt>
      <trkpt lat="49.40351" lon="1.1724">
        <ele>151</ele>
        <time>2017-11-21T16:49:55Z</time>
      </trkpt>
      <trkpt lat="49.40346" lon="1.17238">
        <ele>151</ele>
        <time>2017-11-21T16:49:55Z</time>
      </trkpt>
      <trkpt lat="49.40343" lon="1.17237">
        <ele>151</ele>
        <time>2017-11-21T16:49:55Z</time>
      </trkpt>
      <trkpt lat="49.40339" lon="1.17236">
        <ele>151</ele>
        <time>2017-11-21T16:49:55Z</time>
      </trkpt>
      <trkpt lat="49.40335" lon="1.17236">
        <ele>151</ele>
        <time>2017-11-21T16:50:11Z</time>
      </trkpt>
      <trkpt lat="49.40332" lon="1.17234">
        <ele>151</ele>
        <time>2017-11-21T16:50:11Z</time>
      </trkpt>
      <trkpt lat="49.40328" lon="1.17233">
        <ele>151</ele>
        <time>2017-11-21T16:50:11Z</time>
      </trkpt>
      <trkpt lat="49.40324" lon="1.1723">
        <ele>151</ele>
        <time>2017-11-21T16:50:11Z</time>
      </trkpt>
      <trkpt lat="49.4032" lon="1.17226">
        <ele>151</ele>
        <time>2017-11-21T16:50:27Z</time>
      </trkpt>
      <trkpt lat="49.40318" lon="1.1722">
        <ele>151</ele>
        <time>2017-11-21T16:50:27Z</time>
      </trkpt>
      <trkpt lat="49.40319" lon="1.17213">
        <ele>151</ele>
        <time>2017-11-21T16:50:27Z</time>
      </trkpt>
      <trkpt lat="49.40321" lon="1.17206">
        <ele>151</ele>
        <time>2017-11-21T16:50:27Z</time>
      </trkpt>
    </trkseg>
  </trk>
</gpx>